[[{"header":{"parameterUnit":"m.s-1","parameterCategory":1,"la1":30.6,"la2":28.766,"lo1":-90.7593,"lo2":-88.6598,"dx":0.0162,"dy":0.0183,"nx":116,"ny":114,"refTime":"2023-02-08T18:00:00:Z","depth":0,"parameterNumber":2,"parameterNumberName":"U-component_of_WINDS"},"data":[0.0,0.0,0.0,0.0,0.0,0.0,0.0,0.0,0.0,0.0,0.0,0.0,0.0,0.0,0.0,0.0,0.0,0.0,0.0,0.0,0.0,0.0,0.0,0.0,0.0,0.0,0.0,0.0,0.0,0.0,0.0,0.0,0.0,0.0,0.0,0.0,0.0,0.0,0.0,0.0,0.0,0.0,0.0,0.0,0.0,0.0,0.0,0.0,0.0,0.0,0.0,0.0,0.0,0.0,0.0,0.0,0.0,0.0,0.0,0.0,0.0,0.0,0.0,0.0,0.0,0.0,0.0,0.0,0.0,0.0,0.0,0.0,0.0,0.0,0.0,0.0,0.0,0.0,0.0,0.0,0.0,0.0,0.0,0.0,0.0,0.0,0.0,0.0,0.0,0.0,0.0,0.0,0.0,0.0,0.0,0.0,0.0,0.0,0.0,0.0,0.0,0.0,0.0,0.0,0.0,0.0,0.0,0.0,0.0,0.0,0.0,0.0,0.0,0.0,0.0,0.0,0.0,0.0,0.0,0.0,0.0,0.0,0.0,0.0,0.0,0.0,0.0,0.0,0.0,0.0,0.0,0.0,0.0,0.0,0.0,0.0,0.0,0.0,0.0,0.0,0.0,0.0,0.0,0.0,0.0,0.0,0.0,0.0,0.0,0.0,0.0,0.0,0.0,0.0,0.0,0.0,0.0,0.0,0.0,0.0,0.0,0.0,0.0,0.0,0.0,0.0,0.0,0.0,0.0,0.0,0.0,0.0,0.0,0.0,0.0,0.0,0.0,0.0,0.0,0.0,0.0,0.0,0.0,0.0,0.0,0.0,0.0,0.0,0.0,0.0,0.0,0.0,0.0,0.0,0.0,0.0,0.0,0.0,0.0,0.0,0.0,0.0,0.0,0.0,0.0,0.0,0.0,0.0,0.0,0.0,0.0,0.0,0.0,0.0,0.0,0.0,0.0,0.0,0.0,0.0,0.0,0.0,0.0,0.0,0.0,0.0,0.0,0.0,0.0,0.0,0.0,0.0,0.0,0.0,0.0,0.0,0.0,0.0,0.0,0.0,0.0,0.0,0.0,0.0,0.0,0.0,0.0,0.0,0.0,0.0,0.0,0.0,0.0,0.0,0.0,0.0,0.0,0.0,0.0,0.0,0.0,0.0,0.0,0.0,0.0,0.0,0.0,0.0,0.0,0.0,0.0,0.0,0.0,0.0,0.0,0.0,0.0,0.0,0.0,0.0,0.0,0.0,0.0,0.0,0.0,0.0,0.0,0.0,0.0,0.0,0.0,0.0,0.0,0.0,0.0,0.0,0.0,0.0,0.0,0.0,0.0,0.0,0.0,0.0,0.0,0.0,0.0,0.0,0.0,0.0,0.0,0.0,0.0,0.0,0.0,0.0,0.0,0.0,0.0,0.0,0.0,0.0,0.0,0.0,0.0,0.0,0.0,0.0,0.0,0.0,0.0,0.0,0.0,0.0,0.0,0.0,0.0,0.0,0.0,0.0,0.0,0.0,0.0,0.0,0.0,0.0,0.0,0.0,0.0,0.0,0.0,0.0,0.0,0.0,0.0,0.0,0.0,0.0,0.0,0.0,0.0,0.0,0.0,0.0,0.0,0.0,0.0,0.0,0.0,0.0,0.0,0.0,0.0,0.0,0.0,0.0,0.0,0.0,0.0,0.0,0.0,0.0,0.0,0.0,0.0,0.0,0.0,0.0,0.0,0.0,0.0,0.0,0.0,0.0,0.0,0.0,0.0,0.0,0.0,0.0,0.0,0.0,0.0,0.0,0.0,0.0,0.0,0.0,0.0,0.0,0.0,0.0,0.0,0.0,0.0,0.0,0.0,0.0,0.0,0.0,0.0,0.0,0.0,0.0,0.0,0.0,0.0,0.0,0.0,0.0,0.0,0.0,0.0,0.0,0.0,0.0,0.0,0.0,0.0,0.0,0.0,0.0,0.0,0.0,0.0,0.0,0.0,0.0,0.0,0.0,0.0,0.0,0.0,0.0,0.0,0.0,0.0,0.0,0.0,0.0,0.0,0.0,0.0,0.0,0.0,0.0,0.0,0.0,0.0,0.0,0.0,0.0,0.0,0.0,0.0,0.0,0.0,0.0,0.0,0.0,0.0,0.0,0.0,0.0,0.0,0.0,0.0,0.0,0.0,0.0,0.0,0.0,0.0,0.0,0.0,0.0,0.0,0.0,0.0,0.0,0.0,0.0,0.0,0.0,0.0,0.0,0.0,0.0,0.0,0.0,0.0,0.0,0.0,0.0,0.0,0.0,0.0,0.0,0.0,0.0,0.0,0.0,0.0,0.0,0.0,0.0,0.0,0.0,0.0,0.0,0.0,0.0,0.0,0.0,0.0,0.0,0.0,0.0,0.0,0.0,0.0,0.0,0.0,0.0,0.0,0.0,0.0,0.0,0.0,0.0,0.0,0.0,0.0,0.0,0.0,0.0,0.0,0.0,0.0,0.0,0.0,0.0,0.0,0.0,0.0,0.0,0.0,0.0,0.0,0.0,0.0,0.0,0.0,0.0,0.0,0.0,0.0,0.0,0.0,0.0,0.0,0.0,0.0,0.0,0.0,0.0,0.0,0.0,0.0,0.0,0.0,0.0,0.0,0.0,0.0,0.0,0.0,0.0,0.0,0.0,0.0,0.0,0.0,0.0,0.0,0.0,0.0,0.0,0.0,0.0,0.0,0.0,0.0,0.0,0.0,0.0,0.0,0.0,0.0,0.0,0.0,0.0,0.0,0.0,0.0,0.0,0.0,0.0,0.0,0.0,0.0,0.0,0.0,0.0,0.0,0.0,0.0,0.0,0.0,0.0,0.0,0.0,0.0,0.0,0.0,0.0,0.0,0.0,0.0,0.0,0.0,0.0,0.0,0.0,0.0,0.0,0.0,0.0,0.0,0.0,0.0,0.0,0.0,0.0,0.0,0.0,0.0,0.0,0.0,0.0,0.0,0.0,0.0,0.0,0.0,0.0,0.0,0.0,0.0,0.0,0.0,0.0,0.0,0.0,0.0,0.0,0.0,0.0,0.0,0.0,0.0,0.0,0.0,0.0,0.0,0.0,0.0,0.0,0.0,0.0,0.0,0.0,0.0,0.0,0.0,0.0,0.0,0.0,0.0,0.0,0.0,0.0,0.0,0.0,0.0,0.0,0.0,0.0,0.0,0.0,0.0,0.0,0.0,0.0,0.0,0.0,0.0,0.0,0.0,0.0,0.0,0.0,0.0,0.0,0.0,0.0,0.0,0.0,0.0,0.0,0.0,0.0,0.0,0.0,0.0,0.0,0.0,0.0,0.0,0.0,0.0,0.0,0.0,0.0,0.0,0.0,0.0,0.0,0.0,0.0,0.0,0.0,0.0,0.0,0.0,0.0,0.0,0.0,0.0,0.0,0.0,0.0,0.0,0.0,0.0,0.0,0.0,0.0,0.0,0.0,0.0,0.0,0.0,0.0,0.0,0.0,0.0,0.0,0.0,0.0,0.0,0.0,0.0,0.0,0.0,0.0,0.0,0.0,0.0,0.0,0.0,0.0,0.0,0.0,0.0,0.0,0.0,0.0,0.0,0.0,0.0,0.0,0.0,0.0,0.0,0.0,0.0,0.0,0.0,0.0,0.0,0.0,0.0,0.0,0.0,0.0,0.0,0.0,0.0,0.0,0.0,0.0,0.0,0.0,0.0,0.0,0.0,0.0,0.0,0.0,0.0,0.0,0.0,0.0,0.0,0.0,0.0,0.0,0.0,0.0,0.0,0.0,0.0,0.0,0.0,0.0,0.0,0.0,0.0,0.0,0.0,0.0,0.0,0.0,0.0,0.0,0.0,0.0,0.0,0.0,0.0,0.0,0.0,0.0,0.0,0.0,0.0,0.0,0.0,0.0,0.0,0.0,0.0,0.0,0.0,0.0,0.0,0.0,0.0,0.0,0.0,0.0,0.0,0.0,0.0,0.0,0.0,0.0,0.0,0.0,0.0,0.0,0.0,0.0,0.0,0.0,0.0,0.0,0.0,0.0,0.0,0.0,0.0,0.0,0.0,0.0,0.0,0.0,0.0,0.0,0.0,0.0,0.0,0.0,0.0,0.0,0.0,0.0,0.0,0.0,0.0,0.0,0.0,0.0,0.0,0.0,0.0,0.0,0.0,0.0,0.0,0.0,0.0,0.0,0.0,0.0,0.0,0.0,0.0,0.0,0.0,0.0,0.0,0.0,0.0,0.0,0.0,0.0,0.0,0.0,0.0,0.0,0.0,0.0,0.0,0.0,0.0,0.0,0.0,0.0,0.0,0.0,0.0,0.0,0.0,0.0,0.0,0.0,0.0,0.0,0.0,0.0,0.0,0.0,0.0,0.0,0.0,0.0,0.0,0.0,0.0,0.0,0.0,0.0,0.0,0.0,0.0,0.0,0.0,0.0,0.0,0.0,0.0,0.0,0.0,0.0,0.0,0.0,0.0,0.0,0.0,0.0,0.0,0.0,0.0,0.0,0.0,0.0,0.0,0.0,0.0,0.0,0.0,0.0,0.0,0.0,0.0,0.0,0.0,0.0,0.0,0.0,0.0,0.0,0.0,0.0,0.0,0.0,0.0,0.0,0.0,0.0,0.0,0.0,0.0,0.0,0.0,0.0,0.0,0.0,0.0,0.0,0.0,0.0,0.0,0.0,0.0,0.0,0.0,0.0,0.0,0.0,0.0,0.0,0.0,0.0,0.0,0.0,0.0,0.0,0.0,0.0,0.0,0.0,0.0,0.0,0.0,0.0,0.0,0.0,0.0,0.0,0.0,0.0,0.0,0.0,0.0,0.0,0.0,0.0,0.0,0.0,0.0,0.0,0.0,0.0,0.0,0.0,0.0,0.0,0.0,0.0,0.0,0.0,0.0,0.0,0.0,0.0,0.0,0.0,0.0,0.0,0.0,0.0,0.0,0.0,0.0,0.0,0.0,0.0,0.0,0.0,0.0,0.0,0.0,0.0,0.0,0.0,0.0,0.0,0.0,0.0,0.0,0.0,0.0,0.0,0.0,0.0,0.0,0.0,0.0,0.0,0.0,0.0,0.0,0.0,0.0,0.0,0.0,0.0,0.0,0.0,0.0,0.0,0.0,0.0,0.0,0.0,0.0,0.0,0.0,0.0,0.0,0.0,0.0,0.0,0.0,0.0,0.0,0.0,0.0,0.0,0.0,0.0,0.0,0.0,0.0,0.0,0.0,0.0,0.0,0.0,0.0,0.0,0.0,0.0,0.0,0.0,0.0,0.0,0.0,0.0,0.0,0.0,0.0,0.0,0.0,0.0,0.0,0.0,0.0,0.0,0.0,0.0,0.0,0.0,0.0,0.0,0.0,0.0,0.0,0.0,0.0,0.0,0.0,0.0,0.0,0.0,0.0,0.0,0.0,0.0,0.0,0.0,0.0,0.0,0.0,0.0,0.0,0.0,0.0,0.0,0.0,0.0,0.0,0.0,0.0,0.0,0.0,0.0,0.0,0.0,0.0,0.0,0.0,0.0,0.0,0.0,0.0,0.0,0.0,0.0,0.0,0.0,0.0,0.0,0.0,0.0,0.0,0.0,0.0,0.0,0.0,0.0,0.0,0.0,0.0,0.0,0.0,0.0,0.0,0.0,0.0,0.0,0.0,0.0,0.0,0.0,0.0,0.0,0.0,0.0,0.0,0.0,0.0,0.0,0.0,0.0,0.0,0.0,0.0,0.0,0.0,0.0,0.0,0.0,0.0,0.0,0.0,0.0,0.0,0.0,0.0,0.0,0.0,0.0,0.0,0.0,0.0,0.0,0.0,0.0,0.0,0.0,0.0,0.0,0.0,0.0,0.0,0.0,0.0,0.0,0.0,0.0,0.0,0.0,0.0,0.0,0.0,0.0,0.0,0.0,0.0,0.0,0.0,0.0,0.0,0.0,0.0,0.0,0.0,0.0,0.0,0.0,0.0,0.0,0.0,0.0,0.0,0.0,0.0,0.0,0.0,0.0,0.0,0.0,0.0,0.0,0.0,0.0,0.0,0.0,0.0,0.0,0.0,0.0,0.0,0.0,0.0,0.0,0.0,0.0,0.0,0.0,0.0,0.0,0.0,0.0,0.0,0.0,4.2713,4.2811,0.0,0.0,0.0,0.0,0.0,0.0,0.0,0.0,0.0,0.0,0.0,0.0,0.0,0.0,0.0,0.0,0.0,0.0,0.0,0.0,0.0,0.0,0.0,0.0,0.0,0.0,0.0,0.0,0.0,0.0,0.0,0.0,0.0,0.0,0.0,0.0,0.0,0.0,0.0,0.0,0.0,0.0,0.0,0.0,0.0,0.0,0.0,0.0,0.0,0.0,0.0,0.0,0.0,0.0,0.0,0.0,0.0,0.0,0.0,0.0,0.0,0.0,0.0,0.0,0.0,0.0,0.0,0.0,0.0,0.0,0.0,0.0,0.0,0.0,0.0,0.0,0.0,0.0,0.0,0.0,0.0,0.0,0.0,0.0,0.0,0.0,0.0,0.0,0.0,0.0,0.0,0.0,0.0,0.0,0.0,0.0,0.0,0.0,0.0,0.0,0.0,0.0,0.0,0.0,0.0,0.0,0.0,0.0,0.0,0.0,0.0,0.0,0.0,0.0,4.3432,4.3171,0.0,0.0,0.0,0.0,0.0,0.0,0.0,0.0,0.0,0.0,0.0,0.0,0.0,0.0,0.0,0.0,0.0,0.0,0.0,0.0,0.0,0.0,0.0,0.0,0.0,0.0,0.0,0.0,0.0,0.0,0.0,0.0,0.0,0.0,0.0,0.0,0.0,0.0,0.0,0.0,0.0,0.0,0.0,0.0,0.0,0.0,0.0,0.0,0.0,0.0,0.0,0.0,0.0,0.0,0.0,0.0,0.0,0.0,0.0,0.0,0.0,0.0,0.0,0.0,0.0,0.0,0.0,0.0,0.0,0.0,0.0,0.0,0.0,0.0,0.0,0.0,0.0,0.0,0.0,0.0,0.0,0.0,0.0,0.0,0.0,0.0,0.0,0.0,0.0,0.0,0.0,0.0,0.0,0.0,0.0,0.0,0.0,0.0,0.0,0.0,0.0,0.0,0.0,0.0,0.0,0.0,0.0,0.0,4.3736,4.3904,4.4214,4.451,4.4597,4.4525,4.35,4.3178,4.3324,4.3609,0.0,0.0,0.0,0.0,0.0,0.0,0.0,0.0,0.0,0.0,0.0,0.0,0.0,0.0,0.0,0.0,0.0,0.0,0.0,0.0,0.0,0.0,0.0,0.0,0.0,0.0,0.0,0.0,0.0,0.0,0.0,0.0,0.0,0.0,0.0,0.0,0.0,0.0,4.3977,4.414,4.4203,4.4036,4.2334,0.0,0.0,0.0,0.0,0.0,0.0,0.0,0.0,0.0,0.0,0.0,0.0,0.0,0.0,0.0,0.0,0.0,0.0,0.0,0.0,0.0,0.0,0.0,0.0,0.0,0.0,0.0,0.0,0.0,0.0,0.0,0.0,0.0,0.0,0.0,0.0,0.0,0.0,0.0,0.0,0.0,0.0,0.0,4.1195,4.0588,0.0,0.0,0.0,0.0,0.0,0.0,0.0,0.0,0.0,0.0,0.0,0.0,0.0,4.3114,4.3221,4.3472,4.3544,4.3543,4.3077,4.2789,4.2573,4.265,4.2691,4.2655,4.2481,0.0,4.3818,4.4125,0.0,0.0,0.0,0.0,0.0,0.0,0.0,0.0,0.0,0.0,0.0,0.0,0.0,0.0,0.0,0.0,0.0,0.0,0.0,0.0,0.0,0.0,0.0,0.0,0.0,0.0,0.0,0.0,0.0,0.0,0.0,0.0,0.0,0.0,0.0,0.0,4.2711,4.4193,4.5234,4.5617,4.5721,4.5724,4.5299,4.4449,4.3327,4.2513,0.0,0.0,0.0,0.0,0.0,0.0,0.0,0.0,0.0,0.0,0.0,0.0,0.0,0.0,0.0,0.0,0.0,0.0,0.0,0.0,0.0,0.0,0.0,0.0,0.0,0.0,0.0,0.0,0.0,0.0,0.0,0.0,0.0,0.0,0.0,0.0,0.0,0.0,0.0,4.0911,4.2088,4.1139,4.1533,4.1534,0.0,0.0,0.0,0.0,0.0,0.0,0.0,0.0,0.0,4.2965,4.3322,4.35,4.35,4.3161,4.359,4.4785,4.3662,4.3519,4.425,4.425,4.425,4.4285,4.4749,4.4693,4.4253,4.3828,4.3761,4.3834,0.0,0.0,0.0,0.0,4.189,4.1646,0.0,0.0,0.0,0.0,0.0,0.0,0.0,0.0,0.0,0.0,0.0,0.0,0.0,0.0,0.0,3.9031,0.0,0.0,0.0,0.0,0.0,0.0,0.0,0.0,0.0,0.0,0.0,0.0,4.3528,4.4463,4.5832,4.6056,4.6198,4.634,4.6763,4.6094,4.4616,4.4155,4.3327,0.0,0.0,0.0,0.0,0.0,0.0,0.0,0.0,0.0,0.0,0.0,0.0,0.0,0.0,0.0,0.0,0.0,0.0,0.0,0.0,0.0,0.0,0.0,0.0,0.0,0.0,0.0,0.0,0.0,0.0,0.0,0.0,0.0,0.0,0.0,0.0,0.0,0.0,4.1831,4.2783,4.163,4.2185,4.2255,0.0,0.0,0.0,0.0,0.0,0.0,4.3465,4.3322,4.3286,4.35,4.3679,4.3893,4.4107,4.35,4.4071,4.5784,4.4428,4.4392,4.5499,4.5499,4.5499,4.5534,4.6141,4.5757,4.4671,4.3851,4.3905,4.4419,4.3892,4.3472,4.3167,4.3045,4.2662,4.2277,0.0,0.0,0.0,0.0,0.0,0.0,0.0,0.0,0.0,0.0,0.0,0.0,0.0,0.0,4.0416,4.0416,4.0447,3.9924,0.0,0.0,0.0,0.0,0.0,0.0,0.0,0.0,0.0,4.3114,4.4787,4.5697,4.576,4.5468,4.5468,4.5832,4.5953,4.6389,4.7045,4.63,4.545,4.4456,0.0,0.0,0.0,0.0,0.0,0.0,0.0,0.0,0.0,0.0,0.0,0.0,0.0,0.0,0.0,0.0,0.0,0.0,0.0,0.0,0.0,0.0,0.0,0.0,0.0,0.0,0.0,0.0,0.0,0.0,0.0,0.0,0.0,0.0,0.0,0.0,0.0,0.0,0.0,4.2383,4.4207,0.0,0.0,0.0,0.0,4.3429,4.3429,4.3465,4.35,4.2787,4.2715,4.35,4.4178,4.4928,4.5677,4.5641,4.5677,4.5784,4.4963,4.4607,4.4678,4.4678,4.4678,4.4678,4.4714,4.485,4.5034,4.4671,4.415,4.3513,4.294,4.3356,4.4163,4.3713,4.3721,4.3875,0.0,0.0,0.0,0.0,0.0,0.0,0.0,0.0,0.0,0.0,0.0,0.0,0.0,4.0139,4.1401,4.1832,4.2263,4.2109,4.1217,0.0,0.0,0.0,0.0,0.0,0.0,0.0,4.2726,4.4087,4.4701,4.5024,4.5024,4.4874,4.4874,4.5024,4.5067,4.5258,4.5634,4.6483,4.6314,4.5463,4.4783,4.2968,0.0,0.0,0.0,0.0,0.0,0.0,0.0,0.0,0.0,0.0,0.0,0.0,0.0,0.0,0.0,0.0,0.0,0.0,0.0,0.0,0.0,0.0,0.0,0.0,0.0,0.0,0.0,0.0,0.0,0.0,0.0,0.0,0.0,0.0,0.0,0.0,0.0,4.3421,4.4653,0.0,4.3886,4.4285,4.45,4.425,4.4214,4.4428,4.4963,4.4714,4.4678,4.4963,4.5249,4.5499,4.582,4.5285,4.557,4.6569,4.5249,4.4892,4.5392,4.5392,4.5392,4.5392,4.5392,4.5158,4.4742,4.433,4.4216,4.4345,4.4126,4.4048,4.414,4.4568,4.4406,4.3986,0.0,0.0,0.0,0.0,0.0,0.0,0.0,0.0,0.0,0.0,0.0,3.9277,3.9524,4.1186,4.2448,4.291,4.331,4.3094,4.1986,0.0,0.0,0.0,0.0,0.0,0.0,4.214,4.3248,4.4572,4.4572,4.4648,4.4799,4.4648,4.4723,4.5024,4.4723,4.4799,4.5216,4.6024,4.6144,4.5832,4.5943,4.4556,4.2423,0.0,0.0,0.0,0.0,0.0,0.0,0.0,0.0,0.0,0.0,0.0,0.0,0.0,0.0,0.0,0.0,0.0,0.0,0.0,0.0,0.0,0.0,0.0,0.0,0.0,0.0,0.0,0.0,0.0,0.0,0.0,0.0,0.0,0.0,4.3687,4.4389,4.4152,4.5468,4.5889,4.4706,4.5356,4.5606,4.5071,4.4999,4.5249,4.5784,4.5534,4.5534,4.5784,4.582,4.5927,4.6212,4.5677,4.5927,4.6962,4.5927,4.5677,4.6212,4.6212,4.6212,4.6177,4.5927,4.5356,4.4571,4.4037,4.3896,4.4125,4.4595,4.4731,4.4749,4.5143,4.4915,4.4395,0.0,0.0,0.0,0.0,0.0,0.0,0.0,0.0,0.0,0.0,3.9677,4.0786,4.1524,4.2756,4.3525,4.3525,4.3525,4.2694,4.0693,4.0539,0.0,0.0,0.0,0.0,4.254,4.2633,4.331,4.4648,4.4648,4.4799,4.5247,4.4799,4.5024,4.576,4.4949,4.5247,4.6262,4.5173,4.5098,4.5778,4.5767,4.5403,4.4691,0.0,0.0,0.0,0.0,0.0,0.0,0.0,0.0,0.0,0.0,0.0,0.0,0.0,0.0,0.0,0.0,0.0,0.0,0.0,0.0,0.0,0.0,0.0,0.0,0.0,0.0,0.0,0.0,0.0,0.0,0.0,0.0,0.0,4.3156,4.4546,4.5346,4.4777,4.6783,4.7319,4.4999,4.6819,4.7533,4.5998,4.5856,4.5856,4.5856,4.5106,4.5035,4.582,4.5856,4.6212,4.6998,4.6998,4.6998,4.6998,4.6998,4.6998,4.7033,4.7033,4.7033,4.6998,4.6177,4.5356,4.4571,4.3786,4.3171,4.2878,4.4271,4.5291,4.588,4.5486,4.5287,4.5138,0.0,0.0,0.0,0.0,0.0,0.0,0.0,0.0,0.0,0.0,3.9677,4.0786,4.1524,4.2355,4.2879,4.2879,4.2879,4.2417,4.137,0.0,0.0,0.0,0.0,0.0,4.2602,4.3556,4.4353,4.5024,4.5024,4.5247,4.5614,4.5247,4.5173,4.5395,4.5098,4.5528,4.6265,4.722,4.7684,4.7636,4.6828,4.6845,4.7275,0.0,0.0,0.0,0.0,0.0,0.0,0.0,0.0,0.0,0.0,0.0,0.0,0.0,0.0,0.0,0.0,0.0,0.0,0.0,0.0,0.0,0.0,0.0,0.0,0.0,0.0,0.0,0.0,0.0,0.0,0.0,4.3843,4.4325,4.4678,4.5634,4.646,4.6862,4.7997,4.859,4.8057,4.8104,4.7997,4.7568,4.6998,4.6676,4.6676,4.6462,4.6427,4.6641,4.6676,4.6783,4.6998,4.6998,4.6998,4.6998,4.6998,4.7283,4.7854,4.7854,4.7854,4.7783,4.6391,4.5356,4.45,4.3632,4.3175,4.3214,4.4784,4.4893,4.4404,4.5708,4.5398,4.4321,0.0,0.0,0.0,0.0,0.0,0.0,0.0,0.0,0.0,0.0,4.0183,4.114,4.2294,4.2932,4.3221,4.3002,4.2509,4.1894,4.1186,0.0,0.0,0.0,0.0,4.2994,4.3433,4.4322,4.4949,4.5173,4.5024,4.5173,4.5541,4.5173,4.4949,4.4949,4.5259,4.5721,4.6473,4.7467,4.8401,4.9186,4.8167,4.8233,4.868,4.7356,4.6927,4.6866,4.5912,4.5966,4.6458,4.5423,0.0,0.0,0.0,0.0,0.0,0.0,0.0,0.0,0.0,0.0,0.0,0.0,0.0,0.0,0.0,0.0,0.0,0.0,0.0,0.0,0.0,0.0,0.0,0.0,4.5106,4.5847,4.6493,4.6991,4.7453,4.7903,4.8981,4.9421,4.8889,4.871,4.8389,4.7747,4.7568,4.7354,4.6998,4.7319,4.7354,4.6998,4.6998,4.6998,4.6998,4.6998,4.6998,4.6998,4.7319,4.7747,4.8175,4.8496,4.8639,4.8568,4.6998,4.5856,4.4999,4.384,4.3132,0.0,0.0,0.0,0.0,0.0,4.5138,4.3986,0.0,0.0,0.0,0.0,0.0,0.0,0.0,0.0,0.0,0.0,0.0,4.1728,4.3414,4.3925,4.3967,4.3538,4.2325,4.1309,0.0,0.0,0.0,4.2582,4.3149,4.3769,4.4617,4.5011,4.5235,4.5173,4.4874,4.4949,4.5321,4.4949,4.483,4.4953,4.5465,4.6265,4.7098,4.6967,4.836,5.0524,4.9838,4.9618,4.9588,4.8245,4.7894,4.8083,4.7472,4.7286,4.7424,4.7838,0.0,0.0,0.0,0.0,0.0,0.0,0.0,0.0,0.0,0.0,0.0,0.0,0.0,0.0,0.0,0.0,0.0,0.0,0.0,0.0,0.0,0.0,0.0,0.0,4.6534,4.7283,4.8175,4.8389,4.8425,4.8425,4.9745,5.0102,4.871,4.9103,4.8889,4.7497,4.7961,4.7997,4.7283,4.7925,0.0,0.0,0.0,4.7212,4.714,4.7212,4.7212,4.714,4.7925,4.8318,4.8318,4.9103,4.946,4.9353,4.7783,4.6686,4.5721,4.4228,4.3166,4.2645,4.4373,4.5217,4.5398,4.5212,4.4655,4.3986,0.0,0.0,0.0,0.0,0.0,0.0,0.0,0.0,0.0,4.017,4.0608,4.1379,4.334,4.363,4.3519,4.2848,4.2048,4.1309,0.0,0.0,4.216,4.2972,4.4335,4.5108,4.5098,4.5325,4.5432,4.5173,4.5468,4.576,4.6088,4.6017,4.6262,4.6834,4.6665,4.7628,4.9425,4.9181,5.0351,5.2399,5.216,5.2202,5.2272,5.1384,5.1569,5.2157,5.1425,5.1528,5.1839,5.0149,4.9873,4.9907,4.7907,0.0,0.0,0.0,0.0,0.0,0.0,0.0,0.0,0.0,0.0,0.0,0.0,0.0,0.0,0.0,0.0,0.0,0.0,0.0,0.0,4.6498,4.689,4.7497,4.8889,4.9638,5.0066,5.0066,5.0887,5.1351,5.103,5.0566,5.0138,4.9852,4.9388,4.9032,4.8889,4.8996,4.8746,4.7961,4.8532,4.8568,4.7961,4.8568,4.8568,4.7961,0.0,0.0,4.9139,4.9924,5.0281,5.0174,4.8639,4.7322,4.6104,4.4729,4.3944,4.3664,4.3609,4.4699,4.6104,4.4766,4.4135,4.3986,0.0,0.0,0.0,0.0,0.0,0.0,0.0,0.0,0.0,0.0,3.9658,4.0375,4.1863,4.2262,4.2138,4.1586,4.1247,0.0,0.0,4.2085,4.3438,4.4903,4.5716,4.6354,4.6579,4.6698,4.6774,4.6877,4.6877,4.6951,4.7066,4.6877,4.6992,4.7372,4.746,4.8301,4.9576,5.0016,5.1084,5.2557,5.2838,5.3245,5.3714,5.2894,5.2681,5.2804,5.2804,5.308,5.3287,5.2528,5.2252,5.2046,5.0907,4.9252,4.7251,0.0,0.0,0.0,0.0,0.0,0.0,0.0,0.0,0.0,0.0,0.0,0.0,0.0,0.0,4.532,0.0,0.0,4.6783,4.7961,4.8496,4.9032,4.9817,5.0602,5.0959,5.0566,5.1208,5.153,5.1137,5.0744,5.0352,4.9924,4.9924,4.9745,4.9353,4.971,4.9567,4.8782,4.9139,4.9317,4.9353,4.9317,4.9317,4.9353,4.9317,4.9317,4.9317,4.9745,5.0138,5.0423,4.8853,4.768,4.6657,4.4631,4.4013,4.4317,4.3642,4.418,4.5249,4.5249,4.4729,4.4061,0.0,0.0,0.0,0.0,0.0,0.0,0.0,0.0,0.0,0.0,3.8769,3.9361,4.0385,4.0783,4.0758,0.0,0.0,0.0,0.0,4.2739,4.4746,4.6708,4.7056,4.7478,4.7997,4.8124,4.8243,4.8519,4.8297,4.8115,4.8115,4.7725,4.7635,4.8022,4.8403,4.8998,4.9769,5.0585,5.1623,5.2761,5.2941,5.3683,5.4603,5.3685,5.306,5.2735,5.3218,5.3391,5.3494,5.408,5.3908,5.3425,5.3563,5.2252,5.0045,4.6803,4.532,0.0,0.0,0.0,0.0,0.0,0.0,0.0,0.0,0.0,4.305,4.4867,4.5775,4.6498,4.7283,4.7961,4.8639,4.9424,5.0102,5.0566,5.0709,5.128,5.1458,5.0816,5.1315,5.1458,5.0816,5.0744,5.0459,4.9817,5.0388,5.0459,4.9817,5.0388,5.0352,4.9567,4.971,4.9995,5.0495,5.0174,5.0174,5.0495,4.9995,4.9603,4.9317,4.9317,4.9674,5.0174,4.8744,4.7823,4.7072,4.46,4.412,4.4841,4.4177,4.3943,4.4172,4.5695,4.5398,4.4395,0.0,0.0,0.0,0.0,0.0,0.0,0.0,0.0,0.0,0.0,0.0,0.0,0.0,0.0,0.0,0.0,0.0,0.0,4.067,4.4225,4.6476,4.6803,4.8004,4.8568,4.8403,4.9138,4.918,4.8715,4.9004,4.918,4.9109,4.8561,4.902,5.0261,4.9779,5.0725,5.27,5.1816,5.2786,5.4668,5.3484,5.3956,5.5266,5.4603,5.4322,5.4184,5.3598,5.3391,5.3425,5.3494,5.346,5.3529,5.4184,5.377,5.2287,4.8562,0.0,4.5354,4.0802,3.9629,4.0008,4.1332,4.1712,4.2431,0.0,0.0,4.5258,4.7085,4.7713,4.8139,4.8925,4.9139,4.946,5.0245,5.0459,5.0744,5.1458,5.1637,5.1672,5.1565,5.1637,5.1672,5.1565,5.1565,5.153,5.1422,5.1494,5.153,5.1422,5.153,5.1208,5.0388,5.1066,5.1137,5.053,5.1815,5.1815,5.053,5.1137,5.0673,4.9317,4.9317,4.9353,4.9353,4.8374,4.7506,4.6676,4.5542,4.5148,4.5254,4.5143,4.466,4.4135,4.5064,4.5324,4.5249,0.0,0.0,0.0,0.0,0.0,0.0,0.0,0.0,0.0,0.0,0.0,0.0,0.0,0.0,0.0,0.0,0.0,0.0,4.1252,4.4946,4.7435,4.8038,4.8807,4.9489,5.007,5.0519,5.0709,5.0602,5.1564,5.1691,5.1108,5.1531,5.1922,5.2215,5.2333,5.3016,5.4142,5.4075,5.4698,5.5553,5.528,5.5309,5.5434,5.4741,5.4253,5.3701,5.2494,5.208,0.0,0.0,5.1425,5.1632,5.2804,5.2356,5.0838,4.7941,4.6527,0.0,4.1905,4.1354,4.1767,0.0,4.2664,4.3662,4.4883,4.4998,4.5355,4.7146,4.8147,4.891,4.9643,5.0289,5.0816,0.0,5.1208,5.1315,5.1637,5.2101,5.2386,5.2386,5.2779,5.2707,5.1779,5.1708,5.1708,5.1708,5.1708,5.1708,5.1708,5.1708,5.153,5.1208,5.153,5.1744,5.1886,5.2101,5.2101,5.1886,5.128,5.0423,4.9317,4.9041,4.8803,4.8518,4.8287,4.7459,4.625,4.5568,4.5287,4.5287,4.5287,4.5064,4.4915,4.6215,4.6104,4.5472,0.0,0.0,0.0,0.0,0.0,0.0,0.0,0.0,0.0,0.0,0.0,0.0,0.0,0.0,0.0,0.0,0.0,0.0,0.0,4.5122,4.7723,4.9037,4.975,5.0611,5.1655,5.2112,5.2467,5.2786,5.3978,5.4171,5.3379,5.3907,5.4096,5.3977,5.4245,5.4722,5.5333,5.5893,5.6235,5.6474,5.6742,5.646,5.5874,5.5115,5.3977,5.2563,5.1045,5.0493,0.0,0.0,4.9079,4.9286,5.0562,5.0252,4.8941,4.6631,4.5113,4.3837,4.2388,4.2423,0.0,4.2664,4.3457,4.444,4.506,4.5265,4.5765,4.7312,4.8514,4.9508,5.0125,5.1022,5.1708,5.1708,5.1708,5.1708,5.1708,5.2386,5.2886,5.2886,5.3564,5.3492,5.2136,5.2029,5.1922,5.1708,5.1708,5.1708,5.1708,5.1708,5.1708,5.1708,5.1708,5.1958,5.2529,5.2208,5.2208,5.2529,5.1387,5.0472,4.9746,4.9153,4.8551,4.8032,4.8306,4.7721,4.6653,4.6157,4.5955,4.5918,4.5732,4.5769,4.6104,4.7256,4.681,4.5844,0.0,0.0,0.0,0.0,0.0,0.0,0.0,0.0,0.0,0.0,0.0,0.0,0.0,0.0,0.0,0.0,0.0,0.0,0.0,4.4756,4.7406,4.9224,5.0783,5.1998,5.2767,5.4024,5.4703,5.4703,5.5485,5.5859,5.579,5.4689,5.4722,5.5615,5.5156,5.5511,5.6438,5.6673,5.7219,5.7805,5.7081,5.6771,5.6667,5.5874,5.377,5.0976,4.9459,0.0,0.0,0.0,4.67,4.6837,4.7596,4.7838,0.0,4.501,4.2768,0.0,0.0,0.0,4.2388,4.3837,4.4251,4.4665,4.6182,4.6707,4.723,4.8259,4.9325,5.0145,5.0446,5.1173,5.1708,5.1708,5.1708,5.1708,5.1708,5.2386,5.2886,5.2886,5.3564,5.3706,0.0,5.285,5.2529,5.1744,5.1708,5.1708,5.1708,5.1708,5.1708,5.1708,5.1708,5.1708,5.1744,5.2457,5.2457,5.1744,5.1672,5.1441,5.0994,4.9719,4.8721,4.8032,4.8269,4.8346,4.8273,4.7787,4.7627,4.7553,4.6773,4.6921,4.7627,4.7664,4.7181,4.6587,0.0,0.0,0.0,0.0,0.0,0.0,0.0,0.0,0.0,0.0,0.0,0.0,0.0,0.0,0.0,0.0,0.0,0.0,0.0,4.4333,4.6848,4.7505,4.9759,5.1363,5.2066,5.2875,5.3547,5.4057,5.5687,5.6269,5.5927,5.6701,5.7103,5.7137,5.7247,5.7564,5.8016,5.822,5.8392,5.8564,5.784,5.7253,5.6495,5.3701,5.1701,4.9907,0.0,0.0,0.0,0.0,0.0,0.0,4.5803,0.0,0.0,4.2561,0.0,0.0,0.0,0.0,4.3009,4.4044,4.4665,4.5182,4.5699,4.6395,4.7108,4.7457,4.8483,4.9401,4.9416,5.0717,5.153,5.0994,5.1779,5.2279,5.1779,5.2386,5.3064,5.3564,5.4313,0.0,0.0,0.0,0.0,5.1779,5.2172,5.2243,5.1708,5.1708,5.1708,5.1708,5.1708,5.1708,5.1708,5.1958,5.1958,5.1672,5.1173,5.0796,5.0548,4.9549,4.8962,4.8605,4.8714,4.8453,4.7935,4.7779,4.7999,4.8407,4.7627,4.811,4.9224,4.8704,4.8667,4.8853,0.0,0.0,0.0,0.0,0.0,0.0,0.0,0.0,0.0,0.0,0.0,0.0,0.0,0.0,0.0,0.0,0.0,0.0,0.0,0.0,4.5251,4.6046,4.8073,4.956,5.027,5.089,5.1452,5.1965,5.4063,5.5094,5.5039,5.6577,5.7361,5.7389,5.76,5.798,5.8359,5.8289,5.7909,5.7357,5.6598,5.5357,5.3667,5.1218,4.9321,0.0,0.0,0.0,0.0,0.0,0.0,0.0,0.0,0.0,0.0,0.0,0.0,0.0,0.0,4.2975,4.3733,4.4492,4.5285,4.5906,4.6182,4.6845,4.7526,4.791,4.8272,4.8657,4.899,4.9991,5.0673,5.0174,5.1173,5.1958,5.1708,5.2136,5.285,5.3885,5.4491,5.4777,0.0,0.0,0.0,5.2208,5.26,5.2671,5.2136,5.1851,5.1815,5.2101,5.1851,5.1708,5.1708,5.1708,5.1708,5.1672,5.1285,5.089,5.0548,5.0132,4.9805,4.9565,4.9269,4.9082,4.9002,4.8704,4.9039,4.9745,4.9224,4.9819,5.0896,5.0079,5.0302,5.0822,0.0,0.0,0.0,0.0,0.0,0.0,0.0,0.0,0.0,0.0,0.0,0.0,0.0,0.0,0.0,0.0,0.0,0.0,0.0,0.0,0.0,4.4959,4.5986,4.6837,4.7596,4.8286,4.8665,4.87,5.0942,5.2425,5.3218,5.4282,5.5277,5.6162,5.5961,5.6371,5.7226,5.6705,5.5598,5.4218,5.346,5.1425,4.8803,4.8631,0.0,0.0,0.0,0.0,0.0,0.0,0.0,0.0,0.0,0.0,0.0,0.0,0.0,4.2181,4.3009,4.3784,4.4492,4.5285,4.6044,4.6803,4.7493,4.7919,4.8432,4.9258,4.8549,4.7984,0.0,0.0,4.9353,4.9269,5.0102,5.0923,5.1601,5.1708,5.2243,0.0,0.0,0.0,0.0,0.0,0.0,5.3064,0.0,5.2957,5.2957,5.2172,5.2101,5.285,5.2136,5.1744,5.1744,5.1744,5.1744,5.1672,5.203,5.1788,5.103,5.1391,5.1261,5.0814,5.0004,5.0267,5.1268,5.045,5.0599,5.1416,5.1416,5.1936,5.2568,5.1751,5.1974,5.2419,0.0,0.0,0.0,0.0,0.0,0.0,0.0,0.0,0.0,0.0,0.0,0.0,0.0,0.0,0.0,0.0,0.0,0.0,0.0,0.0,0.0,0.0,0.0,0.0,0.0,0.0,0.0,0.0,4.8872,4.9804,5.0011,5.0617,5.1165,5.1459,5.1213,5.1253,5.1645,5.1623,5.1374,5.0961,0.0,4.9528,4.8562,0.0,0.0,0.0,0.0,0.0,0.0,0.0,0.0,0.0,0.0,0.0,4.1112,0.0,0.0,4.2285,4.363,4.4147,4.4596,4.5975,4.6458,4.6665,4.6837,4.7989,4.8414,4.6393,4.69,4.7391,0.0,0.0,0.0,4.9217,5.1307,0.0,5.1815,5.1708,0.0,5.3064,0.0,5.4242,5.4848,5.5455,0.0,0.0,5.4063,5.3742,5.3742,5.2993,5.2671,5.2886,5.2671,5.2564,5.2564,5.2564,5.2279,5.1672,5.203,5.1927,5.1391,5.1778,5.1701,5.1195,5.0342,5.0156,5.0413,5.019,5.0599,5.1416,5.1416,5.2271,5.3423,5.2605,5.2791,5.3423,0.0,0.0,0.0,0.0,0.0,0.0,0.0,0.0,0.0,0.0,0.0,0.0,0.0,0.0,0.0,0.0,0.0,0.0,0.0,0.0,0.0,0.0,0.0,0.0,0.0,0.0,0.0,0.0,0.0,0.0,4.6355,4.7236,4.7866,4.8266,4.8401,4.8538,4.8689,4.8804,0.0,0.0,0.0,0.0,0.0,0.0,0.0,0.0,0.0,0.0,0.0,0.0,0.0,4.1492,4.225,4.2216,4.2043,4.2955,0.0,4.3182,4.4044,4.4527,4.5079,4.632,4.6596,4.6596,4.6596,4.7298,4.7422,4.561,4.5479,0.0,4.5352,4.7204,4.8626,0.0,0.0,0.0,5.1815,5.1708,5.2101,0.0,5.3171,0.0,5.5062,5.4991,5.5098,0.0,5.4991,5.4563,5.4563,5.3813,5.3528,5.3885,5.3564,5.3385,5.3385,5.3182,5.2888,5.2422,5.2448,5.2327,5.2113,5.2694,5.2504,5.1674,5.1563,5.138,5.1193,5.1193,5.1676,5.2457,5.2457,5.3014,5.3757,5.3311,5.3423,5.3794,0.0,0.0,0.0,0.0,0.0,0.0,0.0,0.0,0.0,0.0,0.0,0.0,0.0,0.0,0.0,0.0,0.0,0.0,0.0,0.0,0.0,0.0,0.0,0.0,0.0,0.0,0.0,0.0,0.0,0.0,0.0,0.0,0.0,0.0,0.0,0.0,0.0,0.0,0.0,0.0,0.0,0.0,0.0,0.0,0.0,0.0,0.0,0.0,0.0,0.0,4.263,4.2319,4.3182,4.337,4.3266,4.3423,4.3871,4.4285,4.4389,4.501,4.5734,4.6424,4.6769,4.6837,4.6581,4.6499,4.623,4.5591,0.0,4.3651,4.4926,4.5964,4.6766,4.7048,0.0,5.1708,5.1708,5.1708,5.2208,5.3564,5.2707,5.2814,5.4848,5.4028,5.4206,5.624,5.574,5.5384,5.5384,5.4598,5.4491,5.5205,5.4527,5.417,5.4223,5.39,5.3628,5.346,5.3145,5.2959,5.2886,5.3632,5.3366,5.2364,5.3027,5.304,5.2605,5.2717,5.3125,5.3645,5.3757,5.3794,5.3794,5.3794,5.3794,5.3794,0.0,0.0,0.0,0.0,0.0,0.0,0.0,0.0,0.0,0.0,0.0,0.0,0.0,0.0,0.0,0.0,0.0,0.0,0.0,0.0,0.0,0.0,0.0,0.0,0.0,0.0,0.0,0.0,0.0,0.0,0.0,0.0,0.0,0.0,0.0,0.0,0.0,0.0,0.0,0.0,0.0,0.0,0.0,0.0,0.0,0.0,0.0,0.0,0.0,0.0,4.2526,4.3216,4.4596,4.4182,4.3423,4.4665,4.4665,4.4423,4.5044,4.5803,4.6424,4.6562,4.7527,4.7997,4.6309,4.683,0.0,0.0,4.3673,4.3845,4.3311,4.5255,4.7119,4.7571,4.9919,5.1708,5.1708,5.1708,5.1779,0.0,5.2993,5.3778,5.4206,5.5169,0.0,0.0,5.6276,5.6204,5.6204,5.5455,5.5062,5.5205,5.5062,5.515,5.5476,5.5418,5.4858,5.3927,5.4092,5.386,5.3235,5.3669,5.3716,5.3532,5.3643,0.0,5.2642,5.3311,5.3274,5.2865,5.3534,5.3794,5.3794,5.3794,5.3794,5.3794,0.0,0.0,0.0,0.0,0.0,0.0,0.0,0.0,0.0,0.0,0.0,0.0,0.0,0.0,0.0,0.0,0.0,0.0,0.0,0.0,0.0,0.0,0.0,0.0,0.0,0.0,0.0,0.0,0.0,0.0,0.0,0.0,0.0,0.0,0.0,0.0,0.0,0.0,0.0,0.0,0.0,0.0,0.0,0.0,0.0,0.0,0.0,0.0,0.0,0.0,4.2871,4.3335,4.4009,4.4285,4.4423,4.4734,4.4837,4.5044,4.5837,4.632,4.6803,4.7562,4.801,4.779,4.6152,0.0,0.0,0.0,4.2626,4.2856,4.2379,4.444,0.0,4.6707,4.9506,5.153,5.1137,5.2136,5.2921,5.2921,5.3564,5.4349,5.5169,5.5562,5.5955,5.6383,5.6383,5.6383,5.6383,5.6026,5.5812,5.5812,5.5812,5.6027,5.6407,5.6174,5.5848,5.553,5.4986,5.4559,5.4189,5.4348,5.398,5.3237,5.4054,5.398,5.3237,5.3645,5.4091,5.45,5.398,5.4054,5.4388,5.3943,5.3794,5.3794,0.0,0.0,0.0,0.0,0.0,0.0,0.0,0.0,0.0,0.0,0.0,0.0,0.0,0.0,0.0,0.0,0.0,0.0,0.0,0.0,0.0,0.0,0.0,0.0,0.0,0.0,0.0,0.0,0.0,0.0,0.0,0.0,0.0,0.0,0.0,0.0,0.0,0.0,0.0,0.0,0.0,0.0,0.0,0.0,0.0,0.0,0.0,0.0,0.0,0.0,4.3013,4.3179,4.304,4.4004,4.5044,4.4458,4.4941,4.5803,4.6424,4.6837,4.732,4.8321,4.8446,4.783,4.6047,4.5495,0.0,0.0,4.1909,4.203,4.2207,0.0,4.5498,0.0,4.8817,5.0887,5.078,5.235,5.3635,0.0,5.417,0.0,5.6026,5.574,0.0,5.6347,5.6383,5.6383,5.6383,5.6383,5.6383,5.6383,5.6492,5.6707,5.7138,5.6831,5.6804,5.6977,5.5866,5.5206,5.4983,5.4834,5.4054,5.294,5.4388,5.4537,5.3831,5.4203,5.502,5.5912,5.4797,5.4723,5.5206,5.4574,5.4351,5.4351,0.0,0.0,0.0,0.0,0.0,0.0,0.0,0.0,0.0,0.0,0.0,0.0,0.0,0.0,0.0,0.0,0.0,0.0,0.0,0.0,0.0,0.0,0.0,0.0,0.0,0.0,0.0,0.0,0.0,0.0,0.0,0.0,0.0,0.0,0.0,0.0,0.0,0.0,0.0,0.0,0.0,0.0,0.0,0.0,0.0,0.0,0.0,0.0,0.0,0.0,0.0,4.3152,4.2519,4.3243,4.4389,4.4285,0.0,0.0,4.6596,4.7596,4.8493,4.7941,4.9028,4.9249,4.5845,0.0,0.0,4.2846,4.2246,4.246,4.3208,0.0,0.0,0.0,0.0,4.921,5.128,5.1779,5.2422,5.3849,0.0,0.0,5.5312,5.5883,5.6311,5.6383,5.6383,5.6383,5.6383,5.6383,5.6383,5.6383,5.6724,5.7138,5.7534,5.7804,5.7795,5.7431,5.6617,5.5763,5.4983,5.424,5.3831,5.3757,5.4611,5.4537,0.0,5.5429,5.5689,5.5206,5.5837,5.6134,5.6172,5.6097,5.606,5.606,0.0,0.0,0.0,0.0,0.0,0.0,0.0,0.0,0.0,0.0,0.0,0.0,0.0,0.0,0.0,0.0,0.0,0.0,0.0,0.0,0.0,0.0,0.0,0.0,0.0,0.0,0.0,0.0,0.0,0.0,0.0,0.0,0.0,0.0,0.0,0.0,0.0,0.0,0.0,0.0,0.0,0.0,0.0,0.0,0.0,0.0,0.0,0.0,0.0,0.0,0.0,0.0,4.2287,4.2881,0.0,0.0,4.554,4.6885,4.7526,4.8467,4.9358,4.9606,4.945,4.8783,4.6916,0.0,4.4813,4.2961,4.2414,4.2537,4.3358,4.4107,0.0,0.0,0.0,0.0,4.946,5.0388,5.1565,5.3135,5.4028,0.0,0.0,0.0,5.6492,5.676,5.676,5.6865,5.7087,5.6881,5.6881,5.7087,5.7289,5.7534,5.7914,5.8529,5.8652,5.8215,5.7918,5.7323,5.6469,5.5689,5.502,5.4537,5.4871,5.4834,0.0,5.5243,5.5912,5.6506,5.6357,5.6617,5.6952,5.6469,5.632,5.632,0.0,0.0,0.0,0.0,0.0,0.0,0.0,0.0,0.0,0.0,0.0,0.0,0.0,0.0,0.0,0.0,0.0,0.0,0.0,0.0,0.0,0.0,0.0,0.0,0.0,0.0,0.0,0.0,0.0,0.0,0.0,0.0,0.0,0.0,0.0,0.0,0.0,0.0,0.0,0.0,0.0,0.0,0.0,0.0,0.0,0.0,0.0,0.0,0.0,0.0,0.0,0.0,0.0,0.0,0.0,0.0,4.5606,4.7415,4.8134,4.9286,5.0449,5.1031,5.0232,4.8971,0.0,0.0,4.5065,4.3242,4.3051,4.3432,4.3883,4.4641,0.0,0.0,0.0,4.8389,4.8934,4.9793,5.0986,5.2957,0.0,5.4313,0.0,5.6349,5.676,5.7138,5.7188,5.7338,5.7726,5.7486,5.7437,5.7583,5.7679,5.7977,5.8473,5.9153,5.9479,5.9441,5.8958,5.8401,5.7843,5.6766,5.5837,5.502,5.502,5.4871,0.0,5.5169,5.6097,5.7138,5.7063,5.736,5.7806,5.7212,5.7026,5.7026,0.0,0.0,0.0,0.0,0.0,0.0,0.0,0.0,0.0,0.0,0.0,0.0,0.0,0.0,0.0,0.0,0.0,0.0,0.0,0.0,0.0,0.0,0.0,0.0,0.0,0.0,0.0,0.0,0.0,0.0,0.0,0.0,0.0,0.0,0.0,0.0,0.0,0.0,0.0,0.0,0.0,0.0,0.0,0.0,0.0,0.0,0.0,0.0,0.0,0.0,0.0,0.0,0.0,0.0,0.0,0.0,4.5614,4.8217,4.8217,4.9995,5.1886,5.1886,5.1499,5.0443,0.0,0.0,0.0,4.3871,4.4454,4.5472,4.5116,4.6009,4.6924,4.7391,4.7788,0.0,5.0669,5.0298,5.0843,0.0,0.0,5.3492,5.5062,5.6293,5.7138,5.7534,5.7583,0.0,5.806,5.8105,5.7923,5.7583,5.7923,5.851,5.9357,5.9715,6.0333,6.115,5.9478,5.8698,5.8624,5.7026,5.5837,5.502,5.502,5.4574,0.0,5.5614,5.632,5.6469,5.8066,5.8698,5.8698,5.8698,5.8698,5.8698,0.0,0.0,0.0,0.0,0.0,0.0,0.0,0.0,0.0,0.0,0.0,0.0,0.0,0.0,0.0,0.0,0.0,0.0,0.0,0.0,0.0,0.0,0.0,0.0,0.0,0.0,0.0,0.0,0.0,0.0,0.0,0.0,0.0,0.0,0.0,0.0,0.0,0.0,0.0,0.0,0.0,0.0,0.0,0.0,0.0,0.0,0.0,0.0,0.0,0.0,0.0,0.0,0.0,0.0,0.0,0.0,0.0,0.0,4.7747,4.8901,5.0069,5.07,4.9471,4.8032,4.7721,0.0,0.0,4.4413,4.4528,4.5074,4.6088,4.6567,4.7044,4.7725,4.8389,0.0,0.0,0.0,0.0,5.3759,5.5245,5.6296,0.0,0.0,5.7583,5.7877,5.7923,5.8142,5.8492,5.8492,5.8449,5.8356,5.8449,5.89,5.9715,5.9881,6.0035,6.0333,5.9775,5.9255,5.8698,5.8178,5.7509,5.6729,5.6729,5.6246,5.554,5.6097,5.632,5.6432,5.7472,5.7881,5.7955,5.8512,5.8698,5.8698,0.0,0.0,0.0,0.0,0.0,0.0,0.0,0.0,0.0,0.0,0.0,0.0,0.0,0.0,0.0,0.0,0.0,0.0,0.0,0.0,0.0,0.0,0.0,0.0,0.0,0.0,0.0,0.0,0.0,0.0,0.0,0.0,0.0,0.0,0.0,0.0,0.0,0.0,0.0,0.0,0.0,0.0,4.2216,0.0,0.0,0.0,0.0,0.0,0.0,0.0,0.0,0.0,0.0,0.0,0.0,0.0,0.0,0.0,0.0,4.8781,5.0071,5.0625,4.9338,0.0,0.0,0.0,0.0,0.0,0.0,0.0,4.6835,4.7277,4.7682,4.808,4.8671,4.9224,0.0,0.0,0.0,5.3807,0.0,0.0,0.0,5.7637,5.796,5.8319,5.8319,5.8449,5.8698,5.8698,5.8698,5.8698,5.8698,5.9107,5.9887,5.9924,6.0072,6.0407,6.0072,5.9664,5.9144,5.8846,5.8252,5.7472,5.7175,5.6766,0.0,5.632,5.6469,5.684,5.7658,5.7955,5.8029,5.8512,5.8698,5.8698,0.0,0.0,0.0,0.0,0.0,0.0,0.0,0.0,0.0,0.0,0.0,0.0,0.0,0.0,0.0,0.0,0.0,0.0,0.0,0.0,0.0,0.0,0.0,0.0,0.0,0.0,0.0,4.0871,4.0871,4.0871,4.0871,0.0,0.0,0.0,0.0,0.0,0.0,0.0,0.0,0.0,0.0,0.0,0.0,0.0,0.0,0.0,0.0,0.0,0.0,0.0,0.0,0.0,0.0,0.0,0.0,0.0,0.0,0.0,0.0,0.0,0.0,0.0,0.0,0.0,0.0,0.0,0.0,0.0,0.0,0.0,0.0,4.8233,4.8822,4.8569,4.8825,4.9489,0.0,5.1111,0.0,0.0,5.5642,0.0,5.7007,5.7707,5.8319,5.8656,5.8698,5.8698,5.8698,5.8698,5.8698,5.8698,5.8698,5.9107,5.9887,5.985,6.0258,6.1113,6.0221,5.9812,5.9812,5.9032,5.8289,0.0,5.6803,5.6469,5.6469,5.6432,5.684,5.7583,5.8326,5.8624,5.8624,5.8698,5.8698,5.8698,0.0,0.0,0.0,0.0,0.0,0.0,0.0,0.0,0.0,0.0,0.0,0.0,0.0,0.0,0.0,0.0,0.0,0.0,0.0,0.0,0.0,0.0,0.0,0.0,0.0,0.0,0.0,4.0871,4.0871,4.0871,4.0918,4.1209,0.0,0.0,0.0,0.0,0.0,0.0,0.0,0.0,0.0,0.0,0.0,0.0,0.0,0.0,4.3495,4.36,0.0,0.0,0.0,0.0,0.0,0.0,0.0,0.0,4.4469,0.0,0.0,0.0,0.0,0.0,0.0,0.0,0.0,0.0,0.0,0.0,0.0,0.0,0.0,0.0,4.9078,4.9711,5.0377,5.0897,5.1195,0.0,0.0,5.6561,5.7561,5.7931,5.7423,5.809,5.8614,5.8698,5.8698,5.8698,5.8698,5.8698,5.8698,5.8698,5.8698,5.9107,5.9887,5.9292,5.9404,6.0221,5.9367,5.8995,5.8995,5.8809,5.8624,5.8401,5.8215,5.8141,5.8103,5.7472,5.7323,5.7509,5.7732,5.7769,5.7881,5.8475,5.8698,5.8698,0.0,0.0,0.0,0.0,0.0,0.0,0.0,0.0,0.0,0.0,0.0,0.0,0.0,0.0,0.0,0.0,0.0,0.0,0.0,0.0,0.0,0.0,0.0,0.0,0.0,0.0,0.0,0.0,0.0,4.1163,0.0,0.0,0.0,0.0,0.0,0.0,0.0,0.0,0.0,0.0,0.0,0.0,0.0,0.0,0.0,0.0,4.36,4.3667,0.0,4.3865,4.3929,4.3961,0.0,0.0,0.0,0.0,4.4618,0.0,0.0,0.0,0.0,0.0,0.0,0.0,0.0,0.0,0.0,0.0,0.0,0.0,0.0,0.0,0.0,0.0,5.0859,0.0,0.0,0.0,5.6172,5.736,5.7881,5.8141,0.0,5.8438,5.8698,5.8698,5.8698,5.8698,5.8698,5.8698,5.8698,5.8698,5.8698,5.8921,5.9367,5.8921,5.8921,5.9367,5.8921,5.8698,5.8698,5.8698,5.8698,5.8698,5.8326,5.8364,5.8661,5.7843,5.7732,5.8066,5.8066,5.8066,5.8103,5.8549,5.8698,5.8698,0.0,0.0,0.0,0.0,0.0,0.0,0.0,0.0,0.0,0.0,0.0,0.0,0.0,0.0,0.0,0.0,0.0,0.0,0.0,0.0,0.0,0.0,0.0,0.0,0.0,0.0,0.0,0.0,0.0,0.0,0.0,0.0,4.2338,0.0,0.0,0.0,0.0,0.0,0.0,0.0,4.3497,0.0,0.0,0.0,0.0,0.0,0.0,0.0,0.0,4.3897,4.3961,4.3986,4.3986,0.0,0.0,0.0,0.0,0.0,0.0,0.0,0.0,0.0,0.0,0.0,0.0,0.0,0.0,0.0,0.0,0.0,0.0,4.9745,0.0,0.0,0.0,0.0,5.4128,5.4946,5.5912,5.7323,5.7621,0.0,5.8475,5.8624,5.8698,5.8698,5.8698,5.8698,5.8698,5.8698,5.8698,5.8698,5.8698,5.8698,5.8698,5.8698,5.8698,5.8698,5.8698,5.8698,5.8698,5.8698,5.8698,5.8661,5.7992,0.0,5.8661,5.7955,5.8103,5.8698,5.8698,5.8698,5.8698,5.8698,5.8698,5.8698,0.0,0.0,0.0,0.0,0.0,0.0,0.0,0.0,0.0,0.0,0.0,0.0,0.0,0.0,0.0,0.0,0.0,0.0,0.0,0.0,0.0,0.0,0.0,0.0,0.0,0.0,0.0,0.0,0.0,0.0,4.2133,4.2577,4.2995,4.3286,0.0,4.3428,4.3428,4.3497,4.3497,4.3497,4.3497,0.0,0.0,0.0,0.0,0.0,0.0,0.0,0.0,4.3992,4.3986,4.3986,4.3986,0.0,0.0,0.0,0.0,0.0,4.629,4.759,0.0,0.0,0.0,0.0,0.0,0.0,0.0,0.0,0.0,0.0,0.0,5.0525,5.0562,0.0,0.0,5.424,0.0,0.0,5.7212,5.7472,0.0,5.8326,5.7732,5.8326,5.8698,5.8698,5.8698,5.8698,5.8698,5.8698,5.8698,5.8698,5.8698,5.8698,5.8698,5.8698,5.8698,5.8698,5.8698,5.8698,5.8698,5.8698,5.8698,5.8698,0.0,5.8586,5.8698,5.8586,5.8586,5.8698,5.8698,5.8698,5.8698,5.8698,5.8698,5.8698,0.0,0.0,0.0,0.0,0.0,0.0,0.0,0.0,0.0,0.0,0.0,0.0,0.0,0.0,0.0,0.0,0.0,0.0,0.0,0.0,0.0,0.0,0.0,0.0,0.0,0.0,0.0,0.0,0.0,4.2577,4.2577,4.3032,4.3321,4.3497,0.0,4.3497,4.3497,4.3497,4.3532,4.3566,0.0,0.0,0.0,0.0,0.0,0.0,0.0,0.0,0.0,0.0,4.3986,4.3986,4.3986,0.0,0.0,0.0,0.0,0.0,4.5732,4.6698,4.7813,0.0,0.0,0.0,0.0,0.0,0.0,0.0,0.0,0.0,0.0,0.0,5.2159,5.4277,0.0,5.554,5.6692,5.684,5.7026,0.0,0.0,5.8103,5.8141,5.8475,5.8698,5.8698,5.8698,5.8698,5.8698,5.8698,5.8698,5.8698,5.8698,5.8698,5.8698,5.8698,5.8698,5.8698,5.8698,5.8698,5.8698,5.8698,5.8698,5.8698,0.0,5.8698,5.8698,5.8698,5.8698,5.8698,5.8698,5.8698,5.8698,5.8698,5.8698,5.8698,0.0,0.0,0.0,0.0,0.0,0.0,0.0,0.0,0.0,0.0,0.0,0.0,0.0,0.0,0.0,0.0,0.0,0.0,0.0,0.0,0.0,0.0,0.0,0.0,0.0,0.0,4.1909,4.2086,4.2943,4.3322,4.3322,4.3431,4.3497,4.3497,0.0,4.3532,4.3532,4.3532,4.3566,4.3634,0.0,0.0,0.0,0.0,0.0,0.0,0.0,0.0,0.0,0.0,0.0,0.0,0.0,0.0,0.0,0.0,4.4681,4.5287,4.5287,4.6141,4.7293,0.0,0.0,4.9262,4.9187,0.0,0.0,0.0,0.0,0.0,0.0,5.2048,0.0,5.5949,5.6469,5.6655,5.684,5.6878,5.71,5.7732,5.7769,5.8029,5.8661,5.8698,5.8698,5.8698,5.8698,5.8698,5.8698,5.8698,5.8698,5.8698,5.8698,5.8698,5.8698,5.8698,5.8698,5.8698,5.8698,5.8698,5.8698,5.8698,5.8698,5.8698,5.8698,5.8698,5.8698,5.8698,5.8698,5.8698,5.8698,5.8698,5.8698,5.8698,5.8698,5.8698,0.0,0.0,0.0,0.0,0.0,0.0,0.0,0.0,0.0,0.0,0.0,0.0,0.0,0.0,0.0,0.0,0.0,0.0,0.0,0.0,0.0,0.0,0.0,0.0,0.0,4.2577,4.3168,4.3927,4.4346,4.46,4.4563,4.3864,4.3497,4.3497,0.0,4.3532,4.36,4.36,4.3667,4.3804,4.3804,0.0,0.0,0.0,0.0,0.0,0.0,0.0,0.0,0.0,0.0,0.0,0.0,0.0,0.0,0.0,4.4827,4.5287,4.5287,4.6995,4.8593,4.7924,0.0,0.0,4.9522,4.941,0.0,4.9856,0.0,0.0,0.0,5.3757,5.5169,5.6134,5.6952,5.7695,5.8438,0.0,5.8549,5.8624,5.8624,5.8661,5.8698,5.8698,5.8698,5.8698,5.8698,5.8698,5.8698,5.8698,5.8698,5.8698,5.8698,5.8698,5.8698,5.8698,5.8698,5.8698,5.8698,5.8698,5.8698,5.8698,5.8698,5.8698,5.8698,5.8698,5.8698,5.8698,5.8698,5.8698,5.8698,5.8698,5.8698,5.8698,5.8698,5.8698,0.0,0.0,0.0,0.0,0.0,0.0,0.0,0.0,0.0,0.0,0.0,0.0,0.0,0.0,0.0,0.0,0.0,0.0,0.0,0.0,0.0,0.0,0.0,4.2577,4.2995,4.2957,4.3281,4.4077,4.4529,4.4709,4.4672,4.3864,0.0,0.0,0.0,4.3634,4.3701,4.3701,4.3804,4.3832,4.3832,4.3897,0.0,0.0,0.0,0.0,0.0,0.0,0.0,0.0,0.0,0.0,0.0,0.0,0.0,0.0,4.4445,4.4506,4.4506,4.5547,4.681,4.7516,0.0,0.0,0.0,0.0,0.0,0.0,5.1565,0.0,0.0,0.0,5.5466,5.684,5.7286,5.7769,5.8586,5.8698,5.8698,5.8698,5.8698,5.8698,5.8698,5.8698,5.8698,5.8698,5.8698,5.8698,5.8698,5.8698,5.8698,5.8698,5.8698,5.8698,5.8698,5.8698,5.8698,5.8698,5.8698,5.8698,5.8698,5.8698,5.8698,5.8698,5.8698,5.8698,5.8698,5.8698,5.8698,5.8698,5.8698,5.8698,5.8698,5.8698,5.8698,5.8698,0.0,0.0,0.0,0.0,0.0,0.0,0.0,0.0,0.0,0.0,0.0,0.0,0.0,0.0,0.0,0.0,0.0,0.0,0.0,0.0,0.0,0.0,0.0,4.3069,4.3497,4.3214,4.3469,4.4305,4.4565,4.4856,4.5111,0.0,0.0,0.0,0.0,4.3701,4.3837,4.3837,4.3865,4.3929,4.3929,4.3961,0.0,0.0,0.0,0.0,0.0,0.0,0.0,0.0,0.0,0.0,0.0,0.0,0.0,0.0,4.4279,4.4061,4.4321,4.5026,4.5992,0.0,0.0,0.0,0.0,0.0,0.0,0.0,5.2791,0.0,0.0,0.0,0.0,0.0,5.7138,5.7695,5.8252,5.8549,5.8698,5.8698,5.8698,5.8698,5.8698,5.8698,5.8698,5.8698,5.8698,5.8698,5.8698,5.8698,5.8698,5.8698,5.8698,5.8698,5.8698,5.8698,5.8698,5.8698,5.8698,5.8698,5.8698,5.8698,5.8698,5.8698,5.8698,5.8698,5.8698,5.8698,5.8698,5.8698,5.8698,5.8698,5.8698,5.8698,5.8698,5.8698,0.0,0.0,0.0,0.0,0.0,0.0,0.0,0.0,0.0,0.0,0.0,0.0,0.0,0.0,0.0,0.0,0.0,0.0,0.0,0.0,0.0,0.0,0.0,4.3069,4.3497,4.3497,4.3901,4.4709,4.4709,4.5148,4.6027,4.4407,0.0,0.0,0.0,0.0,4.3897,4.3897,4.3961,4.3986,4.3986,4.3986,4.4017,0.0,0.0,0.0,0.0,0.0,0.0,0.0,0.0,0.0,0.0,0.0,0.0,4.48,4.4448,4.4209,4.5064,4.5881,0.0,0.0,0.0,0.0,0.0,0.0,0.0,5.45,0.0,5.4091,5.4871,0.0,0.0,5.4871,5.6395,5.7472,5.7509,5.8178,5.8698,5.8698,5.8698,5.8698,5.8698,5.8698,5.8698,5.8698,5.8698,5.8698,5.8698,5.8698,5.8698,5.8698,5.8698,5.8698,5.8698,5.8698,5.8698,5.8698,5.8698,5.8698,5.8698,5.8698,5.8698,5.8698,5.8698,5.8698,5.8698,5.8698,5.8698,5.8698,5.8698,5.8698,5.8698,5.8698,5.8698,5.8698,0.0,0.0,0.0,0.0,0.0,0.0,0.0,0.0,0.0,0.0,0.0,0.0,0.0,0.0,0.0,0.0,0.0,0.0,0.0,0.0,0.0,0.0,0.0,0.0,0.0,0.0,4.3934,4.4743,4.4884,4.5065,0.0,0.0,0.0,4.3865,0.0,0.0,4.3992,4.3992,4.3955,4.3986,4.3986,4.414,4.4308,0.0,0.0,0.0,0.0,0.0,0.0,0.0,0.0,0.0,0.0,0.0,0.0,4.519,4.5375,4.5933,4.5425,0.0,0.0,0.0,0.0,0.0,0.0,0.0,0.0,0.0,5.5726,5.5652,5.5874,0.0,0.0,5.58,5.5837,5.6172,5.7323,5.7212,5.7212,5.7806,5.7881,5.8103,5.8661,5.8698,5.8698,5.8698,5.8698,5.8698,5.8698,5.8698,5.8698,5.8698,5.8698,5.8438,5.7881,5.8438,5.8438,5.7881,5.8438,5.8698,5.8698,5.8698,5.8698,5.8698,5.8698,5.8698,5.8698,5.8698,5.8698,5.8698,5.8698,5.8698,5.8698,5.8698,5.8698,5.8698,0.0,0.0,0.0,0.0,0.0,0.0,0.0,0.0,0.0,0.0,0.0,0.0,0.0,0.0,0.0,0.0,0.0,0.0,0.0,0.0,0.0,0.0,0.0,0.0,0.0,4.3634,4.3925,0.0,0.0,0.0,0.0,0.0,4.4383,4.448,0.0,4.4809,4.4506,4.4506,4.4321,4.4023,4.4475,4.4766,4.4965,0.0,0.0,0.0,0.0,0.0,0.0,0.0,0.0,0.0,0.0,0.0,0.0,4.6306,4.6403,4.6832,4.647,0.0,0.0,0.0,0.0,0.0,0.0,0.0,0.0,0.0,0.0,5.58,5.58,5.4834,0.0,5.5169,5.5131,5.5354,5.6357,5.6395,5.6469,5.6989,5.7323,5.7695,5.8178,5.8512,5.8698,5.8698,5.8698,5.8698,5.8698,5.8401,5.8215,5.8215,5.7918,5.7695,5.7509,5.7658,5.7843,5.7992,5.8141,5.8401,5.8698,5.8698,5.8698,5.8698,5.8698,5.8698,5.8698,5.8698,5.8698,5.8698,5.8698,5.8698,5.8698,5.8698,5.8698,5.8698,0.0,0.0,0.0,0.0,0.0,0.0,0.0,0.0,0.0,0.0,0.0,0.0,0.0,0.0,0.0,0.0,0.0,0.0,0.0,0.0,0.0,0.0,0.0,0.0,0.0,0.0,0.0,0.0,0.0,0.0,0.0,0.0,4.5185,4.5324,0.0,4.5992,4.5287,4.5212,4.4798,4.4265,4.5273,4.5754,4.6016,4.722,0.0,0.0,0.0,0.0,0.0,0.0,0.0,0.0,0.0,4.8105,4.7936,4.7701,4.7441,4.7304,0.0,0.0,0.0,0.0,0.0,0.0,5.3645,0.0,5.5949,5.5169,0.0,5.5094,5.502,5.3794,5.3051,5.3794,5.4463,5.4946,5.4983,5.5614,5.6097,5.6172,5.684,5.7323,5.7398,5.8141,5.8549,5.8512,5.8549,5.8549,5.8512,5.7881,5.7509,5.7509,5.6803,5.6729,5.7398,5.6655,5.6989,5.8364,5.7769,5.7881,5.8586,5.8661,5.8698,5.8698,5.8698,5.8698,5.8698,5.8698,5.8698,5.8698,5.8698,5.8698,5.8698,5.8698,5.8698,5.8698,0.0,0.0,0.0,0.0,0.0,0.0,0.0,0.0,0.0,0.0,0.0,0.0,0.0,0.0,0.0,0.0,0.0,0.0,0.0,0.0,0.0,0.0,0.0,0.0,0.0,0.0,0.0,0.0,0.0,0.0,0.0,0.0,0.0,4.5287,0.0,4.5472,4.5249,4.4581,4.4699,4.5377,4.5585,4.6339,4.7281,4.7586,4.7771,0.0,0.0,0.0,0.0,0.0,0.0,0.0,4.9356,4.9567,4.9698,4.7905,4.8249,0.0,0.0,4.9294,0.0,0.0,0.0,5.3608,5.3757,5.4574,5.5243,5.5057,5.554,5.58,5.5131,5.4723,5.4537,5.4723,5.4351,5.4277,5.4909,5.4611,5.4574,5.5206,5.5429,5.58,5.6506,5.7286,5.7509,5.6878,5.7398,5.7472,5.684,5.7249,5.7509,5.7509,5.7323,5.7026,5.658,5.6395,5.6134,5.58,5.6952,5.7583,5.7769,5.8401,5.8698,5.8698,5.8698,5.8698,5.8698,5.8698,5.8698,5.8698,5.8698,5.8698,5.8698,5.8698,5.8698,5.8698,0.0,0.0,0.0,0.0,0.0,0.0,0.0,0.0,0.0,0.0,0.0,0.0,0.0,0.0,0.0,0.0,0.0,0.0,0.0,0.0,0.0,0.0,0.0,0.0,0.0,0.0,4.3869,0.0,0.0,0.0,0.0,0.0,0.0,4.5881,0.0,4.6313,4.6022,4.5163,4.519,4.5946,4.6455,4.7324,4.8356,4.8924,4.9219,4.9394,4.9856,0.0,0.0,0.0,0.0,0.0,0.0,0.0,5.047,4.928,4.9425,0.0,0.0,0.0,0.0,0.0,0.0,0.0,5.372,5.4128,5.4426,5.4426,5.5094,5.5429,5.4574,5.4426,5.4426,5.4426,5.4091,5.3943,5.4388,5.4054,5.398,5.4388,5.476,5.5169,5.5652,5.6432,5.6766,5.632,5.6692,5.6729,5.632,5.632,5.632,5.632,5.5949,5.5726,5.5689,5.5689,5.5874,5.6209,5.71,5.7509,5.7546,5.8326,5.8512,5.8141,5.8141,5.8141,5.8141,5.8141,5.8364,5.8698,5.8698,5.8698,5.8698,5.8698,5.8698,5.8698,0.0,0.0,0.0,0.0,0.0,0.0,0.0,0.0,0.0,0.0,0.0,0.0,0.0,0.0,0.0,0.0,0.0,0.0,0.0,0.0,0.0,0.0,0.0,0.0,0.0,4.3771,4.3837,0.0,0.0,0.0,0.0,0.0,0.0,4.6513,0.0,4.7223,4.6636,4.5829,4.5833,4.6453,4.735,4.834,4.9401,5.0335,5.0702,5.0702,5.0702,5.0702,5.0702,5.0702,0.0,0.0,0.0,0.0,5.0702,5.0624,0.0,0.0,0.0,0.0,0.0,0.0,5.32,0.0,5.3645,5.3794,5.3794,5.3794,5.4351,5.4611,5.3943,5.3794,5.3794,5.3794,5.3794,5.3794,5.3794,5.3794,5.3794,5.3794,5.4388,5.4797,5.4797,5.5577,5.6023,5.5874,5.5986,5.6023,5.5874,5.5317,5.502,5.502,5.4351,5.4351,5.4983,5.502,5.5689,5.7063,5.736,5.7509,5.7546,5.8326,5.8252,5.7509,5.7658,5.7732,5.7732,5.7732,5.8103,5.8698,5.8698,5.8698,5.8698,5.8698,5.8698,5.8698,0.0,0.0,0.0,0.0,0.0,0.0,0.0,0.0,0.0,0.0,0.0,0.0,0.0,0.0,0.0,0.0,0.0,0.0,0.0,0.0,0.0,0.0,0.0,0.0,4.3771,4.3804,4.3832,0.0,0.0,0.0,0.0,0.0,0.0,4.6513,0.0,0.0,4.5735,4.5153,4.5922,4.7487,4.7646,4.8809,5.049,5.0625,5.0702,5.0702,5.0702,5.0702,5.0702,5.0702,5.0702,0.0,0.0,0.0,5.0624,5.0358,0.0,0.0,0.0,0.0,0.0,0.0,5.32,5.3683,0.0,0.0,5.3794,0.0,5.3905,5.3943,5.3831,5.3794,5.3794,5.3794,5.3794,5.3794,5.3794,5.3794,5.3794,5.3794,5.3905,5.398,5.398,5.4723,5.4871,5.4203,5.4797,5.4871,5.4166,5.4686,5.502,5.502,5.4909,5.4909,5.502,5.502,5.5131,5.5354,5.6803,5.7509,5.7546,5.8326,5.8252,5.7546,5.8252,5.8549,5.8549,5.8549,5.8624,5.8698,5.8698,5.8698,5.8698,5.8698,5.8698,5.8698,0.0,0.0,0.0,0.0,0.0,0.0,0.0,0.0,0.0,0.0,0.0,0.0,0.0,0.0,0.0,0.0,0.0,0.0,0.0,0.0,0.0,0.0,0.0,0.0,4.3804,4.3837,0.0,0.0,0.0,0.0,0.0,4.693,4.7398,0.0,0.0,0.0,0.0,0.0,4.7455,4.7951,4.845,4.947,5.0702,5.0702,5.0971,5.1356,5.1356,5.1702,5.201,5.1548,5.1356,5.1279,5.0818,0.0,0.0,0.0,0.0,0.0,5.0771,5.1512,5.2186,0.0,5.2531,5.3014,5.2568,0.0,5.3683,5.3237,5.3497,5.3794,5.3794,5.3423,5.3274,5.372,5.3794,5.3794,5.3794,5.3794,5.3794,5.3794,5.3794,5.3794,5.3794,5.4128,5.4203,5.3831,5.4128,5.4166,5.3831,5.4128,5.4351,5.4351,5.4351,5.4537,5.502,5.502,5.5466,5.6432,5.7621,5.7955,5.7546,5.8326,5.8252,5.7509,5.7881,5.8029,5.8029,5.8029,5.8289,5.8698,5.8698,5.8698,5.8698,5.8698,5.8698,5.8698,0.0,0.0,0.0,0.0,0.0,0.0,0.0,0.0,0.0,0.0,0.0,0.0,0.0,0.0,0.0,0.0,0.0,0.0,0.0,0.0,0.0,0.0,0.0,0.0,4.3837,0.0,0.0,0.0,0.0,0.0,4.6903,4.7941,4.8491,0.0,4.9117,0.0,0.0,0.0,0.0,0.0,4.9394,5.0125,5.0702,5.0702,5.1087,5.1625,5.1856,5.2318,5.2818,5.2395,5.2241,5.2087,5.1241,5.101,0.0,0.0,0.0,0.0,0.0,0.0,5.1828,5.1487,5.1862,5.2159,0.0,0.0,5.3014,0.0,5.2791,5.3237,5.346,5.3162,5.3088,5.372,5.3794,5.3794,5.3794,5.3794,5.3794,5.3794,5.3794,5.3794,5.3794,5.3794,5.3794,5.3794,5.3794,5.3794,5.3794,5.3794,5.3794,5.3794,5.3794,5.4091,5.4686,5.5131,5.606,5.7509,5.8103,5.8103,5.7509,5.8141,5.8178,5.7806,5.7806,5.7806,5.7806,5.7806,5.8178,5.8698,5.8698,5.8698,5.8698,5.8698,5.8698,5.8698,0.0,0.0,0.0,0.0,0.0,0.0,0.0,0.0,0.0,0.0,0.0,0.0,0.0,0.0,0.0,0.0,0.0,0.0,0.0,0.0,0.0,0.0,0.0,0.0,0.0,0.0,0.0,0.0,0.0,0.0,4.8033,4.8927,4.9627,5.0045,4.9358,4.8999,4.8952,0.0,0.0,0.0,0.0,0.0,0.0,0.0,5.0741,0.0,0.0,5.1933,5.2087,5.2856,5.3126,5.2972,5.2125,0.0,0.0,0.0,0.0,0.0,0.0,5.1428,0.0,5.1487,5.1416,0.0,0.0,0.0,5.1528,5.1454,5.1491,5.1751,5.2531,5.3237,5.3757,5.3794,5.3794,5.3794,5.3794,5.3794,5.3794,5.3794,5.3794,5.3794,5.3794,5.3794,5.3794,5.3794,5.3794,5.3794,5.3794,5.3794,5.3794,5.3794,5.3794,5.3831,5.3868,5.5429,5.6655,5.7509,5.7546,5.7546,5.7509,5.7546,5.7955,5.8661,5.8661,5.8661,5.8661,5.8661,5.8661,5.8698,5.8698,5.8698,5.8698,5.8698,5.8698,5.8698,0.0,0.0,0.0,0.0,0.0,0.0,0.0,0.0,0.0,0.0,0.0,0.0,0.0,0.0,0.0,0.0,0.0,0.0,0.0,0.0,0.0,0.0,0.0,0.0,0.0,0.0,0.0,0.0,0.0,4.7079,4.735,4.8381,4.9656,5.1047,5.1314,5.0948,5.0179,5.1951,0.0,0.0,0.0,0.0,0.0,0.0,0.0,0.0,0.0,0.0,0.0,5.3933,5.4049,0.0,0.0,0.0,0.0,0.0,0.0,0.0,0.0,0.0,0.0,5.0885,5.1148,5.1398,5.0112,5.0636,5.1416,5.1416,5.1825,5.2419,5.3237,5.32,5.32,5.372,5.3794,5.3794,5.3794,5.3794,5.3794,5.3794,5.3794,5.3794,5.3794,5.3794,5.3794,5.3794,5.3794,5.3794,5.3794,5.3794,5.3794,5.3794,5.3794,5.4054,5.4574,5.6246,5.7212,5.7509,5.8029,5.8289,5.8289,5.8289,5.8438,5.8698,5.8698,5.8698,5.8698,5.8698,5.8698,5.8698,5.8698,5.8698,5.8698,5.8698,5.8698,5.8698,0.0,0.0,0.0,0.0,0.0,0.0,0.0,0.0,0.0,0.0,0.0,0.0,0.0,0.0,0.0,0.0,0.0,0.0,0.0,0.0,0.0,0.0,0.0,0.0,0.0,0.0,0.0,0.0,0.0,0.0,0.0,4.82,4.9654,5.13,5.2411,5.2269,0.0,0.0,0.0,5.1164,0.0,0.0,5.1587,0.0,0.0,0.0,0.0,0.0,0.0,0.0,0.0,0.0,0.0,0.0,0.0,0.0,0.0,0.0,5.2082,0.0,0.0,0.0,0.0,5.1453,4.9666,5.019,5.1008,5.0971,5.1639,5.2457,5.3237,5.32,5.32,5.372,5.3794,5.3794,5.3794,5.3794,5.3794,5.3794,5.3794,5.3794,5.3794,5.3794,5.3794,5.3794,5.3794,5.3794,5.3794,5.3794,5.3794,5.3794,5.3794,5.4203,5.4983,5.6097,5.6952,5.7509,5.7769,5.8178,5.8698,5.8438,5.8438,5.8698,5.8698,5.8698,5.8698,5.8698,5.8698,5.8698,5.8698,5.8698,5.8735,5.8995,5.9107,5.9144,0.0,0.0,0.0,0.0,0.0,0.0,0.0,0.0,0.0,0.0,0.0,0.0,0.0,0.0,0.0,0.0,0.0,0.0,0.0,0.0,0.0,0.0,0.0,0.0,0.0,0.0,0.0,0.0,0.0,0.0,0.0,0.0,4.9516,5.0702,5.2395,5.2664,5.1895,0.0,5.1972,5.201,0.0,5.3203,5.3164,0.0,0.0,0.0,5.4203,5.4511,0.0,5.5434,0.0,0.0,0.0,0.0,0.0,0.0,0.0,0.0,0.0,0.0,0.0,0.0,0.0,0.0,5.0408,0.0,5.019,5.0153,5.0822,5.1639,5.2457,5.3274,5.3794,5.3794,5.3794,5.3794,5.3794,5.3794,5.3794,5.3794,5.3794,5.3794,5.3794,5.3794,5.3794,5.3794,5.3794,5.3794,5.3794,5.3794,5.3794,5.3794,5.3794,5.4203,5.4983,5.5057,5.5874,5.7509,5.6729,5.7212,5.8661,5.7881,5.7955,5.8698,5.8698,5.8698,5.8698,5.8698,5.8698,5.8698,5.8698,5.8735,5.8846,5.9627,5.9924,6.012,0.0,0.0,0.0,0.0,0.0,0.0,0.0,0.0,0.0,0.0,0.0,0.0,0.0,0.0,0.0,0.0,0.0,0.0,0.0,0.0,0.0,0.0,0.0,0.0,0.0,0.0,0.0,0.0,0.0,0.0,0.0,0.0,0.0,0.0,5.0625,5.1241,5.1202,5.3626,0.0,0.0,5.378,5.3395,0.0,0.0,0.0,0.0,0.0,5.4972,5.4626,0.0,5.5703,5.5665,0.0,0.0,0.0,0.0,0.0,0.0,5.2203,0.0,0.0,0.0,0.0,0.0,0.0,0.0,5.0302,5.0896,5.1231,5.1639,5.2457,5.3274,5.3794,5.3794,5.3794,5.3794,5.3794,5.3794,5.3794,5.3794,5.3794,5.3794,5.3794,5.3794,5.3794,0.0,5.3794,5.3794,5.3794,5.3794,5.3794,5.3794,5.3794,5.4203,5.4983,5.5652,5.6469,5.7509,5.7881,5.8289,5.8698,5.8475,5.8512,5.8698,5.8698,5.8698,5.8698,5.8698,5.8698,5.8698,5.8698,5.9238,6.0001,6.0226,6.0868,6.1689,0.0,0.0,0.0,0.0,0.0,0.0,0.0,0.0,0.0,0.0,0.0,0.0,0.0,0.0,0.0,0.0,0.0,0.0,0.0,0.0,0.0,0.0,0.0,0.0,0.0,0.0,0.0,0.0,0.0,0.0,0.0,0.0,0.0,0.0,0.0,0.0,0.0,0.0,0.0,0.0,5.428,0.0,0.0,5.4626,5.4703,0.0,0.0,0.0,5.5049,5.5549,5.5934,0.0,0.0,0.0,0.0,0.0,0.0,0.0,0.0,0.0,0.0,0.0,0.0,0.0,5.1148,5.0748,5.0673,5.0822,5.1156,5.1639,5.2457,5.3274,5.3794,5.3794,5.3794,5.3943,5.424,5.4314,5.4463,5.4797,5.4834,5.4723,5.4351,5.4314,5.4166,5.3831,5.4128,5.4314,5.4314,5.398,5.3794,5.3794,5.4128,5.4537,5.502,5.5874,5.6692,5.7509,5.7992,5.8401,5.8698,5.8698,5.8698,5.8698,5.8698,5.8698,5.8698,5.8698,5.8698,5.8698,5.8698,5.943,6.0529,6.0868,6.1766,6.2871,0.0,0.0,0.0,0.0,0.0,0.0,0.0,0.0,0.0,0.0,0.0,0.0,0.0,0.0,0.0,0.0,0.0,0.0,0.0,0.0,0.0,0.0,0.0,0.0,0.0,0.0,0.0,0.0,0.0,0.0,0.0,0.0,0.0,0.0,0.0,0.0,0.0,0.0,0.0,5.4626,5.4741,5.5088,0.0,0.0,5.578,5.5703,5.5703,5.5703,5.5703,5.5703,5.6203,0.0,0.0,0.0,0.0,0.0,5.5126,0.0,0.0,0.0,0.0,0.0,0.0,0.0,5.0919,5.1042,5.1341,5.0596,5.1042,5.1787,5.2457,5.3348,5.3943,5.3943,5.3943,5.4203,5.4909,5.502,5.5317,5.6209,5.632,5.5986,5.5243,5.5057,5.4723,5.398,5.4611,5.5057,5.5131,5.4388,5.398,5.4091,5.4686,5.5057,5.5131,5.5986,5.6803,5.7509,5.7583,5.8029,5.8698,5.8698,5.8698,5.8698,5.8698,5.8698,5.8698,5.8698,5.8698,5.8698,5.8739,5.9547,6.0792,6.1544,6.2629,6.3916,0.0,0.0,0.0,0.0,0.0,0.0,0.0,0.0,0.0,0.0,0.0,0.0,0.0,0.0,0.0,0.0,0.0,0.0,0.0,0.0,0.0,0.0,0.0,0.0,0.0,0.0,0.0,0.0,0.0,0.0,0.0,0.0,0.0,0.0,0.0,0.0,0.0,0.0,0.0,5.5511,5.6242,0.0,5.4895,5.6242,5.6319,5.5703,5.5703,5.5703,5.5703,5.5703,5.5818,5.5934,0.0,0.0,0.0,5.4934,0.0,0.0,0.0,0.0,0.0,0.0,0.0,0.0,5.2742,5.2623,5.2632,5.2611,5.2588,5.2602,5.2605,5.3794,5.476,5.476,5.476,5.4834,5.4983,5.502,5.5317,5.6209,5.632,5.6246,5.606,5.5429,5.4946,5.4797,5.4909,5.5317,5.6023,5.5243,5.5094,5.58,5.528,5.5354,5.606,5.6878,5.736,5.7509,5.8178,5.8549,5.8698,5.8698,5.8698,5.8698,5.8698,5.8698,5.8698,5.8698,5.8698,5.8739,5.8986,6.0264,6.1974,6.2427,6.38,6.5471,0.0,0.0,0.0,0.0,0.0,0.0,0.0,0.0,0.0,0.0,0.0,0.0,0.0,0.0,0.0,0.0,0.0,0.0,0.0,0.0,0.0,0.0,0.0,0.0,0.0,0.0,0.0,0.0,0.0,0.0,0.0,0.0,0.0,0.0,0.0,0.0,0.0,0.0,5.5588,5.6357,5.6357,0.0,5.5203,5.6011,5.6088,5.5703,5.5703,5.5703,5.5703,5.5703,5.5972,0.0,0.0,5.6357,5.628,0.0,5.6011,5.6049,0.0,0.0,0.0,5.3569,0.0,0.0,0.0,5.3036,5.3132,5.2779,5.295,5.309,5.2893,5.3794,5.469,5.5099,5.4763,5.4834,5.606,5.6246,5.6432,5.684,5.7621,5.7769,5.6989,5.6506,5.6246,5.6246,5.5874,5.6023,5.684,5.6097,5.5837,5.6283,5.6283,5.6469,5.6878,5.7695,5.8103,5.8103,5.8512,5.8698,5.8698,5.8698,5.8698,5.8698,5.8698,5.8698,5.8698,5.8698,5.8958,5.9334,5.9701,6.0861,6.2411,6.3146,6.4468,6.5897,0.0,0.0,0.0,0.0,0.0,0.0,0.0,0.0,0.0,0.0,0.0,0.0,0.0,0.0,0.0,0.0,0.0,0.0,0.0,0.0,0.0,0.0,0.0,5.0165,0.0,0.0,0.0,0.0,0.0,0.0,0.0,0.0,0.0,0.0,0.0,0.0,0.0,0.0,0.0,5.6703,0.0,5.6049,5.6203,5.6203,5.6088,5.5934,5.5742,5.5703,5.5703,5.5703,5.628,5.6973,5.6973,5.6973,0.0,0.0,0.0,0.0,0.0,0.0,0.0,0.0,0.0,5.5097,0.0,0.0,0.0,5.2968,0.0,0.0,0.0,0.0,0.0,5.5174,0.0,0.0,0.0,5.7546,0.0,5.7955,5.8698,5.8884,5.8029,5.7843,5.7695,5.7509,5.7063,5.7063,5.7695,5.6989,5.6617,5.6766,5.7249,5.7583,5.7732,5.8401,5.8698,5.8698,5.8698,5.8698,5.8698,5.8698,5.8698,5.8698,5.8698,5.8698,5.8735,5.8884,5.9371,6.0054,6.0454,6.1385,6.2677,6.3779,6.4907,6.5897,4.7802,4.8233,0.0,0.0,0.0,0.0,0.0,0.0,0.0,0.0,0.0,0.0,0.0,0.0,0.0,0.0,0.0,0.0,5.0365,0.0,0.0,0.0,0.0,0.0,5.162,0.0,0.0,0.0,0.0,0.0,0.0,0.0,0.0,0.0,5.4587,0.0,0.0,0.0,5.5665,0.0,5.6588,5.7319,0.0,5.8011,5.7511,5.6742,5.5972,5.5703,5.5703,0.0,5.628,5.6973,0.0,5.6973,5.6973,5.6973,0.0,0.0,0.0,0.0,0.0,0.0,5.5823,0.0,0.0,0.0,5.5912,5.5045,0.0,0.0,0.0,0.0,0.0,0.0,0.0,0.0,5.6395,5.7658,5.8846,5.9552,5.7918,5.7472,5.9441,5.8995,5.8289,5.7546,5.8103,5.8475,5.8549,5.7806,5.7695,5.8401,5.7843,5.7843,5.8549,5.8661,5.8698,5.8698,5.8698,5.8698,5.8698,5.8698,5.8698,5.8698,5.8698,5.8698,5.8772,5.9478,6.0024,6.0454,6.0815,6.1932,6.3436,6.4238,6.5103,6.5897,0.0,0.0,0.0,0.0,0.0,0.0,0.0,0.0,0.0,0.0,0.0,0.0,0.0,0.0,0.0,0.0,0.0,5.0647,0.0,0.0,0.0,0.0,0.0,0.0,0.0,0.0,0.0,0.0,5.5126,0.0,0.0,0.0,0.0,0.0,5.428,0.0,5.428,0.0,5.5857,0.0,0.0,0.0,0.0,5.7357,5.6549,5.6203,5.5818,5.5703,5.578,0.0,5.6703,0.0,0.0,0.0,0.0,0.0,0.0,0.0,0.0,0.0,0.0,0.0,0.0,0.0,5.5878,0.0,5.678,0.0,0.0,0.0,0.0,0.0,0.0,0.0,5.6063,0.0,0.0,5.606,5.6543,5.8326,0.0,0.0,5.8512,5.8215,5.7881,5.7546,5.8252,5.8698,5.8698,5.8401,5.8364,5.8698,5.8364,5.8364,5.8698,5.8698,5.8698,5.8698,5.8698,5.8698,5.8698,5.8698,5.8698,5.8698,5.8698,5.8958,5.9441,5.9775,6.0699,6.1958,6.2322,6.3047,6.3955,6.4999,6.559,6.5897,0.0,0.0,0.0,0.0,0.0,0.0,0.0,0.0,0.0,0.0,0.0,0.0,5.048,5.0853,0.0,0.0,5.1478,5.1725,0.0,0.0,5.2628,5.3937,5.4317,0.0,0.0,0.0,0.0,0.0,0.0,0.0,0.0,0.0,0.0,0.0,0.0,5.4049,5.3933,0.0,0.0,5.7511,5.6472,5.7011,5.828,5.6665,5.5895,5.5703,5.5703,5.5703,5.578,5.6434,5.678,0.0,5.8704,0.0,0.0,0.0,0.0,0.0,5.7742,0.0,0.0,0.0,0.0,0.0,0.0,0.0,0.0,0.0,0.0,0.0,0.0,0.0,0.0,0.0,0.0,5.6191,0.0,5.5436,5.5396,0.0,0.0,0.0,0.0,5.8252,5.8438,5.8178,5.8512,5.8698,5.8698,5.8512,5.8475,5.8698,5.8698,5.8698,5.8698,5.8698,5.8698,5.8698,5.8698,5.8698,5.8698,5.8698,5.8698,5.8698,5.8698,5.9032,5.9627,6.0162,6.131,6.2824,6.3672,6.426,6.4709,6.5551,6.5897,6.5897,4.986,4.9485,0.0,0.0,0.0,0.0,0.0,0.0,0.0,0.0,0.0,0.0,0.0,0.0,0.0,0.0,0.0,5.3344,5.3874,0.0,5.4287,5.3989,5.5071,5.4895,0.0,0.0,0.0,0.0,0.0,0.0,0.0,0.0,0.0,0.0,0.0,5.4126,5.5626,5.5665,5.5703,5.5857,5.6626,5.6511,5.5895,0.0,5.6434,5.5703,5.5703,0.0,0.0,5.5742,5.628,0.0,0.0,0.0,0.0,0.0,0.0,0.0,0.0,0.0,0.0,6.0281,0.0,0.0,0.0,0.0,5.9534,0.0,0.0,0.0,0.0,0.0,0.0,0.0,0.0,0.0,0.0,0.0,5.7117,0.0,0.0,0.0,0.0,6.0147,6.0741,5.9887,5.9144,5.8698,5.8698,5.7955,5.7918,5.8698,5.8698,5.8698,5.8698,5.8698,5.8698,5.8698,5.8698,5.8698,5.8698,5.8698,5.8698,5.8698,5.8698,5.8735,5.8888,6.0862,6.1919,6.2492,6.4489,6.5475,6.5859,6.5897,6.5897,6.5897,0.0,0.0,0.0,0.0,0.0,0.0,0.0,4.9262,0.0,0.0,0.0,0.0,0.0,5.313,5.3455,0.0,0.0,5.4122,5.4326,5.443,0.0,0.0,0.0,5.5434,0.0,0.0,0.0,0.0,0.0,0.0,0.0,0.0,0.0,0.0,0.0,5.3857,0.0,0.0,0.0,0.0,0.0,5.6819,5.6511,0.0,5.5972,5.5703,5.5703,5.6049,0.0,5.7242,5.7973,5.8819,5.9665,5.9742,5.9511,5.9511,5.9088,0.0,0.0,0.0,5.7703,5.8858,0.0,0.0,0.0,0.0,0.0,0.0,0.0,0.0,0.0,0.0,0.0,0.0,0.0,0.0,0.0,0.0,0.0,0.0,0.0,0.0,0.0,5.8915,5.8878,5.8232,5.7528,5.7444,5.8201,5.7742,5.7881,5.8661,5.8698,5.8698,5.8698,5.8698,5.8698,5.8698,5.8698,5.8698,5.8698,5.8698,5.8698,5.8735,5.9255,5.9942,6.0748,6.1992,6.3196,6.4343,6.5039,6.558,6.5897,6.5897,6.5897,6.5974,4.9785,0.0,0.0,0.0,0.0,0.0,0.0,0.0,0.0,0.0,5.1948,0.0,5.3559,0.0,5.4473,0.0,5.4764,5.4934,5.4934,5.4934,0.0,5.5665,5.5703,0.0,0.0,0.0,0.0,0.0,0.0,5.3895,0.0,0.0,0.0,0.0,0.0,5.4395,5.4972,0.0,5.6319,0.0,0.0,5.6549,0.0,0.0,5.5895,5.6126,0.0,5.6049,5.6665,5.755,5.8165,5.8819,5.9973,6.0127,5.9935,5.9935,5.9742,5.9435,5.9242,5.8781,0.0,5.8665,5.8385,0.0,5.876,0.0,5.9862,0.0,0.0,0.0,0.0,0.0,0.0,0.0,0.0,0.0,0.0,5.6949,0.0,0.0,0.0,0.0,0.0,5.9043,5.8706,5.7769,5.7068,5.7042,5.7977,5.7604,5.7865,5.8868,5.8905,5.8905,5.8905,5.8905,5.8825,5.8698,5.8825,5.8784,5.8698,5.8698,5.8698,5.8735,5.9552,6.0397,6.1356,6.2598,6.3824,6.4947,6.5341,6.5663,6.5897,6.5897,6.609,6.6474,0.0,0.0,0.0,0.0,4.967,0.0,0.0,0.0,5.2678,0.0,5.3842,5.4425,5.4776,5.5091,5.5314,5.5314,5.5531,5.5703,5.5703,5.5703,0.0,0.0,5.5703,5.5318,5.4587,0.0,0.0,0.0,0.0,0.0,0.0,0.0,0.0,0.0,5.5434,0.0,5.5818,5.6626,5.6511,5.5742,5.5703,5.578,5.5895,5.578,5.6319,5.7011,5.6088,5.578,5.5972,5.6819,5.7126,5.7473,5.905,5.905,5.8742,6.0319,6.0204,5.9742,6.0512,6.0704,6.0473,5.9665,5.948,0.0,0.0,0.0,5.9746,0.0,0.0,0.0,0.0,0.0,0.0,0.0,0.0,0.0,0.0,0.0,5.781,0.0,0.0,0.0,5.9809,6.0454,6.0189,5.8521,5.7687,5.7451,5.7975,5.7569,5.7942,5.9177,5.9215,5.9215,5.9252,5.9215,5.9064,5.8739,5.9064,5.9025,5.8739,5.8698,5.8698,5.8777,5.9632,6.0214,6.0754,6.2773,6.3829,6.4317,6.5448,6.5897,6.5974,6.5974,6.6513,6.7475,5.1491,5.1565,5.1528,0.0,5.0933,5.1268,0.0,0.0,0.0,0.0,5.4027,5.4368,5.5107,5.5437,5.5615,5.5615,5.5682,0.0,0.0,0.0,0.0,5.5703,5.5703,5.5588,5.5395,5.5395,0.0,5.4511,0.0,0.0,5.4511,0.0,0.0,0.0,0.0,0.0,5.6665,5.6896,5.6857,5.6588,5.5972,5.6819,5.8396,0.0,5.7588,5.8665,5.7165,5.7088,5.7742,5.8588,5.9281,5.9896,6.0319,6.0319,6.0242,6.0666,6.0627,6.0358,5.9935,5.9396,5.8896,5.8665,5.8171,5.7927,0.0,0.0,0.0,0.0,0.0,0.0,0.0,0.0,0.0,0.0,0.0,0.0,0.0,0.0,0.0,5.9072,0.0,6.0022,6.0508,5.9901,5.9158,5.8412,5.7082,5.6763,5.7718,5.8046,5.864,5.9601,5.9361,5.9361,5.9639,5.9361,5.9289,5.954,5.9289,5.914,5.9026,5.8784,5.8825,5.9177,6.06,6.1617,6.2376,6.4114,6.5082,6.5474,6.5795,6.6282,6.6782,6.6782,6.7744,6.909,5.2642,0.0,0.0,5.2457,0.0,0.0,5.2568,0.0,0.0,5.4187,5.4966,0.0,5.5823,5.6452,5.6665,5.628,5.628,0.0,5.5703,0.0,0.0,5.5703,5.5703,5.5703,5.5703,5.5703,0.0,5.5588,0.0,0.0,5.6165,0.0,0.0,0.0,0.0,5.7703,5.6973,5.6973,5.6973,5.6973,5.6896,5.7703,0.0,5.7934,5.8165,5.8896,5.8319,5.8165,5.8434,5.9242,5.9819,6.0281,6.0666,6.0781,6.0781,6.0781,6.0781,6.0589,5.9742,5.9165,5.8665,5.7896,5.7379,5.7191,5.7716,5.7872,5.7912,0.0,5.8315,5.849,0.0,0.0,0.0,0.0,0.0,0.0,0.0,0.0,0.0,0.0,5.9858,6.0242,6.0742,5.9509,5.8601,5.8296,5.7481,5.7401,5.8203,5.87,5.9264,5.9992,6.0145,6.0145,6.003,6.0145,6.008,5.9809,5.9739,5.9568,5.9467,5.9628,5.9815,6.0071,6.1766,6.28,6.3494,6.4764,6.5513,6.5936,6.6282,6.7167,6.8244,6.8244,6.8859,6.9744,0.0,0.0,0.0,0.0,0.0,0.0,0.0,5.4055,0.0,5.4555,0.0,5.7072,5.6766,5.7642,5.8011,5.7242,0.0,5.678,5.5934,5.5857,5.5818,5.5703,5.5818,5.5857,5.5857,5.5857,5.628,0.0,0.0,0.0,0.0,0.0,0.0,0.0,0.0,0.0,0.0,5.7165,5.7165,5.7242,5.8011,5.8434,5.8627,5.8511,5.855,5.8704,5.9435,5.9165,5.8588,5.9396,5.9665,5.9819,6.055,6.0781,6.0781,6.0781,6.0781,6.0589,5.9742,5.9511,5.9088,5.7396,5.6973,5.7033,5.7097,5.702,5.6983,5.7159,5.7795,5.7911,0.0,0.0,0.0,0.0,0.0,0.0,0.0,0.0,0.0,0.0,0.0,0.0,6.0781,5.9396,5.8473,5.8473,5.8473,5.8611,5.8896,0.0,5.984,6.0158,6.0933,6.1124,6.0693,6.1124,6.098,6.0241,6.0294,6.0188,6.0026,6.0676,6.1088,6.131,6.2905,6.3785,6.424,6.5053,6.5646,6.6128,6.709,6.8359,6.9706,6.9821,6.986,6.9975,0.0,0.0,0.0,0.0,0.0,5.476,5.4611,5.4465,5.4743,5.5593,5.6264,5.6957,5.7881,5.8181,5.8242,5.8088,5.8088,0.0,0.0,0.0,0.0,5.5742,5.6395,5.678,5.678,5.678,5.7203,0.0,0.0,0.0,0.0,0.0,0.0,0.0,0.0,0.0,5.8088,5.8088,0.0,5.8088,5.8242,5.9127,6.0281,5.955,5.9742,6.0358,6.0512,6.0012,5.9435,6.0281,6.055,6.0589,6.0742,6.0781,6.0781,6.0781,6.0781,6.0589,5.9742,5.9511,5.9088,5.7396,5.6973,5.7033,5.7076,5.6557,5.6231,5.7023,5.7313,5.7525,5.7911,0.0,0.0,0.0,0.0,0.0,0.0,0.0,0.0,0.0,0.0,5.9281,6.0666,5.9896,5.9281,5.9281,5.9281,5.9027,5.8443,0.0,6.0296,0.0,6.02,6.1245,0.0,0.0,6.1245,6.2669,6.1065,6.0609,6.12,6.1071,6.1558,6.2566,6.3558,6.4193,6.459,6.5436,6.623,6.7051,6.8629,6.9436,6.9783,7.0437,7.0706,7.0706,0.0,0.0,0.0,0.0,0.0,0.0,0.0,5.5996,0.0,5.6375,5.7253,5.808,5.8667,5.9249,5.9396,5.8973,5.8934,5.8396,5.7088,5.7434,5.728,5.6395,5.7203,5.7665,5.7665,5.7665,5.7896,5.8319,0.0,0.0,0.0,0.0,0.0,0.0,0.0,5.9281,0.0,0.0,0.0,5.8973,5.9396,6.0089,6.0742,6.0319,6.0435,6.0781,6.0781,6.0512,6.0242,6.0666,6.0781,6.0781,6.0781,6.0781,6.0781,6.0781,6.0781,6.0704,6.0281,5.9858,5.9204,5.7973,5.7665,5.7434,5.6592,5.6746,5.7114,5.7156,5.7485,5.8024,5.8873,5.9678,0.0,0.0,0.0,0.0,0.0,0.0,6.0165,0.0,0.0,0.0,0.0,0.0,0.0,0.0,0.0,5.8242,5.8319,5.9473,5.9935,0.0,0.0,0.0,6.2012,0.0,6.1505,6.2012,6.1467,6.1454,6.1838,6.2547,6.3197,6.3794,6.4676,6.514,6.532,6.6167,6.7013,6.7898,6.9206,6.9975,7.036,7.0744,7.0898,7.0898,0.0,5.7212,0.0,0.0,5.6655,0.0,5.658,5.7528,5.7975,5.7253,5.8296,5.9202,5.9408,6.0238,6.0512,5.9858,5.9781,5.9127,5.7627,5.8011,5.7973,5.7319,5.7934,5.8396,5.855,5.855,5.855,0.0,5.9204,5.9511,0.0,6.0396,0.0,0.0,0.0,0.0,0.0,0.0,5.9088,5.9588,6.0435,6.0781,6.0781,6.0781,6.0781,6.0781,6.0781,6.0781,6.0781,6.0781,6.0781,6.0781,6.0781,6.0781,6.0781,6.0781,6.0781,6.0781,6.0781,6.0281,5.9588,5.8781,5.855,5.8204,5.6819,5.7434,5.8165,5.7709,5.8115,5.8809,5.9694,6.0227,0.0,0.0,0.0,0.0,0.0,0.0,0.0,0.0,0.0,0.0,5.8434,0.0,0.0,0.0,5.7934,5.7511,5.8011,5.8973,5.9435,5.9242,0.0,6.1666,6.132,0.0,6.1743,6.1589,6.1935,6.2281,6.2666,6.4012,6.4705,6.4897,6.559,6.5897,6.5974,6.6974,6.7782,6.8513,6.9552,7.036,7.0898,7.0898,7.0898,7.0898,0.0,0.0,0.0,0.0,0.0,0.0,5.7398,5.8351,5.8911,5.8419,5.8787,5.9511,6.0541,6.0742,6.0781,6.0704,6.0666,6.0281,5.9319,5.8665,5.828,5.8165,5.828,5.8627,5.9358,5.9396,5.9396,0.0,5.9473,5.9511,5.9511,6.0396,0.0,0.0,0.0,0.0,0.0,6.0242,6.0165,5.9588,6.0435,6.0781,6.0781,6.0781,6.0781,6.0781,6.0781,6.0781,6.0781,6.0781,6.0781,6.0781,6.0781,6.0781,6.0781,6.0781,6.0781,6.0781,6.0781,6.0742,6.0473,5.9588,5.9396,5.9358,5.9165,5.8704,5.8473,5.9127,5.9319,5.9627,6.0512,6.0089,5.9896,0.0,0.0,0.0,0.0,0.0,5.9588,5.9511,0.0,0.0,5.8319,5.7665,0.0,0.0,5.7819,5.7857,5.7165,5.8627,5.9165,5.8434,6.005,6.1627,6.3051,6.1627,6.205,6.4243,6.2781,6.2897,6.4359,6.4551,6.5013,6.5782,6.5859,6.5897,6.6013,6.7628,6.8321,6.8552,7.0167,7.0821,7.0898,7.0898,7.0898,7.0898,0.0,0.0,0.0,0.0,0.0,0.0,0.0,5.9547,5.9813,5.936,5.9587,6.0277,6.145,6.1089,6.0781,6.0781,6.0781,6.0435,5.955,5.9704,5.9588,5.905,5.9511,5.9935,6.0281,6.0281,6.0281,0.0,0.0,0.0,6.0281,0.0,0.0,0.0,0.0,5.9781,6.0281,6.0089,6.0127,6.0319,6.0666,6.0781,6.0781,6.0781,6.0781,6.0781,6.0781,6.0781,6.0781,6.0781,6.0781,6.0781,6.0781,6.0781,6.0781,6.0781,6.0781,6.0781,6.0781,6.0781,6.0589,5.9704,5.9896,6.0012,5.9011,5.9319,5.9742,5.955,5.9935,6.0396,6.0742,6.0935,6.1012,6.0819,0.0,0.0,0.0,0.0,0.0,5.8896,0.0,5.8434,5.6896,5.6896,0.0,0.0,0.0,5.6819,5.6973,5.8127,5.8858,5.9011,0.0,6.1127,6.1781,6.1127,6.155,6.3089,6.2897,6.3435,6.4628,6.5128,6.5551,6.5897,6.5897,6.6167,6.6705,6.7898,6.8706,6.9283,7.0437,7.0898,7.0975,7.1475,7.1668,7.1745,6.1967,0.0,6.0853,0.0,6.0853,6.0295,6.0295,6.0407,6.0528,6.0534,6.0395,6.0633,6.1603,6.1166,6.0781,6.0781,6.0781,6.055,5.9935,6.0204,6.0242,5.9896,6.0242,0.0,6.0781,6.0781,6.0666,6.0435,6.1281,0.0,0.0,0.0,0.0,0.0,5.9896,5.9973,6.0742,6.0127,6.0242,6.0781,6.0781,6.0781,6.0781,6.0781,6.0781,6.0781,6.0781,6.0781,6.0781,6.0781,6.0781,6.0781,6.0781,6.0781,6.0781,6.0781,6.0781,6.0781,6.0781,6.0781,6.0666,6.005,6.0319,6.0473,5.9319,5.9935,6.0627,6.0012,6.0358,6.0781,6.0781,6.1281,6.1512,6.0896,0.0,0.0,0.0,6.0781,0.0,5.9165,5.955,5.9088,5.7011,5.7357,0.0,0.0,0.0,5.6626,5.6973,5.7819,5.855,0.0,0.0,0.0,6.0781,6.105,6.1589,6.2474,6.3281,6.4128,6.5013,6.5628,6.6013,6.6244,6.6244,6.6705,6.7552,6.8436,6.9129,6.9783,7.0591,7.0898,7.1014,7.186,7.2206,7.2322,6.375,6.2933,6.2376,6.2376,6.1707,6.1187,6.1187,6.0818,6.0904,6.205,6.1081,6.0441,6.0796,6.0819,6.0781,6.0781,6.0781,6.0781,6.0781,5.9973,5.9896,0.0,0.0,5.9935,6.0781,6.0781,6.0396,5.9511,0.0,0.0,5.9511,0.0,5.9973,6.0742,5.9896,5.9973,6.0781,6.0781,6.0781,6.0781,6.0781,6.0781,6.0781,6.0781,6.0781,6.0781,6.0781,6.0781,6.0781,6.0781,6.0781,6.0781,6.0781,6.0781,6.0781,6.0781,6.0781,6.0781,6.0781,6.0781,6.0781,6.0781,6.0781,6.0781,6.0781,6.0781,6.0781,6.0781,6.0781,6.0781,6.0781,6.0819,6.0819,6.0781,0.0,0.0,0.0,6.0781,0.0,6.0781,6.0781,6.0435,5.955,5.9473,0.0,0.0,0.0,0.0,0.0,0.0,0.0,5.8319,5.9935,0.0,6.0781,6.1627,6.2474,6.332,6.4166,6.5051,6.5859,6.5897,6.632,6.709,6.709,6.759,6.8475,6.9321,6.9706,6.9783,7.0591,7.0898,7.1014,7.186,7.2206,7.2322,6.5348,6.5125,6.4939,6.4939,6.4233,6.3676,6.3676,6.3022,6.2732,6.304,6.2753,6.2277,6.1733,6.1166,6.0781,0.0,6.0781,6.0781,0.0,6.055,6.0512,6.0781,6.0512,6.0512,6.0781,6.0781,6.0666,6.0396,0.0,0.0,0.0,6.0666,6.0512,6.0781,6.0512,6.055,6.0781,6.0781,6.0781,6.0781,6.0781,6.0781,6.0781,6.0781,6.0781,6.0781,6.0781,6.0781,6.0781,6.0781,6.0781,6.0781,6.0781,6.0781,6.0781,6.0781,6.0781,6.0781,6.0781,6.0781,6.0781,6.0781,6.0781,6.0781,6.0781,6.0781,6.0781,6.0781,6.0781,6.0781,6.0781,6.0781,6.0781,6.0781,6.0781,0.0,6.0781,0.0,6.0589,5.9973,5.9896,5.9588,5.8781,5.8665,0.0,0.0,0.0,0.0,0.0,0.0,0.0,0.0,6.0512,0.0,6.0781,6.1666,6.2512,6.332,6.4782,6.6244,6.759,6.759,6.7744,6.7975,6.7975,6.8475,6.9321,6.959,7.0014,7.0552,7.0783,7.0898,7.1091,7.2552,7.3091,7.3283,6.6611,6.6574,6.6462,6.6165,6.5645,6.5311,6.5311,6.4704,6.4112,6.3766,6.3713,6.3321,6.2464,6.1733,0.0,6.0819,6.0781,6.0781,6.0781,6.0781,6.0781,6.0781,6.0781,6.0781,6.0781,6.0781,0.0,6.0781,6.1358,6.1589,6.1589,6.105,6.0781,6.0781,6.0781,6.0781,6.0781,6.0781,6.0781,6.0781,6.0781,6.0781,6.0781,6.0781,6.0781,6.0781,6.0781,6.0781,6.0781,6.0781,6.0781,6.0781,6.0781,6.0781,6.0781,6.0781,6.0781,6.0781,6.0781,6.0781,6.0781,6.0781,6.0781,6.0781,6.0781,6.0781,6.0781,6.0781,6.0781,6.0781,6.0781,6.0781,6.0781,6.0781,6.0781,6.0781,6.0781,0.0,6.0704,0.0,0.0,0.0,0.0,5.9742,5.9896,0.0,0.0,0.0,0.0,0.0,6.0089,6.0281,6.0627,6.0781,6.0781,6.1973,6.282,6.332,6.5359,6.7051,6.8398,6.8398,6.859,6.8898,6.8898,6.936,7.0167,7.0167,7.0437,7.0898,7.0898,7.1091,7.1552,7.2976,7.3707,7.4168,6.754,6.7391,6.7168,0.0,6.6277,0.0,6.6277,6.5814,6.5212,6.4353,6.4241,6.3863,6.2977,6.2516,6.1897,6.105,0.0,0.0,0.0,6.0858,6.0858,6.0781,6.0781,6.0781,6.0781,6.0781,6.0781,6.0781,6.0781,6.0781,6.0781,6.0781,6.0781,6.0781,6.0781,6.0781,6.0781,6.0781,6.0781,6.0781,6.0781,6.0781,6.0781,6.0781,6.0781,6.0781,6.0781,6.0781,6.0781,6.0781,6.0781,6.0781,6.0781,6.0781,6.0781,6.0781,6.0781,6.0781,6.0781,6.0781,6.0781,6.0781,6.0781,6.0781,6.0781,6.0781,6.0781,6.0781,6.0781,6.0781,6.0781,6.0781,6.0781,6.0781,6.0781,6.0781,6.0781,6.0781,6.1089,0.0,0.0,0.0,6.2012,6.2012,6.1358,0.0,0.0,0.0,0.0,0.0,6.0589,5.9704,6.0512,6.0973,6.0973,6.2589,6.3474,6.3705,6.6128,6.7744,6.859,6.859,6.9013,6.9783,6.9783,7.0206,7.0898,7.0898,7.0898,7.0898,7.0898,7.1398,7.2206,7.3168,7.3976,7.4745,0.0,0.0,6.8171,6.7986,6.7948,6.7948,6.7948,6.7821,6.7336,6.6153,6.6258,6.5741,6.3902,6.3871,6.3666,6.2781,6.2166,6.1512,6.0819,6.1396,6.1512,6.0819,6.0781,6.0781,6.0781,6.0781,6.0781,6.0781,6.0781,6.0781,6.0781,6.0781,6.0781,6.0781,6.0781,6.0781,6.0781,6.0781,6.0781,6.0781,6.0781,6.0781,6.0781,6.0781,6.0781,6.0781,6.0781,6.0781,6.0781,6.0781,6.0781,6.0781,6.0781,6.0781,6.0781,6.0781,6.0781,6.0781,6.0781,6.0781,6.0781,6.0781,6.0781,6.0781,6.0781,6.0781,6.0781,6.0781,6.0781,6.0781,6.0781,6.0781,6.0781,6.0781,6.0781,6.0781,6.0781,6.0781,6.0858,0.0,6.1089,6.1089,6.1089,6.1089,6.1204,0.0,0.0,6.1973,6.2397,6.2589,6.232,6.1512,6.2281,6.2704,6.2704,6.3782,6.5282,6.7205,6.8475,6.9513,7.0321,7.0321,7.0437,7.0629,7.0629,7.0706,7.0898,7.0898,7.0898,7.0898,7.0898,7.1014,7.1398,7.2937,7.363,7.4014,6.962,6.962,6.962,6.962,6.9286,6.9063,6.9063,6.8766,6.8118,6.7046,6.7422,6.7009,6.509,6.5053,6.4859,6.3974,6.2781,6.1897,6.1435,6.1435,6.1281,6.0819,6.0781,6.0781,6.0781,6.0781,6.0781,6.0781,6.0781,6.0781,6.0781,6.0781,6.0781,6.0781,6.0781,6.0781,6.0781,6.0781,6.0781,6.0781,6.0781,6.0781,6.0781,6.0781,6.0781,6.0781,6.0781,6.0781,6.0781,6.0781,6.0781,6.0781,6.0781,6.0781,6.0781,6.0781,6.0781,6.0819,6.0866,6.0804,6.0781,6.0781,6.0781,6.0781,6.0781,6.0781,6.0781,6.0781,6.0781,6.0781,6.0781,6.0781,6.0781,6.0781,6.1127,6.1243,6.0858,6.1127,6.1243,6.0858,6.1127,6.1396,6.1396,6.1743,6.1973,6.2089,6.2435,0.0,6.2743,6.3858,6.3935,6.2704,6.3089,6.332,6.332,6.4551,6.6282,6.8398,6.9283,7.0129,7.0898,7.0898,7.0898,7.0898,7.0898,7.0898,7.0937,7.1321,7.1475,7.1514,7.1937,7.2322,7.2783,7.4168,7.463,7.4822,7.092,7.092,7.092,7.092,7.0363,6.9843,6.9732,6.9149,6.8416,6.7486,6.806,6.7956,6.6438,6.6145,6.5782,6.5051,6.3435,6.2397,6.2281,6.1589,6.1127,6.1012,6.0858,6.0781,6.0781,6.0781,6.0781,6.0781,6.0781,6.0781,6.0781,6.0781,6.0781,6.0781,6.0781,6.0781,6.0781,6.0781,6.0781,6.0781,6.0781,6.0781,6.0781,6.0781,6.0781,6.0819,6.0935,6.1012,6.1012,6.1012,6.0973,6.0997,6.0997,6.092,6.0881,6.1135,6.1058,6.0866,6.0888,6.0827,6.0781,6.0804,6.0781,6.0781,6.0781,6.0781,6.0819,6.0973,6.0896,6.0896,6.1127,6.0973,6.0896,6.1127,6.1589,6.1666,6.1089,0.0,6.1666,6.105,6.1627,6.2127,6.2281,6.2897,6.3012,6.232,6.3051,6.3243,6.2704,6.482,6.5474,6.4128,6.4089,6.4089,6.4089,6.5667,6.7205,6.8629,6.9475,7.0244,7.0898,7.0898,7.0898,7.0898,7.0898,7.0898,7.0975,7.1706,7.2091,7.2283,7.3014,7.3822,7.463,7.5476,7.5899,7.6092,7.092,7.092,7.092,7.092,7.0809,7.0512,6.9806,6.9845,6.9484,6.7991,6.8489,6.8635,6.7643,6.717,6.6859,6.6705,6.5166,6.3897,6.3166,6.3012,6.2627,6.1935,6.1166,6.0781,6.0781,6.0781,6.0781,6.0781,6.0781,6.0781,6.0781,6.0781,6.0781,6.0781,6.0781,6.0781,6.0781,6.0781,6.0781,6.0781,6.0781,6.0781,6.0781,6.0781,6.0781,6.0896,6.1627,6.1897,6.1897,6.1897,6.1905,6.189,6.1967,6.1511,6.1246,6.2738,6.2138,6.0955,6.0827,6.0781,6.0804,6.0888,6.0827,6.0781,6.0781,6.0781,6.1012,6.1743,6.132,6.1243,6.2666,6.1743,6.1243,6.2666,6.1858,6.1204,6.182,0.0,6.1204,6.182,6.2012,6.2358,6.3051,6.3243,6.3243,6.3128,6.3897,6.4666,6.5282,6.632,6.7128,6.759,6.7628,6.7628,6.7628,6.8629,6.9244,6.9513,7.0321,7.0783,7.0898,7.0898,7.0898,7.0898,7.0898,7.0898,7.0898,7.1052,7.1552,7.2206,7.236,7.2937,7.3783,7.4591,7.5361,7.6015,7.2889,7.2555,7.2258,7.2258,7.1886,7.1478,7.1106,7.0612,7.0029,6.9278,6.9548,6.9425,6.8585,6.8503,6.8129,6.7167,6.6397,6.559,6.4743,6.382,6.2935,6.2127,6.1704,6.1281,6.0819,6.0781,6.0781,6.0781,6.0781,6.0781,6.0781,6.0781,6.0781,6.0781,6.0781,6.0781,6.0781,6.0781,6.0781,6.0781,6.0781,6.0781,6.0781,6.0781,6.1089,6.155,6.1935,6.2358,6.2743,6.2791,6.2814,6.2799,6.2882,6.2635,6.2502,6.3317,6.3008,6.2292,6.1726,6.1543,6.1582,6.1604,6.1559,6.1512,6.1512,6.182,6.2243,6.2666,6.2435,6.2397,6.3166,6.2666,6.2397,6.3166,6.2666,6.2127,6.2089,6.2127,6.2127,6.2089,6.2897,6.3782,6.4628,6.5089,6.5359,6.5359,6.6167,6.6628,6.6551,6.7782,6.8898,6.9706,6.8859,6.8398,6.8398,6.9244,6.9706,6.9706,7.0514,7.0898,7.0898,7.0898,7.1168,7.1552,7.1091,7.1437,7.2322,7.2322,7.2783,7.3591,7.4053,7.4476,7.5014,7.6284,7.6746,7.6746,7.4821,7.4227,7.367,7.367,7.3149,7.2555,7.1998,7.1228,7.0573,7.0197,7.0304,7.0202,6.959,6.9644,6.9167,6.7821,6.7513,6.7051,6.6244,6.4936,6.3743,6.2743,6.232,6.1781,6.1127,6.0896,6.0781,6.0781,6.0781,6.0781,6.0781,6.0781,6.0781,6.0781,6.0781,6.0781,6.0781,6.0781,6.0781,6.0781,6.0781,6.0781,6.0819,6.1012,6.1512,6.2127,6.2551,6.3089,6.3652,6.3931,6.39,6.3769,6.4029,6.3857,6.3626,6.4012,6.417,6.3959,6.2836,6.2541,6.2513,6.2513,6.2467,6.2382,6.2358,6.2858,6.3358,6.3551,6.3589,6.3666,6.3858,6.3743,6.3589,6.3589,0.0,6.3089,6.2474,6.3089,6.3435,6.3012,6.4282,6.5513,6.6397,6.7051,6.7398,6.7398,6.8205,6.8475,6.8013,6.9436,7.0667,7.1475,7.0283,6.959,6.959,7.0052,7.0283,7.0283,7.0706,7.1014,7.1206,7.1206,7.1668,7.2476,7.1783,7.2245,7.3514,7.3514,7.3976,7.4784,7.5438,7.5938,7.6476,7.7746,7.7938,7.763,7.5564,7.5044,7.4487,7.4487,7.445,7.3632,7.1366,7.1613,7.1518,6.9967,7.0375,7.0832,7.0755,7.0102,6.9667,6.9513,6.8783,6.7936,6.7051,6.6898,6.609,6.4474,6.2935,6.205,6.2012,6.1204,6.0781,6.0781,6.0781,6.0781,6.0781,6.0781,6.0781,6.0781,6.0781,6.0781,6.0781,6.0781,6.0781,6.0781,6.0781,6.0781,6.0896,6.1704,6.205,6.2281,6.3858,6.4484,6.4725,6.5534,6.5334,6.4943,6.5677,6.4907,6.398,6.5566,6.5992,6.5644,6.4019,6.3513,6.3389,6.3428,6.3345,6.3276,6.3205,6.3281,6.3551,6.4359,6.4512,6.4743,6.5551,6.5051,6.4512,6.4512,0.0,0.0,6.3243,6.3974,6.4782,6.5513,6.6397,6.7244,6.8129,6.8282,6.8321,6.8321,6.9129,6.9898,7.0591,7.1514,7.2399,7.3283,7.3206,7.3129,7.3129,7.2399,7.2014,7.2014,7.1245,7.1321,7.2091,7.2091,7.2591,7.3399,7.336,7.3399,7.3514,7.3514,7.3976,7.4707,7.4784,7.5784,7.7207,7.7323,7.7823,7.8284,7.653,7.5899,7.5193,7.4673,7.4598,7.4115,7.2666,7.229,7.1975,7.1331,7.1057,7.0898,7.0898,7.0629,7.0244,6.9744,6.9398,6.8629,6.7167,6.709,6.6359,6.4666,6.3474,6.2858,6.2858,6.2512,6.2358,6.2358,6.1858,6.1589,6.1589,6.105,6.0781,6.0781,6.0781,6.0781,6.0781,6.0781,6.0781,6.0781,6.0781,6.1127,6.1627,6.1973,6.2743,6.3743,6.4359,6.5331,6.6328,6.6661,6.7,6.7321,6.7652,6.7364,6.6998,6.7617,6.781,6.7655,6.7036,6.5621,6.4381,6.4359,6.4679,6.4995,6.4971,6.573,6.6551,6.6898,6.6974,6.7051,6.7398,6.7167,6.6782,6.6244,0.0,6.5282,6.4243,6.5282,6.609,6.5897,6.709,6.8244,6.9129,6.9206,6.9629,7.0667,7.1052,7.1629,7.2476,7.3283,7.3899,7.4245,7.4784,7.4553,7.3514,7.3168,7.3014,7.3014,7.2668,7.2706,7.3014,7.3014,7.3476,7.4207,7.3745,7.4091,7.5014,7.4476,7.4745,7.5515,7.5515,7.5899,7.6553,7.7092,7.7476,7.7707,7.7422,7.679,7.5936,7.5118,7.509,7.4695,7.3275,7.2649,7.2244,7.1823,7.1287,7.0898,7.0898,7.0898,7.0667,7.0129,7.009,6.9475,6.8013,6.7398,6.6474,6.5051,6.4166,6.3705,6.3705,6.3435,6.332,6.332,6.2474,6.2089,6.2089,6.1204,6.0781,6.0781,6.0781,6.0781,6.0781,6.0781,6.0973,6.1204,6.1204,6.1704,6.2512,6.2781,6.3782,6.5051,6.5282,6.6332,6.7702,6.8019,6.8397,6.8773,6.9065,6.9009,6.8816,6.8816,6.8816,6.8816,6.8816,6.748,6.6123,6.6102,6.646,6.6838,6.6791,6.7667,6.8424,6.8398,6.8629,6.8744,6.8475,6.8629,6.8436,6.7282,6.7321,6.7013,6.559,6.6859,6.7705,6.7167,6.8321,6.9436,7.0014,7.009,7.0552,7.1706,7.2052,7.2706,7.3822,7.4668,7.513,7.513,7.5707,7.5438,7.4322,7.4014,7.3899,7.386,7.363,7.363,7.3899,7.3899,7.4322,7.5091,7.4514,7.4938,7.5938,7.5361,7.5476,7.6015,7.6015,7.6169,7.6476,7.7092,7.7284,7.7284,7.8128,7.7645,7.6827,7.5936,7.6219,7.5507,7.2657,7.257,7.2348,7.1105,7.0904,7.0937,7.0898,7.0898,7.0898,7.0898,7.0898,7.0552,6.9744,6.8052,6.6744,6.5936,6.5089,6.4628,6.4628,6.3782,6.332,6.332,6.2512,6.2127,6.2089,6.1243,6.0819,6.0819,6.0819,6.0819,6.0819,6.0819,6.132,6.2089,6.2089,6.2589,6.3397,6.4282,6.5166,6.6013,6.6821,6.7768,6.8752,6.9601,6.9424,6.897,6.9783,6.9473,6.8816,6.8816,6.8816,6.8816,6.8816,6.8816,6.8794,6.8712,6.869,6.8668,6.855,6.85,6.8539,6.8436,6.9129,6.9475,6.859,6.9129,6.9167,6.7398,6.7859,6.8129,6.7244,6.8629,6.9706,6.9706,7.0398,7.0898,7.0898,7.0898,7.0898,7.0937,7.1745,7.2976,7.463,7.5515,7.6015,7.6015,7.6015,7.6015,7.6015,7.513,7.4707,7.4707,7.3899,7.3937,7.4707,7.4707,7.5168,7.6015,7.6015,7.6015,7.6015,7.6015,7.6015,7.6015,7.6015,7.6515,7.7284,7.7284,7.7284,7.7284,7.8239,7.809,7.7682,7.6865,7.6592,7.6027,7.4608,7.4023,7.3559,7.3186,7.2901,7.2476,7.186,7.1822,7.1552,7.0937,7.0898,7.0552,6.9744,6.8629,6.7898,6.7667,6.6282,6.5513,6.5513,6.5243,6.5128,6.5128,6.4282,6.3858,6.382,6.2974,6.2551,6.2551,6.2551,6.2551,6.2551,6.2551,6.2704,6.2935,6.2935,6.3435,6.4243,6.4512,6.5474,6.6782,6.7064,6.8178,6.9586,6.9865,7.0645,7.1523,7.1756,7.1253,7.0556,7.0556,7.0556,7.0556,7.0556,7.0556,7.0286,6.9065,6.9137,6.9517,6.9485,7.0337,7.1133,7.1079,7.1745,7.2283,7.2052,7.1706,7.1283,7.0744,7.0898,7.0552,6.9129,7.036,7.1014,6.986,7.0398,7.0898,7.0898,7.1437,7.2052,7.2668,7.4053,7.5091,7.5592,7.5861,7.6015,7.6015,7.6015,7.6015,7.6015,7.5745,7.563,7.563,7.5361,7.5399,7.563,7.563,7.5745,7.6015,7.6015,7.6015,7.6015,7.6015,7.6015,7.6015,7.6015,7.6169,7.6399,7.6399,7.6399,7.6399,7.8276,7.8276,7.8053,7.7236,7.7155,7.6835,7.5521,7.5018,7.4675,7.4163,7.3768,7.3322,7.2783,7.2706,7.236,7.1475,7.1091,7.0706,7.0206,6.9398,6.8898,6.8898,6.7628,6.6744,6.6359,6.6359,6.6205,6.5897,6.5013,6.4589,6.4589,6.3705,6.332,6.332,6.332,6.332,6.332,6.332,6.3705,6.432,6.3935,6.4551,6.559,6.559,6.6436,6.7667,6.809,6.9167,7.0397,7.0444,7.1208,7.2142,7.2491,7.222,7.1872,7.222,7.2336,7.2336,7.2336,7.2336,7.2104,7.1059,7.0651,7.0529,7.0845,7.1659,7.2418,7.2685,7.3157,7.3514,7.3514,7.3091,7.2706,7.2706,7.2706,7.236,7.136,7.1783,7.1937,7.1283,7.1321,7.1552,7.1898,7.2706,7.3553,7.4437,7.513,7.563,7.5976,7.6015,7.6015,7.6015,7.6015,7.6015,7.6015,7.6015,7.6015,7.6015,7.6015,7.6015,7.6015,7.6015,7.6015,7.6015,7.6015,7.6015,7.6015,7.6015,7.6015,7.6015,7.6015,7.6015,7.6015,7.6015,7.6015,7.6015,7.8276,7.8276,7.8053,7.731,7.7899,7.776,7.5764,7.5853,7.5664,7.4423,7.3952,7.3707,7.363,7.3553,7.3168,7.2399,7.1514,7.0975,7.0898,7.0206,6.9821,6.9821,6.9052,6.8205,6.7359,6.7244,6.6859,6.6128,6.532,6.4936,6.4936,6.4128,6.3782,6.3743,6.3666,6.3628,6.3628,6.3551,6.4436,6.582,6.5128,6.5743,6.709,6.7167,6.7782,6.8744,6.9592,7.0516,7.1337,7.1487,7.1518,7.1678,7.2568,7.2761,7.2877,7.369,7.3883,7.3883,7.3883,7.3883,7.3883,7.3883,7.2723,7.1695,7.2461,7.2621,7.2817,7.3574,7.3724,7.3745,7.3707,7.3668,7.363,7.3707,7.3668,7.363,7.363,7.2937,7.2706,7.3399,7.2783,7.2629,7.3437,7.4245,7.5053,7.5938,7.5245,7.5168,7.5976,7.6015,7.6015,7.6015,7.6092,7.613,7.613,7.613,7.6092,7.6015,7.6015,7.6015,7.6015,7.6015,7.6015,7.6015,7.6015,7.6015,7.6015,7.6015,7.6015,7.6015,7.6015,7.6015,7.6015,7.6092,7.6053,7.6015,7.8276,7.8276,7.8239,7.8053,7.8274,7.8036,7.6884,7.6876,7.6677,7.5733,7.5494,7.5207,7.4514,7.3899,7.3437,7.3245,7.2437,7.1629,7.0937,7.0744,7.0629,7.0629,7.0475,6.9975,6.9167,6.8475,6.8052,6.7859,6.7667,6.759,6.759,6.7398,6.7282,6.7282,6.659,6.6282,6.6244,6.559,6.5551,6.5936,6.6359,6.6782,6.7167,6.7859,6.9052,7.0425,7.0709,7.1839,7.3253,7.4007,7.3822,7.3496,7.4309,7.4115,7.3651,7.3844,7.3883,7.3883,7.3883,7.3883,7.3883,7.3883,7.3612,7.3358,7.3504,7.3983,7.4474,7.4538,7.5089,7.5523,7.5476,7.4899,7.4668,7.5361,7.4899,7.4437,7.4437,7.4284,7.3976,7.3553,7.3322,7.3283,7.3476,7.4245,7.5053,7.5938,7.5822,7.5784,7.5976,7.6015,7.6015,7.6015,7.6669,7.7015,7.7015,7.7015,7.6669,7.6015,7.6015,7.6015,7.6015,7.6015,7.6015,7.6015,7.6015,7.6015,7.6015,7.6015,7.6015,7.6015,7.6015,7.6015,7.6092,7.6784,7.6592,7.6092,7.8276,7.8458,7.8633,7.8633,7.9018,7.9051,7.8176,7.7931,7.7553,7.6746,7.6245,7.5822,7.5361,7.4938,7.4553,7.413,7.3283,7.2629,7.2168,7.2129,7.2129,7.2129,7.1745,7.1321,7.0898,7.0052,6.9206,6.8398,6.8398,6.8398,6.8398,6.8398,6.8398,6.8398,6.7936,6.7705,6.7705,6.7282,6.7321,6.7705,6.7705,6.7975,6.8398,6.8859,6.9578,7.049,7.1389,7.2621,7.3867,7.4363,7.427,7.4038,7.485,7.4811,7.4541,7.4966,7.5392,7.5624,7.5198,7.5392,7.5624,7.5198,7.5082,7.4966,7.4533,7.4717,7.5028,7.5374,7.5782,7.6034,7.6015,7.563,7.5476,7.5938,7.563,7.5476,7.5861,7.5592,7.5476,7.5822,7.5168,7.4861,7.5284,7.5322,7.5668,7.6553,7.6245,7.6015,7.6015,7.6015,7.6207,7.6592,7.7053,7.7476,7.7861,7.7861,7.763,7.7169,7.6784,7.6823,7.7169,7.6784,7.663,7.6592,7.6169,7.6015,7.6015,7.6015,7.6015,7.6015,7.6015,7.6015,7.6092,7.6976,7.7246,7.7246,7.8276,7.8686,7.9004,7.9004,7.9794,8.0124,7.9245,7.8755,7.8207,7.74,7.6553,7.6015,7.6015,7.6015,7.5592,7.4591,7.4014,7.3668,7.3514,7.3514,7.3514,7.3514,7.2822,7.2399,7.2399,7.1706,7.0514,6.8821,6.8821,6.8821,6.8821,6.8821,6.8821,6.8821,6.8667,6.8629,6.8629,6.8475,6.8821,6.9436,6.8859,6.9052,6.9706,6.986,7.0144,7.0619,7.2109,7.3365,7.4347,7.4347,7.4347,7.4425,7.5121,7.5314,7.5508,7.6359,7.7132,7.7558,7.6978,7.7365,7.7751,7.7016,7.6823,7.6668,7.5933,7.5567,7.5568,7.6276,7.6321,7.6236,7.6207,7.6207,7.6207,7.6207,7.6322,7.6669,7.74,7.6861,7.6899,7.813,7.6938,7.6284,7.7015,7.6438,7.6284,7.7015,7.6399,7.6053,7.6207,7.6092,7.6476,7.7476,7.7515,7.79,7.8707,7.8707,7.8784,7.8938,7.813,7.7977,7.8477,7.7669,7.7284,7.7246,7.6361,7.6015,7.6015,7.6015,7.6015,7.6015,7.6015,7.6015,7.6092,7.6976,7.7784,7.8515,7.8276,7.8686,7.9004,7.9004,7.9794,8.0124,7.9245,7.8755,7.8207,7.74,7.6553,7.6015,7.6015,7.6015,7.5361,7.3822,7.4207,7.4245,7.3553,7.3514,7.3514,7.3514,7.3399,7.3322,7.3322,7.3206,7.2322,7.0552,7.0552,7.0552,7.0552,7.0552,7.0552,7.0514,6.9821,6.9513,6.9475,6.8744,6.8475,6.8629,6.9283,6.959,6.9783,7.0555,7.1775,7.315,7.3471,7.4688,7.6049,7.6049,7.6049,7.6088,7.6204,7.6204,7.6397,7.7248,7.7597,7.7829,7.8486,7.8718,7.8796,7.868,7.8641,7.8602,7.8486,7.7906,7.7316,7.7305,7.7317,7.7263,7.716,7.713,7.713,7.713,7.7707,7.8207,7.8323,7.8246,7.7977,7.7515,7.6592,7.6053,7.6169,7.6053,7.6053,7.6169,7.6053,7.6322,7.7092,7.6399,7.6707,7.8284,7.8323,7.8746,7.9631,7.9631,8.0015,8.0746,7.9862,7.9131,7.8477,7.7669,7.7284,7.7246,7.6361,7.6015,7.6015,7.6015,7.6015,7.6015,7.6015,7.6015,7.6092,7.6976,7.7784,7.8592,7.8671,7.9053,7.9487,7.9751,8.0354,8.0673,8.0289,7.9652,7.89,7.8092,7.7246,7.6553,7.6053,7.6015,7.5707,7.4976,7.5207,7.5284,7.4938,7.4899,7.4899,7.4899,7.4437,7.4168,7.4168,7.3745,7.3129,7.236,7.186,7.1629,7.1629,7.1129,7.0898,7.0898,7.0514,7.0629,7.1052,7.0167,7.009,7.0514,7.0398,7.0387,7.0529,7.1364,7.2251,7.3098,7.4161,7.5639,7.7132,7.7132,7.7442,7.7829,7.7829,7.7829,7.7945,7.8293,7.8757,7.9067,7.9028,7.9337,7.9569,7.9105,7.8989,7.8989,7.8989,7.9067,7.8901,7.8309,7.8139,7.8083,7.8006,7.7977,7.7977,7.7977,7.8246,7.8669,7.9169,7.9246,7.9092,7.8746,7.7938,7.74,7.74,7.6976,7.6899,7.7361,7.6515,7.6361,7.7246,7.6938,7.7284,7.8438,7.8977,7.9631,8.0516,8.0516,8.0708,8.1093,8.0708,8.0054,7.9208,7.8361,7.7707,7.7246,7.6361,7.6015,7.6015,7.6015,7.6015,7.6015,7.6015,7.6553,7.7438,7.7823,7.8754,7.9883]},{"header":{"parameterUnit":"m.s-1","parameterCategory":1,"la1":30.6,"la2":28.766,"lo1":-90.7593,"lo2":-88.6598,"dx":0.0162,"dy":0.0183,"nx":116,"ny":114,"refTime":"2023-02-08T18:00:00:Z","depth":0,"parameterNumber":3,"parameterNumberName":"V-component_of_WINDS"},"data":[0.0,0.0,0.0,0.0,0.0,0.0,0.0,0.0,0.0,0.0,0.0,0.0,0.0,0.0,0.0,0.0,0.0,0.0,0.0,0.0,0.0,0.0,0.0,0.0,0.0,0.0,0.0,0.0,0.0,0.0,0.0,0.0,0.0,0.0,0.0,0.0,0.0,0.0,0.0,0.0,0.0,0.0,0.0,0.0,0.0,0.0,0.0,0.0,0.0,0.0,0.0,0.0,0.0,0.0,0.0,0.0,0.0,0.0,0.0,0.0,0.0,0.0,0.0,0.0,0.0,0.0,0.0,0.0,0.0,0.0,0.0,0.0,0.0,0.0,0.0,0.0,0.0,0.0,0.0,0.0,0.0,0.0,0.0,0.0,0.0,0.0,0.0,0.0,0.0,0.0,0.0,0.0,0.0,0.0,0.0,0.0,0.0,0.0,0.0,0.0,0.0,0.0,0.0,0.0,0.0,0.0,0.0,0.0,0.0,0.0,0.0,0.0,0.0,0.0,0.0,0.0,0.0,0.0,0.0,0.0,0.0,0.0,0.0,0.0,0.0,0.0,0.0,0.0,0.0,0.0,0.0,0.0,0.0,0.0,0.0,0.0,0.0,0.0,0.0,0.0,0.0,0.0,0.0,0.0,0.0,0.0,0.0,0.0,0.0,0.0,0.0,0.0,0.0,0.0,0.0,0.0,0.0,0.0,0.0,0.0,0.0,0.0,0.0,0.0,0.0,0.0,0.0,0.0,0.0,0.0,0.0,0.0,0.0,0.0,0.0,0.0,0.0,0.0,0.0,0.0,0.0,0.0,0.0,0.0,0.0,0.0,0.0,0.0,0.0,0.0,0.0,0.0,0.0,0.0,0.0,0.0,0.0,0.0,0.0,0.0,0.0,0.0,0.0,0.0,0.0,0.0,0.0,0.0,0.0,0.0,0.0,0.0,0.0,0.0,0.0,0.0,0.0,0.0,0.0,0.0,0.0,0.0,0.0,0.0,0.0,0.0,0.0,0.0,0.0,0.0,0.0,0.0,0.0,0.0,0.0,0.0,0.0,0.0,0.0,0.0,0.0,0.0,0.0,0.0,0.0,0.0,0.0,0.0,0.0,0.0,0.0,0.0,0.0,0.0,0.0,0.0,0.0,0.0,0.0,0.0,0.0,0.0,0.0,0.0,0.0,0.0,0.0,0.0,0.0,0.0,0.0,0.0,0.0,0.0,0.0,0.0,0.0,0.0,0.0,0.0,0.0,0.0,0.0,0.0,0.0,0.0,0.0,0.0,0.0,0.0,0.0,0.0,0.0,0.0,0.0,0.0,0.0,0.0,0.0,0.0,0.0,0.0,0.0,0.0,0.0,0.0,0.0,0.0,0.0,0.0,0.0,0.0,0.0,0.0,0.0,0.0,0.0,0.0,0.0,0.0,0.0,0.0,0.0,0.0,0.0,0.0,0.0,0.0,0.0,0.0,0.0,0.0,0.0,0.0,0.0,0.0,0.0,0.0,0.0,0.0,0.0,0.0,0.0,0.0,0.0,0.0,0.0,0.0,0.0,0.0,0.0,0.0,0.0,0.0,0.0,0.0,0.0,0.0,0.0,0.0,0.0,0.0,0.0,0.0,0.0,0.0,0.0,0.0,0.0,0.0,0.0,0.0,0.0,0.0,0.0,0.0,0.0,0.0,0.0,0.0,0.0,0.0,0.0,0.0,0.0,0.0,0.0,0.0,0.0,0.0,0.0,0.0,0.0,0.0,0.0,0.0,0.0,0.0,0.0,0.0,0.0,0.0,0.0,0.0,0.0,0.0,0.0,0.0,0.0,0.0,0.0,0.0,0.0,0.0,0.0,0.0,0.0,0.0,0.0,0.0,0.0,0.0,0.0,0.0,0.0,0.0,0.0,0.0,0.0,0.0,0.0,0.0,0.0,0.0,0.0,0.0,0.0,0.0,0.0,0.0,0.0,0.0,0.0,0.0,0.0,0.0,0.0,0.0,0.0,0.0,0.0,0.0,0.0,0.0,0.0,0.0,0.0,0.0,0.0,0.0,0.0,0.0,0.0,0.0,0.0,0.0,0.0,0.0,0.0,0.0,0.0,0.0,0.0,0.0,0.0,0.0,0.0,0.0,0.0,0.0,0.0,0.0,0.0,0.0,0.0,0.0,0.0,0.0,0.0,0.0,0.0,0.0,0.0,0.0,0.0,0.0,0.0,0.0,0.0,0.0,0.0,0.0,0.0,0.0,0.0,0.0,0.0,0.0,0.0,0.0,0.0,0.0,0.0,0.0,0.0,0.0,0.0,0.0,0.0,0.0,0.0,0.0,0.0,0.0,0.0,0.0,0.0,0.0,0.0,0.0,0.0,0.0,0.0,0.0,0.0,0.0,0.0,0.0,0.0,0.0,0.0,0.0,0.0,0.0,0.0,0.0,0.0,0.0,0.0,0.0,0.0,0.0,0.0,0.0,0.0,0.0,0.0,0.0,0.0,0.0,0.0,0.0,0.0,0.0,0.0,0.0,0.0,0.0,0.0,0.0,0.0,0.0,0.0,0.0,0.0,0.0,0.0,0.0,0.0,0.0,0.0,0.0,0.0,0.0,0.0,0.0,0.0,0.0,0.0,0.0,0.0,0.0,0.0,0.0,0.0,0.0,0.0,0.0,0.0,0.0,0.0,0.0,0.0,0.0,0.0,0.0,0.0,0.0,0.0,0.0,0.0,0.0,0.0,0.0,0.0,0.0,0.0,0.0,0.0,0.0,0.0,0.0,0.0,0.0,0.0,0.0,0.0,0.0,0.0,0.0,0.0,0.0,0.0,0.0,0.0,0.0,0.0,0.0,0.0,0.0,0.0,0.0,0.0,0.0,0.0,0.0,0.0,0.0,0.0,0.0,0.0,0.0,0.0,0.0,0.0,0.0,0.0,0.0,0.0,0.0,0.0,0.0,0.0,0.0,0.0,0.0,0.0,0.0,0.0,0.0,0.0,0.0,0.0,0.0,0.0,0.0,0.0,0.0,0.0,0.0,0.0,0.0,0.0,0.0,0.0,0.0,0.0,0.0,0.0,0.0,0.0,0.0,0.0,0.0,0.0,0.0,0.0,0.0,0.0,0.0,0.0,0.0,0.0,0.0,0.0,0.0,0.0,0.0,0.0,0.0,0.0,0.0,0.0,0.0,0.0,0.0,0.0,0.0,0.0,0.0,0.0,0.0,0.0,0.0,0.0,0.0,0.0,0.0,0.0,0.0,0.0,0.0,0.0,0.0,0.0,0.0,0.0,0.0,0.0,0.0,0.0,0.0,0.0,0.0,0.0,0.0,0.0,0.0,0.0,0.0,0.0,0.0,0.0,0.0,0.0,0.0,0.0,0.0,0.0,0.0,0.0,0.0,0.0,0.0,0.0,0.0,0.0,0.0,0.0,0.0,0.0,0.0,0.0,0.0,0.0,0.0,0.0,0.0,0.0,0.0,0.0,0.0,0.0,0.0,0.0,0.0,0.0,0.0,0.0,0.0,0.0,0.0,0.0,0.0,0.0,0.0,0.0,0.0,0.0,0.0,0.0,0.0,0.0,0.0,0.0,0.0,0.0,0.0,0.0,0.0,0.0,0.0,0.0,0.0,0.0,0.0,0.0,0.0,0.0,0.0,0.0,0.0,0.0,0.0,0.0,0.0,0.0,0.0,0.0,0.0,0.0,0.0,0.0,0.0,0.0,0.0,0.0,0.0,0.0,0.0,0.0,0.0,0.0,0.0,0.0,0.0,0.0,0.0,0.0,0.0,0.0,0.0,0.0,0.0,0.0,0.0,0.0,0.0,0.0,0.0,0.0,0.0,0.0,0.0,0.0,0.0,0.0,0.0,0.0,0.0,0.0,0.0,0.0,0.0,0.0,0.0,0.0,0.0,0.0,0.0,0.0,0.0,0.0,0.0,0.0,0.0,0.0,0.0,0.0,0.0,0.0,0.0,0.0,0.0,0.0,0.0,0.0,0.0,0.0,0.0,0.0,0.0,0.0,0.0,0.0,0.0,0.0,0.0,0.0,0.0,0.0,0.0,0.0,0.0,0.0,0.0,0.0,0.0,0.0,0.0,0.0,0.0,0.0,0.0,0.0,0.0,0.0,0.0,0.0,0.0,0.0,0.0,0.0,0.0,0.0,0.0,0.0,0.0,0.0,0.0,0.0,0.0,0.0,0.0,0.0,0.0,0.0,0.0,0.0,0.0,0.0,0.0,0.0,0.0,0.0,0.0,0.0,0.0,0.0,0.0,0.0,0.0,0.0,0.0,0.0,0.0,0.0,0.0,0.0,0.0,0.0,0.0,0.0,0.0,0.0,0.0,0.0,0.0,0.0,0.0,0.0,0.0,0.0,0.0,0.0,0.0,0.0,0.0,0.0,0.0,0.0,0.0,0.0,0.0,0.0,0.0,0.0,0.0,0.0,0.0,0.0,0.0,0.0,0.0,0.0,0.0,0.0,0.0,0.0,0.0,0.0,0.0,0.0,0.0,0.0,0.0,0.0,0.0,0.0,0.0,0.0,0.0,0.0,0.0,0.0,0.0,0.0,0.0,0.0,0.0,0.0,0.0,0.0,0.0,0.0,0.0,0.0,0.0,0.0,0.0,0.0,0.0,0.0,0.0,0.0,0.0,0.0,0.0,0.0,0.0,0.0,0.0,0.0,0.0,0.0,0.0,0.0,0.0,0.0,0.0,0.0,0.0,0.0,0.0,0.0,0.0,0.0,0.0,0.0,0.0,0.0,0.0,0.0,0.0,0.0,0.0,0.0,0.0,0.0,0.0,0.0,0.0,0.0,0.0,0.0,0.0,0.0,0.0,0.0,0.0,0.0,0.0,0.0,0.0,0.0,0.0,0.0,0.0,0.0,0.0,0.0,0.0,0.0,0.0,0.0,0.0,0.0,0.0,0.0,0.0,0.0,0.0,0.0,0.0,0.0,0.0,0.0,0.0,0.0,0.0,0.0,0.0,0.0,0.0,0.0,0.0,0.0,0.0,0.0,0.0,0.0,0.0,0.0,0.0,0.0,0.0,0.0,0.0,0.0,0.0,0.0,0.0,0.0,0.0,0.0,0.0,0.0,0.0,0.0,0.0,0.0,0.0,0.0,0.0,0.0,0.0,0.0,0.0,0.0,0.0,0.0,0.0,0.0,0.0,0.0,0.0,0.0,0.0,0.0,0.0,0.0,0.0,0.0,0.0,0.0,0.0,0.0,0.0,0.0,0.0,0.0,0.0,0.0,0.0,0.0,0.0,0.0,0.0,0.0,0.0,0.0,0.0,0.0,0.0,0.0,0.0,0.0,0.0,0.0,0.0,0.0,0.0,0.0,0.0,0.0,0.0,0.0,0.0,0.0,0.0,0.0,0.0,0.0,0.0,0.0,0.0,0.0,0.0,0.0,0.0,0.0,0.0,0.0,0.0,0.0,0.0,0.0,0.0,0.0,0.0,0.0,0.0,0.0,0.0,0.0,0.0,0.0,0.0,0.0,0.0,0.0,0.0,0.0,0.0,0.0,0.0,0.0,0.0,0.0,0.0,0.0,0.0,0.0,0.0,0.0,0.0,0.0,0.0,0.0,0.0,0.0,0.0,0.0,0.0,0.0,0.0,0.0,0.0,0.0,0.0,0.0,0.0,0.0,0.0,0.0,0.0,0.0,0.0,0.0,0.0,0.0,0.0,0.0,0.0,0.0,0.0,0.0,0.0,0.0,0.0,0.0,0.0,0.0,0.0,0.0,0.0,0.0,0.0,0.0,0.0,0.0,0.0,0.0,0.0,0.0,0.0,0.0,0.0,0.0,0.0,0.0,0.0,0.0,0.0,0.0,0.0,0.0,0.0,0.0,0.0,0.0,0.0,0.0,0.0,0.0,0.0,0.0,0.0,0.0,0.0,0.0,0.0,0.0,0.0,0.0,0.0,0.0,0.0,0.0,0.0,0.0,0.0,0.0,0.0,0.0,0.0,0.0,0.0,0.0,0.0,0.0,0.0,0.0,0.0,0.0,0.0,0.0,0.0,0.0,0.0,0.0,0.0,0.0,0.0,0.0,0.0,0.0,0.0,0.0,0.0,0.0,0.0,0.0,0.0,0.0,0.0,0.0,0.0,0.0,0.0,-1.5126,-1.4846,0.0,0.0,0.0,0.0,0.0,0.0,0.0,0.0,0.0,0.0,0.0,0.0,0.0,0.0,0.0,0.0,0.0,0.0,0.0,0.0,0.0,0.0,0.0,0.0,0.0,0.0,0.0,0.0,0.0,0.0,0.0,0.0,0.0,0.0,0.0,0.0,0.0,0.0,0.0,0.0,0.0,0.0,0.0,0.0,0.0,0.0,0.0,0.0,0.0,0.0,0.0,0.0,0.0,0.0,0.0,0.0,0.0,0.0,0.0,0.0,0.0,0.0,0.0,0.0,0.0,0.0,0.0,0.0,0.0,0.0,0.0,0.0,0.0,0.0,0.0,0.0,0.0,0.0,0.0,0.0,0.0,0.0,0.0,0.0,0.0,0.0,0.0,0.0,0.0,0.0,0.0,0.0,0.0,0.0,0.0,0.0,0.0,0.0,0.0,0.0,0.0,0.0,0.0,0.0,0.0,0.0,0.0,0.0,0.0,0.0,0.0,0.0,0.0,0.0,-1.6347,-1.5927,0.0,0.0,0.0,0.0,0.0,0.0,0.0,0.0,0.0,0.0,0.0,0.0,0.0,0.0,0.0,0.0,0.0,0.0,0.0,0.0,0.0,0.0,0.0,0.0,0.0,0.0,0.0,0.0,0.0,0.0,0.0,0.0,0.0,0.0,0.0,0.0,0.0,0.0,0.0,0.0,0.0,0.0,0.0,0.0,0.0,0.0,0.0,0.0,0.0,0.0,0.0,0.0,0.0,0.0,0.0,0.0,0.0,0.0,0.0,0.0,0.0,0.0,0.0,0.0,0.0,0.0,0.0,0.0,0.0,0.0,0.0,0.0,0.0,0.0,0.0,0.0,0.0,0.0,0.0,0.0,0.0,0.0,0.0,0.0,0.0,0.0,0.0,0.0,0.0,0.0,0.0,0.0,0.0,0.0,0.0,0.0,0.0,0.0,0.0,0.0,0.0,0.0,0.0,0.0,0.0,0.0,0.0,0.0,-1.8228,-1.8636,-1.9685,-1.9008,-1.8701,-1.8671,-1.7465,-1.6899,-1.6848,-1.598,0.0,0.0,0.0,0.0,0.0,0.0,0.0,0.0,0.0,0.0,0.0,0.0,0.0,0.0,0.0,0.0,0.0,0.0,0.0,0.0,0.0,0.0,0.0,0.0,0.0,0.0,0.0,0.0,0.0,0.0,0.0,0.0,0.0,0.0,0.0,0.0,0.0,0.0,-2.9943,-2.9773,-2.9397,-2.8871,-2.5563,0.0,0.0,0.0,0.0,0.0,0.0,0.0,0.0,0.0,0.0,0.0,0.0,0.0,0.0,0.0,0.0,0.0,0.0,0.0,0.0,0.0,0.0,0.0,0.0,0.0,0.0,0.0,0.0,0.0,0.0,0.0,0.0,0.0,0.0,0.0,0.0,0.0,0.0,0.0,0.0,0.0,0.0,0.0,-1.9429,-1.9251,0.0,0.0,0.0,0.0,0.0,0.0,0.0,0.0,0.0,0.0,0.0,0.0,0.0,-1.9083,-1.913,-1.8453,-1.8483,-1.9273,-1.8285,-1.8163,-1.8955,-1.8877,-1.8784,-1.8769,-1.8582,0.0,-1.7927,-1.7159,0.0,0.0,0.0,0.0,0.0,0.0,0.0,0.0,0.0,0.0,0.0,0.0,0.0,0.0,0.0,0.0,0.0,0.0,0.0,0.0,0.0,0.0,0.0,0.0,0.0,0.0,0.0,0.0,0.0,0.0,0.0,0.0,0.0,0.0,0.0,0.0,-3.146,-3.1814,-3.1968,-3.1351,-3.113,-3.0986,-2.8859,-2.6972,-2.5267,-2.4175,0.0,0.0,0.0,0.0,0.0,0.0,0.0,0.0,0.0,0.0,0.0,0.0,0.0,0.0,0.0,0.0,0.0,0.0,0.0,0.0,0.0,0.0,0.0,0.0,0.0,0.0,0.0,0.0,0.0,0.0,0.0,0.0,0.0,0.0,0.0,0.0,0.0,0.0,0.0,-2.0286,-2.0188,-2.0176,-1.981,-1.9257,0.0,0.0,0.0,0.0,0.0,0.0,0.0,0.0,0.0,-1.9129,-1.9288,-1.9368,-1.9368,-1.8879,-1.9067,-1.994,-1.9098,-1.9036,-1.9701,-1.9701,-1.9701,-1.9717,-1.9924,-1.9665,-1.9012,-1.7486,-1.6798,-1.6498,0.0,0.0,0.0,0.0,-1.3915,-1.3532,0.0,0.0,0.0,0.0,0.0,0.0,0.0,0.0,0.0,0.0,0.0,0.0,0.0,0.0,0.0,-3.0494,0.0,0.0,0.0,0.0,0.0,0.0,0.0,0.0,0.0,0.0,0.0,0.0,-3.2652,-3.2901,-3.3147,-3.27,-3.2499,-3.2297,-3.1542,-2.9934,-2.7744,-2.64,-2.5267,0.0,0.0,0.0,0.0,0.0,0.0,0.0,0.0,0.0,0.0,0.0,0.0,0.0,0.0,0.0,0.0,0.0,0.0,0.0,0.0,0.0,0.0,0.0,0.0,0.0,0.0,0.0,0.0,0.0,0.0,0.0,0.0,0.0,0.0,0.0,0.0,0.0,0.0,-2.0629,-2.0636,-2.0417,-2.0348,-1.9929,0.0,0.0,0.0,0.0,0.0,0.0,-1.9352,-1.9288,-1.9272,-1.9368,-1.9447,-1.9542,-1.9638,-1.9368,-1.9622,-2.0384,-1.9781,-1.9765,-2.0257,-2.0257,-2.0257,-2.0273,-2.0543,-2.0253,-1.9423,-1.8052,-1.7184,-1.6607,-1.5543,-1.4968,-1.4653,-1.4403,-1.4068,-1.3737,0.0,0.0,0.0,0.0,0.0,0.0,0.0,0.0,0.0,0.0,0.0,0.0,0.0,0.0,-3.1577,-3.1577,-3.1601,-3.1192,0.0,0.0,0.0,0.0,0.0,0.0,0.0,0.0,0.0,-3.2489,-3.2989,-3.3201,-3.3247,-3.3645,-3.3645,-3.3147,-3.2778,-3.1882,-3.0406,-2.8512,-2.758,-2.711,0.0,0.0,0.0,0.0,0.0,0.0,0.0,0.0,0.0,0.0,0.0,0.0,0.0,0.0,0.0,0.0,0.0,0.0,0.0,0.0,0.0,0.0,0.0,0.0,0.0,0.0,0.0,0.0,0.0,0.0,0.0,0.0,0.0,0.0,0.0,0.0,0.0,0.0,0.0,-1.9092,-1.9798,0.0,0.0,0.0,0.0,-1.9336,-1.9336,-1.9352,-1.9368,-1.905,-1.9018,-1.9368,-1.9669,-2.0003,-2.0337,-2.0321,-2.0337,-2.0384,-2.0019,-1.986,-1.9892,-1.9892,-1.9892,-1.9892,-1.9908,-1.9501,-1.8769,-1.9423,-1.9541,-1.9146,-1.8006,-1.7297,-1.6842,-1.5695,-1.4841,-1.4256,0.0,0.0,0.0,0.0,0.0,0.0,0.0,0.0,0.0,0.0,0.0,0.0,0.0,-3.136,-3.2346,-3.2683,-3.302,-3.2899,-3.2202,0.0,0.0,0.0,0.0,0.0,0.0,0.0,-3.2933,-3.3982,-3.4145,-3.4237,-3.4237,-3.4433,-3.4433,-3.4237,-3.4115,-3.3796,-3.3155,-3.0766,-2.9081,-2.786,-2.6643,-2.5184,0.0,0.0,0.0,0.0,0.0,0.0,0.0,0.0,0.0,0.0,0.0,0.0,0.0,0.0,0.0,0.0,0.0,0.0,0.0,0.0,0.0,0.0,0.0,0.0,0.0,0.0,0.0,0.0,0.0,0.0,0.0,0.0,0.0,0.0,0.0,0.0,0.0,-2.0479,-2.0703,0.0,-1.9654,-1.9717,-1.9812,-1.9701,-1.9685,-1.9781,-2.0019,-1.9908,-1.9892,-2.0019,-2.0146,-2.0257,-2.04,-2.0162,-2.0289,-2.0734,-2.0146,-1.9987,-2.021,-2.021,-2.021,-2.021,-2.021,-1.987,-1.9455,-1.8931,-1.8089,-1.7022,-1.6608,-1.6032,-1.5306,-1.502,-1.4643,-1.4292,0.0,0.0,0.0,0.0,0.0,0.0,0.0,0.0,0.0,0.0,0.0,-3.0687,-3.0879,-3.2178,-3.3164,-3.3525,-3.3837,-3.3669,-3.2803,0.0,0.0,0.0,0.0,0.0,0.0,-3.2923,-3.3789,-3.4823,-3.4823,-3.4726,-3.4531,-3.4726,-3.4628,-3.4237,-3.4628,-3.4531,-3.3918,-3.2678,-3.1271,-2.9764,-2.8569,-2.7171,-2.549,0.0,0.0,0.0,0.0,0.0,0.0,0.0,0.0,0.0,0.0,0.0,0.0,0.0,0.0,0.0,0.0,0.0,0.0,0.0,0.0,0.0,0.0,0.0,0.0,0.0,0.0,0.0,0.0,0.0,0.0,0.0,0.0,0.0,0.0,-2.119,-2.1172,-2.0942,-2.1081,-2.0913,-2.0021,-2.0194,-2.0305,-2.0067,-2.0035,-2.0146,-2.0384,-2.0273,-2.0273,-2.0384,-2.04,-2.0448,-2.0575,-2.0337,-2.0448,-2.0909,-2.0448,-2.0337,-2.0575,-2.0575,-2.0575,-2.0559,-2.0448,-2.0194,-1.9844,-1.892,-1.7735,-1.6388,-1.6011,-1.5511,-1.4973,-1.4777,-1.4594,-1.4425,0.0,0.0,0.0,0.0,0.0,0.0,0.0,0.0,0.0,0.0,-3.0999,-3.1865,-3.2442,-3.3404,-3.4006,-3.4006,-3.4006,-3.3356,-3.1793,-3.1673,0.0,0.0,0.0,0.0,-3.3236,-3.3308,-3.3837,-3.4726,-3.4726,-3.4531,-3.3941,-3.4531,-3.4237,-3.3247,-3.4335,-3.3941,-3.2544,-3.404,-3.4139,-3.2955,-2.9864,-2.9204,-2.958,0.0,0.0,0.0,0.0,0.0,0.0,0.0,0.0,0.0,0.0,0.0,0.0,0.0,0.0,0.0,0.0,0.0,0.0,0.0,0.0,0.0,0.0,0.0,0.0,0.0,0.0,0.0,0.0,0.0,0.0,0.0,0.0,0.0,-2.0124,-2.0654,-2.0785,-2.0053,-2.0829,-2.1068,-2.0035,-2.0845,-2.1163,-2.048,-2.0416,-2.0416,-2.0416,-2.0083,-2.0051,-2.04,-2.0416,-2.0575,-2.0925,-2.0925,-2.0925,-2.0925,-2.0925,-2.0925,-2.0941,-2.0941,-2.0941,-2.0925,-2.0559,-2.0194,-1.9844,-1.9495,-1.8659,-1.7542,-1.6332,-1.6038,-1.6247,-1.5109,-1.4714,-1.4666,0.0,0.0,0.0,0.0,0.0,0.0,0.0,0.0,0.0,0.0,-3.0999,-3.1865,-3.2442,-3.3092,-3.3501,-3.3501,-3.3501,-3.314,-3.2322,0.0,0.0,0.0,0.0,0.0,-3.3284,-3.403,-3.4341,-3.4237,-3.4237,-3.3941,-3.3446,-3.3941,-3.404,-3.3744,-3.4139,-3.4152,-3.4078,-3.2605,-3.2619,-3.351,-3.1586,-2.9557,-2.757,0.0,0.0,0.0,0.0,0.0,0.0,0.0,0.0,0.0,0.0,0.0,0.0,0.0,0.0,0.0,0.0,0.0,0.0,0.0,0.0,0.0,0.0,0.0,0.0,0.0,0.0,0.0,0.0,0.0,0.0,0.0,-1.975,-2.02,-2.0834,-2.1279,-2.1541,-2.1603,-2.2127,-2.2144,-2.1522,-2.1417,-2.137,-2.1179,-2.0925,-2.0782,-2.0782,-2.0686,-2.067,-2.0766,-2.0782,-2.0829,-2.0925,-2.0925,-2.0925,-2.0925,-2.0925,-2.1052,-2.1306,-2.1306,-2.1306,-2.1274,-2.0655,-2.0194,-1.9812,-1.8073,-1.7225,-1.6914,-1.6967,-1.6451,-1.5616,-1.5183,-1.4751,-1.4401,0.0,0.0,0.0,0.0,0.0,0.0,0.0,0.0,0.0,0.0,-3.1113,-3.1854,-3.3044,-3.3241,-3.3315,-3.3597,-3.3212,-3.2731,-3.2178,0.0,0.0,0.0,0.0,-3.3289,-3.3933,-3.4318,-3.4335,-3.404,-3.4237,-3.404,-3.3545,-3.404,-3.4335,-3.4335,-3.4572,-3.461,-3.4388,-3.3546,-3.2955,-3.2556,-3.2184,-3.0433,-2.8105,-2.7895,-2.6686,-2.5182,-2.5058,-2.4958,-2.4702,-2.4152,0.0,0.0,0.0,0.0,0.0,0.0,0.0,0.0,0.0,0.0,0.0,0.0,0.0,0.0,0.0,0.0,0.0,0.0,0.0,0.0,0.0,0.0,0.0,0.0,-2.0083,-2.0532,-2.1188,-2.1415,-2.1626,-2.1957,-2.2322,-2.2393,-2.1767,-2.1687,-2.1544,-2.1258,-2.1179,-2.1084,-2.0925,-2.1068,-2.1084,-2.0925,-2.0925,-2.0925,-2.0925,-2.0925,-2.0925,-2.0925,-2.1068,-2.1258,-2.1449,-2.1592,-2.1655,-2.1624,-2.0925,-2.0416,-2.0035,-1.8384,-1.7646,0.0,0.0,0.0,0.0,0.0,-1.4666,-1.4292,0.0,0.0,0.0,0.0,0.0,0.0,0.0,0.0,0.0,0.0,0.0,-3.1731,-3.3767,-3.3553,-3.3433,-3.3863,-3.3068,-3.2274,0.0,0.0,0.0,-3.3119,-3.296,-3.3434,-3.4702,-3.4382,-3.4087,-3.404,-3.4433,-3.4335,-3.3843,-3.4335,-3.4555,-3.465,-3.5202,-3.4863,-3.4062,-3.5553,-3.4178,-3.1113,-3.2057,-3.1458,-2.9796,-2.8846,-2.7513,-2.5971,-2.5374,-2.5142,-2.5216,-2.5436,0.0,0.0,0.0,0.0,0.0,0.0,0.0,0.0,0.0,0.0,0.0,0.0,0.0,0.0,0.0,0.0,0.0,0.0,0.0,0.0,0.0,0.0,0.0,0.0,-2.0718,-2.1052,-2.1449,-2.1544,-2.156,-2.156,-2.2148,-2.2307,-2.1687,-2.1862,-2.1767,-2.1147,-2.1354,-2.137,-2.1052,-2.1338,0.0,0.0,0.0,-2.102,-2.0988,-2.102,-2.102,-2.0988,-2.1338,-2.1513,-2.1513,-2.1862,-2.2021,-2.1973,-2.1274,-2.0664,-2.0237,-1.9461,-1.8769,-1.8102,-1.5822,-1.4801,-1.4751,-1.469,-1.4509,-1.4292,0.0,0.0,0.0,0.0,0.0,0.0,0.0,0.0,0.0,-3.1384,-3.1584,-3.2184,-3.3861,-3.3935,-3.3696,-3.3477,-3.2851,-3.2274,0.0,0.0,-3.2644,-3.2676,-3.4173,-3.4769,-3.4139,-3.4936,-3.4861,-3.404,-3.3645,-3.3247,-3.2723,-3.2823,-3.3151,-3.3561,-3.406,-3.4129,-3.381,-3.4437,-3.3485,-3.164,-3.1808,-3.075,-2.8975,-2.8482,-2.8146,-2.7879,-2.7343,-2.7398,-2.7563,-2.6664,-2.6518,-2.6536,-2.5472,0.0,0.0,0.0,0.0,0.0,0.0,0.0,0.0,0.0,0.0,0.0,0.0,0.0,0.0,0.0,0.0,0.0,0.0,0.0,0.0,-2.0702,-2.0877,-2.1147,-2.1767,-2.21,-2.2291,-2.2291,-2.2656,-2.2863,-2.272,-2.2513,-2.2323,-2.2196,-2.1989,-2.183,-2.1767,-2.1814,-2.1703,-2.1354,-2.1608,-2.1624,-2.1354,-2.1624,-2.1624,-2.1354,0.0,0.0,-2.1878,-2.2227,-2.2386,-2.2339,-2.1655,-2.0576,-1.9451,-1.8072,-1.6649,-1.5248,-1.598,-1.5719,-1.498,-1.4545,-1.434,-1.4292,0.0,0.0,0.0,0.0,0.0,0.0,0.0,0.0,0.0,0.0,-3.0706,-3.1121,-3.2707,-3.2575,-3.248,-3.2491,-3.2226,0.0,0.0,-3.2293,-3.3031,-3.3226,-3.4293,-3.4614,-3.431,-3.4871,-3.4769,-3.3902,-3.3902,-3.38,-3.3572,-3.3902,-3.4142,-3.4418,-3.4958,-3.4932,-3.4553,-3.4536,-3.3652,-3.2207,-3.1592,-3.0432,-2.8861,-2.857,-2.8307,-2.8077,-2.8077,-2.8223,-2.8333,-2.793,-2.7783,-2.7673,-2.7068,-2.6188,-2.5124,0.0,0.0,0.0,0.0,0.0,0.0,0.0,0.0,0.0,0.0,0.0,0.0,0.0,0.0,-2.0178,0.0,0.0,-2.0829,-2.1354,-2.1592,-2.183,-2.218,-2.2529,-2.2688,-2.2513,-2.2799,-2.2942,-2.2768,-2.2593,-2.2418,-2.2227,-2.2227,-2.2148,-2.1973,-2.2132,-2.2069,-2.1719,-2.1878,-2.1957,-2.1973,-2.1957,-2.1957,-2.1973,-2.1957,-2.1957,-2.1957,-2.2148,-2.2323,-2.245,-2.1751,-2.0732,-1.9445,-1.7581,-1.6128,-1.5152,-1.5777,-1.5428,-1.4702,-1.4702,-1.4533,-1.4316,0.0,0.0,0.0,0.0,0.0,0.0,0.0,0.0,0.0,0.0,-2.9748,-3.0067,-3.1553,-3.1294,-3.1134,0.0,0.0,0.0,0.0,-3.2206,-3.311,-3.3935,-3.4188,-3.4337,-3.4553,-3.4644,-3.4411,-3.3816,-3.4133,-3.432,-3.432,-3.4993,-3.5248,-3.505,-3.5653,-3.5436,-3.4687,-3.4604,-3.3685,-3.2174,-3.1496,-3.0372,-2.9186,-2.8997,-2.851,-2.804,-2.8297,-2.8388,-2.8443,-2.8755,-2.8663,-2.8407,-2.848,-2.7783,-2.6609,-2.4886,-2.4097,0.0,0.0,0.0,0.0,0.0,0.0,0.0,0.0,0.0,-2.0074,-2.0329,-2.05,-2.0702,-2.1052,-2.1354,-2.1655,-2.2005,-2.2307,-2.2513,-2.2577,-2.2831,-2.2911,-2.2625,-2.2847,-2.2911,-2.2625,-2.2593,-2.2466,-2.218,-2.2434,-2.2466,-2.218,-2.2434,-2.2418,-2.2069,-2.2132,-2.2259,-2.2482,-2.2339,-2.2339,-2.2482,-2.2259,-2.2084,-2.1957,-2.1957,-2.2116,-2.2339,-2.1321,-2.03,-1.9258,-1.712,-1.5949,-1.555,-1.5319,-1.4917,-1.4352,-1.4847,-1.4751,-1.4425,0.0,0.0,0.0,0.0,0.0,0.0,0.0,0.0,0.0,0.0,0.0,0.0,0.0,0.0,0.0,0.0,0.0,0.0,-3.1632,-3.3025,-3.3922,-3.4004,-3.4877,-3.4964,-3.405,-3.4088,-3.3959,-3.3325,-3.2899,-3.2706,-3.2813,-3.3688,-3.3848,-3.3267,-3.4053,-3.3415,-3.1822,-3.317,-3.2506,-3.0773,-3.1035,-3.0683,-2.9851,-2.9186,-2.8883,-2.881,-2.8498,-2.8388,-2.8407,-2.8443,-2.8425,-2.8462,-2.881,-2.859,-2.7801,-2.5821,0.0,-2.4115,-2.1695,-2.1071,-2.1273,-2.1861,-2.2062,-2.2206,0.0,0.0,-2.1708,-2.1956,-2.1619,-2.1433,-2.1783,-2.1878,-2.2021,-2.237,-2.2466,-2.2593,-2.2911,-2.299,-2.3006,-2.2958,-2.299,-2.3006,-2.2958,-2.2958,-2.2942,-2.2895,-2.2927,-2.2942,-2.2895,-2.2942,-2.2799,-2.2434,-2.2736,-2.2768,-2.2498,-2.307,-2.307,-2.2498,-2.2768,-2.2561,-2.1957,-2.1957,-2.1973,-2.1973,-1.979,-1.8594,-1.8034,-1.5793,-1.4887,-1.4813,-1.4777,-1.4619,-1.434,-1.4642,-1.4727,-1.4702,0.0,0.0,0.0,0.0,0.0,0.0,0.0,0.0,0.0,0.0,0.0,0.0,0.0,0.0,0.0,0.0,0.0,0.0,-3.0804,-3.2506,-3.3524,-3.3481,-3.4493,-3.4814,-3.4251,-3.4076,-3.3723,-3.3176,-3.2692,-3.2931,-3.3828,-3.4108,-3.4367,-3.4561,-3.4311,-3.3612,-3.2532,-3.2492,-3.1899,-3.1111,-3.08,-3.0344,-2.9786,-2.926,-2.8847,-2.8553,-2.7911,-2.7691,0.0,0.0,-2.7343,-2.7453,-2.8077,-2.7838,-2.7031,-2.5491,-2.4739,0.0,-2.2282,-2.1988,-2.2208,0.0,-2.2685,-2.2971,-2.2993,-2.2681,-2.249,-2.274,-2.2452,-2.229,-2.2754,-2.2654,-2.2625,0.0,-2.2799,-2.2847,-2.299,-2.3197,-2.3324,-2.3324,-2.3499,-2.3467,-2.3054,-2.3022,-2.3022,-2.3022,-2.3022,-2.3022,-2.3022,-2.3022,-2.2942,-2.2799,-2.2942,-2.3038,-2.3101,-2.3197,-2.3197,-2.3101,-2.2831,-2.245,-2.1957,-2.1324,-2.059,-1.9849,-1.8415,-1.7509,-1.6948,-1.5357,-1.4714,-1.4714,-1.4714,-1.4642,-1.4594,-1.5016,-1.498,-1.4775,0.0,0.0,0.0,0.0,0.0,0.0,0.0,0.0,0.0,0.0,0.0,0.0,0.0,0.0,0.0,0.0,0.0,0.0,0.0,-3.1448,-3.2493,-3.292,-3.3399,-3.3658,-3.3706,-3.3359,-3.2945,-3.2506,-3.2273,-3.271,-3.3843,-3.4177,-3.4463,-3.4719,-3.4226,-3.3534,-3.2593,-3.1623,-3.1332,-3.1304,-3.0488,-3.002,-2.9709,-2.9305,-2.87,-2.7948,-2.7141,-2.6848,0.0,0.0,-2.6096,-2.6206,-2.6885,-2.6719,-2.6023,-2.4794,-2.3987,-2.3308,-2.2538,-2.2557,0.0,-2.2685,-2.3107,-2.3505,-2.3332,-2.3188,-2.3067,-2.3203,-2.314,-2.2954,-2.3108,-2.3118,-2.3022,-2.3022,-2.3022,-2.3022,-2.3022,-2.3324,-2.3546,-2.3546,-2.3848,-2.3816,-2.3213,-2.3165,-2.3117,-2.3022,-2.3022,-2.3022,-2.3022,-2.3022,-2.3022,-2.3022,-2.3022,-2.3133,-2.3387,-2.3244,-2.3244,-2.3387,-2.2879,-2.234,-2.1759,-2.036,-1.9247,-1.8318,-1.7582,-1.7016,-1.6521,-1.5444,-1.4932,-1.492,-1.4859,-1.4871,-1.498,-1.5354,-1.5209,-1.4896,0.0,0.0,0.0,0.0,0.0,0.0,0.0,0.0,0.0,0.0,0.0,0.0,0.0,0.0,0.0,0.0,0.0,0.0,0.0,-2.9905,-3.0639,-3.2427,-3.1733,-3.1398,-3.1862,-3.1348,-3.1107,-3.1107,-3.1392,-3.1604,-3.1725,-3.3513,-3.3534,-3.2109,-3.2815,-3.2211,-3.0803,-3.0451,-3.0424,-3.0736,-3.0351,-3.0185,-3.013,-2.9709,-2.859,-2.7105,-2.6298,0.0,0.0,0.0,-2.4831,-2.4904,-2.5307,-2.5436,0.0,-2.3932,-2.274,0.0,0.0,0.0,-2.2538,-2.3308,-2.3529,-2.3749,-2.4556,-2.4314,-2.3806,-2.3668,-2.3527,-2.325,-2.2592,-2.2784,-2.3022,-2.3022,-2.3022,-2.3022,-2.3022,-2.3324,-2.3546,-2.3546,-2.3848,-2.3912,0.0,-2.353,-2.3387,-2.3038,-2.3022,-2.3022,-2.3022,-2.3022,-2.3022,-2.3022,-2.3022,-2.3022,-2.3038,-2.3356,-2.3356,-2.3038,-2.3006,-2.2367,-2.1122,-1.9585,-1.8702,-1.8318,-1.7569,-1.7239,-1.7095,-1.5989,-1.5475,-1.5451,-1.5197,-1.5246,-1.5475,-1.5487,-1.533,-1.5137,0.0,0.0,0.0,0.0,0.0,0.0,0.0,0.0,0.0,0.0,0.0,0.0,0.0,0.0,0.0,0.0,0.0,0.0,0.0,-2.9343,-2.9989,-3.0557,-3.0642,-3.0862,-3.1284,-3.0527,-3.0296,-3.0584,-3.0709,-3.103,-3.1642,-3.2572,-3.2969,-3.2988,-3.2719,-3.2237,-3.15,-3.1119,-3.1047,-3.1139,-3.0754,-3.0442,-3.0039,-2.8553,-2.749,-2.6536,0.0,0.0,0.0,0.0,0.0,0.0,-2.4354,0.0,0.0,-2.263,0.0,0.0,0.0,0.0,-2.2868,-2.3419,-2.3749,-2.4024,-2.4299,-2.4152,-2.3874,-2.379,-2.3385,-2.2905,-2.2781,-2.2846,-2.2942,-2.2704,-2.3054,-2.3276,-2.3054,-2.3324,-2.3626,-2.3848,-2.4182,0.0,0.0,0.0,0.0,-2.3054,-2.3228,-2.326,-2.3022,-2.3022,-2.3022,-2.3022,-2.3022,-2.3022,-2.3022,-2.3133,-2.3133,-2.3006,-2.2784,-2.1693,-2.0039,-1.9269,-1.8063,-1.6736,-1.6418,-1.6212,-1.6039,-1.564,-1.5596,-1.5728,-1.5475,-1.5632,-1.5994,-1.5825,-1.5813,-1.5873,0.0,0.0,0.0,0.0,0.0,0.0,0.0,0.0,0.0,0.0,0.0,0.0,0.0,0.0,0.0,0.0,0.0,0.0,0.0,0.0,-2.8276,-2.8773,-2.86,-2.8613,-2.9023,-2.8646,-2.852,-2.8804,-2.9201,-2.9758,-3.0509,-3.1361,-3.196,-3.2469,-3.2093,-3.1809,-3.1686,-3.1156,-3.0791,-3.0497,-3.0094,-2.9434,-2.8535,-2.7233,-2.6224,0.0,0.0,0.0,0.0,0.0,0.0,0.0,0.0,0.0,0.0,0.0,0.0,0.0,0.0,-2.285,-2.3253,-2.3657,-2.4079,-2.4409,-2.4556,-2.4386,-2.4085,-2.4018,-2.3283,-2.256,-2.2585,-2.265,-2.2561,-2.2339,-2.2784,-2.3133,-2.3022,-2.3213,-2.353,-2.3991,-2.4261,-2.4388,0.0,0.0,0.0,-2.3244,-2.3419,-2.3451,-2.3213,-2.3085,-2.307,-2.3197,-2.3085,-2.3022,-2.3022,-2.3022,-2.3022,-2.3006,-2.2432,-2.1471,-2.0039,-1.9495,-1.8374,-1.6705,-1.6605,-1.6304,-1.5922,-1.5825,-1.5934,-1.6163,-1.5994,-1.6187,-1.6537,-1.6272,-1.6344,-1.6513,0.0,0.0,0.0,0.0,0.0,0.0,0.0,0.0,0.0,0.0,0.0,0.0,0.0,0.0,0.0,0.0,0.0,0.0,0.0,0.0,0.0,-2.6881,-2.549,-2.4904,-2.5307,-2.5674,-2.5876,-2.5894,-2.7086,-2.7875,-2.8297,-2.978,-3.0483,-3.0493,-3.086,-3.1087,-3.1071,-3.0309,-2.9562,-2.8828,-2.8425,-2.7343,-2.5949,-2.5858,0.0,0.0,0.0,0.0,0.0,0.0,0.0,0.0,0.0,0.0,0.0,0.0,0.0,-2.2428,-2.2868,-2.3158,-2.3657,-2.4079,-2.4482,-2.4886,-2.5252,-2.4945,-2.4545,-2.4291,-2.3157,-2.2248,0.0,0.0,-2.1973,-2.2065,-2.2307,-2.2672,-2.2974,-2.3022,-2.326,0.0,0.0,0.0,0.0,0.0,0.0,-2.3626,0.0,-2.3578,-2.3578,-2.3228,-2.3197,-2.353,-2.3213,-2.3038,-2.3038,-2.3038,-2.3038,-2.3006,-2.2085,-2.1451,-2.1137,-2.0243,-1.9166,-1.7994,-1.7707,-1.7308,-1.6658,-1.6392,-1.6441,-1.6706,-1.6706,-1.6875,-1.708,-1.6815,-1.6887,-1.7032,0.0,0.0,0.0,0.0,0.0,0.0,0.0,0.0,0.0,0.0,0.0,0.0,0.0,0.0,0.0,0.0,0.0,0.0,0.0,0.0,0.0,0.0,0.0,0.0,0.0,0.0,0.0,0.0,-2.5986,-2.6481,-2.6591,-2.777,-2.807,-2.794,-2.8388,-2.8557,-2.8333,-2.7883,-2.7604,-2.7382,0.0,-2.6334,-2.5821,0.0,0.0,0.0,0.0,0.0,0.0,0.0,0.0,0.0,0.0,0.0,-2.186,0.0,0.0,-2.2483,-2.3198,-2.3474,-2.3712,-2.4445,-2.4702,-2.4812,-2.4904,-2.4981,-2.4668,-2.3384,-2.2622,-2.2225,0.0,0.0,0.0,-2.2559,-2.3247,0.0,-2.307,-2.3022,0.0,-2.3626,0.0,-2.415,-2.442,-2.469,0.0,0.0,-2.407,-2.3927,-2.3927,-2.3594,-2.3451,-2.3546,-2.3451,-2.3403,-2.3403,-2.3403,-2.3276,-2.3006,-2.2085,-2.1112,-2.0243,-1.9231,-1.8181,-1.7005,-1.6722,-1.6539,-1.638,-1.6308,-1.6441,-1.6706,-1.6706,-1.6984,-1.7358,-1.7092,-1.7153,-1.7358,0.0,0.0,0.0,0.0,0.0,0.0,0.0,0.0,0.0,0.0,0.0,0.0,0.0,0.0,0.0,0.0,0.0,0.0,0.0,0.0,0.0,0.0,0.0,0.0,0.0,0.0,0.0,0.0,0.0,0.0,-2.4647,-2.5647,-2.6124,-2.6206,-2.6692,-2.6767,-2.6574,-2.6361,0.0,0.0,0.0,0.0,0.0,0.0,0.0,0.0,0.0,0.0,0.0,0.0,0.0,-2.2061,-2.2465,-2.2447,-2.2355,-2.272,0.0,-2.296,-2.3419,-2.3675,-2.3969,-2.4629,-2.4776,-2.4776,-2.4776,-2.436,-2.3773,-2.3114,-2.2059,0.0,-2.1511,-2.1886,-2.216,0.0,0.0,0.0,-2.307,-2.3022,-2.3197,0.0,-2.3673,0.0,-2.4515,-2.4484,-2.4531,0.0,-2.4484,-2.4293,-2.4293,-2.3959,-2.3832,-2.3991,-2.3848,-2.3769,-2.3769,-2.3262,-2.2859,-2.2658,-2.1591,-2.0744,-2.0004,-1.9571,-1.8722,-1.7541,-1.7503,-1.7191,-1.6634,-1.6634,-1.6791,-1.7044,-1.7044,-1.7225,-1.7467,-1.7322,-1.7358,-1.7479,0.0,0.0,0.0,0.0,0.0,0.0,0.0,0.0,0.0,0.0,0.0,0.0,0.0,0.0,0.0,0.0,0.0,0.0,0.0,0.0,0.0,0.0,0.0,0.0,0.0,0.0,0.0,0.0,0.0,0.0,0.0,0.0,0.0,0.0,0.0,0.0,0.0,0.0,0.0,0.0,0.0,0.0,0.0,0.0,0.0,0.0,0.0,0.0,0.0,0.0,-2.2667,-2.2502,-2.296,-2.2939,-2.2884,-2.3088,-2.3327,-2.3547,-2.3602,-2.3932,-2.4317,-2.4684,-2.4867,-2.4904,-2.4637,-2.3693,-2.2924,-2.298,0.0,-2.0355,-2.0949,-2.1311,-2.1436,-2.1194,0.0,-2.3022,-2.3022,-2.3022,-2.3244,-2.3848,-2.3467,-2.3514,-2.442,-2.4055,-2.4134,-2.504,-2.4817,-2.4658,-2.4658,-2.4309,-2.4261,-2.4579,-2.4277,-2.4118,-2.4,-2.2879,-2.2214,-2.2007,-2.08,-2.0197,-2.0169,-2.0186,-1.9555,-1.8415,-1.8648,-1.8134,-1.7092,-1.7129,-1.7261,-1.743,-1.7467,-1.7479,-1.7479,-1.7479,-1.7479,-1.7479,0.0,0.0,0.0,0.0,0.0,0.0,0.0,0.0,0.0,0.0,0.0,0.0,0.0,0.0,0.0,0.0,0.0,0.0,0.0,0.0,0.0,0.0,0.0,0.0,0.0,0.0,0.0,0.0,0.0,0.0,0.0,0.0,0.0,0.0,0.0,0.0,0.0,0.0,0.0,0.0,0.0,0.0,0.0,0.0,0.0,0.0,0.0,0.0,0.0,0.0,-2.2612,-2.2978,-2.3712,-2.3492,-2.3088,-2.3749,-2.3749,-2.362,-2.395,-2.4354,-2.4684,-2.4757,-2.5271,-2.5386,-2.3978,-2.399,0.0,0.0,-2.0948,-2.0679,-2.0891,-2.0983,-2.1226,-2.1931,-2.2618,-2.3022,-2.3022,-2.3022,-2.3054,0.0,-2.3594,-2.3943,-2.4134,-2.4563,0.0,0.0,-2.5056,-2.5024,-2.5024,-2.469,-2.4515,-2.4579,-2.4515,-2.4123,-2.3263,-2.3097,-2.2303,-2.0836,-1.9956,-1.9338,-1.9113,-1.8349,-1.7843,-1.7652,-1.7689,0.0,-1.7105,-1.7322,-1.731,-1.7177,-1.7394,-1.7479,-1.7479,-1.7479,-1.7479,-1.7479,0.0,0.0,0.0,0.0,0.0,0.0,0.0,0.0,0.0,0.0,0.0,0.0,0.0,0.0,0.0,0.0,0.0,0.0,0.0,0.0,0.0,0.0,0.0,0.0,0.0,0.0,0.0,0.0,0.0,0.0,0.0,0.0,0.0,0.0,0.0,0.0,0.0,0.0,0.0,0.0,0.0,0.0,0.0,0.0,0.0,0.0,0.0,0.0,0.0,0.0,-2.2795,-2.2921,-2.34,-2.3547,-2.362,-2.3785,-2.384,-2.395,-2.4372,-2.4629,-2.4886,-2.5289,-2.5527,-2.5277,-2.377,0.0,0.0,0.0,-2.0332,-2.0212,-2.0214,-2.0605,0.0,-2.1285,-2.2301,-2.2942,-2.2768,-2.3213,-2.3562,-2.3562,-2.3848,-2.4198,-2.4563,-2.4738,-2.4913,-2.5103,-2.5103,-2.5103,-2.5103,-2.4944,-2.4849,-2.4849,-2.4849,-2.4361,-2.3365,-2.2696,-2.1718,-2.0348,-1.9202,-1.852,-1.8395,-1.7921,-1.7539,-1.7298,-1.7563,-1.7539,-1.7298,-1.743,-1.7575,-1.7708,-1.7539,-1.7563,-1.7672,-1.7527,-1.7479,-1.7479,0.0,0.0,0.0,0.0,0.0,0.0,0.0,0.0,0.0,0.0,0.0,0.0,0.0,0.0,0.0,0.0,0.0,0.0,0.0,0.0,0.0,0.0,0.0,0.0,0.0,0.0,0.0,0.0,0.0,0.0,0.0,0.0,0.0,0.0,0.0,0.0,0.0,0.0,0.0,0.0,0.0,0.0,0.0,0.0,0.0,0.0,0.0,0.0,0.0,0.0,-2.2272,-2.212,-2.2049,-2.2907,-2.395,-2.3639,-2.3895,-2.4354,-2.4684,-2.4904,-2.5161,-2.5693,-2.5624,-2.5032,-2.3462,-2.2559,0.0,0.0,-1.9654,-1.9487,-1.957,0.0,-2.0735,0.0,-2.1735,-2.2656,-2.2609,-2.3308,-2.388,0.0,-2.4118,0.0,-2.4944,-2.4817,0.0,-2.5087,-2.5103,-2.5103,-2.5103,-2.5103,-2.5103,-2.5103,-2.4857,-2.4363,-2.323,-2.21,-2.0956,-1.9897,-1.8557,-1.7937,-1.7865,-1.7817,-1.7563,-1.7201,-1.7672,-1.772,-1.7491,-1.7612,-1.7877,-1.8167,-1.7805,-1.7781,-1.7937,-1.7732,-1.766,-1.766,0.0,0.0,0.0,0.0,0.0,0.0,0.0,0.0,0.0,0.0,0.0,0.0,0.0,0.0,0.0,0.0,0.0,0.0,0.0,0.0,0.0,0.0,0.0,0.0,0.0,0.0,0.0,0.0,0.0,0.0,0.0,0.0,0.0,0.0,0.0,0.0,0.0,0.0,0.0,0.0,0.0,0.0,0.0,0.0,0.0,0.0,0.0,0.0,0.0,0.0,0.0,-1.9665,-1.9265,-2.1208,-2.3602,-2.3547,0.0,0.0,-2.4776,-2.5307,-2.5784,-2.5491,-2.5522,-2.5094,-2.2733,0.0,0.0,-1.9301,-1.892,-1.9015,-1.9351,0.0,0.0,0.0,0.0,-2.191,-2.2831,-2.3054,-2.334,-2.3975,0.0,0.0,-2.4627,-2.4881,-2.5071,-2.5103,-2.5103,-2.5103,-2.5103,-2.5103,-2.5103,-2.5103,-2.4224,-2.323,-2.223,-2.1182,-2.0042,-1.8799,-1.8396,-1.8118,-1.7865,-1.7624,-1.7491,-1.7467,-1.7744,-1.772,0.0,-1.801,-1.8094,-1.7937,-1.8143,-1.8239,-1.8251,-1.8227,-1.8215,-1.8215,0.0,0.0,0.0,0.0,0.0,0.0,0.0,0.0,0.0,0.0,0.0,0.0,0.0,0.0,0.0,0.0,0.0,0.0,0.0,0.0,0.0,0.0,0.0,0.0,0.0,0.0,0.0,0.0,0.0,0.0,0.0,0.0,0.0,0.0,0.0,0.0,0.0,0.0,0.0,0.0,0.0,0.0,0.0,0.0,0.0,0.0,0.0,0.0,0.0,0.0,0.0,0.0,-1.8827,-1.9882,0.0,0.0,-2.1844,-2.2741,-2.3825,-2.4562,-2.4878,-2.4733,-2.452,-2.3662,-2.1011,0.0,-2.0069,-1.8457,-1.8442,-1.8939,-1.9304,-1.9638,0.0,0.0,0.0,0.0,-2.2021,-2.2434,-2.2958,-2.3657,-2.4055,0.0,0.0,0.0,-2.4857,-2.4239,-2.4239,-2.3991,-2.3355,-2.3852,-2.3852,-2.3355,-2.2856,-2.223,-2.1222,-2.1014,-2.0195,-1.8915,-1.8819,-1.8625,-1.8348,-1.8094,-1.7877,-1.772,-1.7829,-1.7817,0.0,-1.795,-1.8167,-1.836,-1.8312,-1.8396,-1.8505,-1.8348,-1.83,-1.83,0.0,0.0,0.0,0.0,0.0,0.0,0.0,0.0,0.0,0.0,0.0,0.0,0.0,0.0,0.0,0.0,0.0,0.0,0.0,0.0,0.0,0.0,0.0,0.0,0.0,0.0,0.0,0.0,0.0,0.0,0.0,0.0,0.0,0.0,0.0,0.0,0.0,0.0,0.0,0.0,0.0,0.0,0.0,0.0,0.0,0.0,0.0,0.0,0.0,0.0,0.0,0.0,0.0,0.0,0.0,0.0,-2.0305,-2.1235,-2.2573,-2.3245,-2.3525,-2.3661,-2.3157,-2.206,0.0,0.0,-1.8897,-1.7581,-1.7943,-1.8548,-1.9081,-1.9295,0.0,0.0,0.0,-2.0665,-2.1277,-2.1651,-2.2434,-2.3578,0.0,-2.4182,0.0,-2.4794,-2.4239,-2.323,-2.3106,-2.2731,-2.1727,-2.2355,-2.248,-2.2104,-2.1853,-2.1389,-2.0706,-2.0657,-2.019,-1.9314,-1.9157,-1.8976,-1.8794,-1.8444,-1.8143,-1.7877,-1.7877,-1.7829,0.0,-1.7925,-1.8227,-1.8565,-1.8541,-1.8638,-1.8782,-1.8589,-1.8529,-1.8529,0.0,0.0,0.0,0.0,0.0,0.0,0.0,0.0,0.0,0.0,0.0,0.0,0.0,0.0,0.0,0.0,0.0,0.0,0.0,0.0,0.0,0.0,0.0,0.0,0.0,0.0,0.0,0.0,0.0,0.0,0.0,0.0,0.0,0.0,0.0,0.0,0.0,0.0,0.0,0.0,0.0,0.0,0.0,0.0,0.0,0.0,0.0,0.0,0.0,0.0,0.0,0.0,0.0,0.0,0.0,0.0,-2.019,-2.0965,-2.0965,-2.148,-2.2024,-2.2024,-2.1332,-2.0509,0.0,0.0,0.0,-1.684,-1.7064,-1.7683,-1.8572,-1.8239,-1.8366,-1.9509,-1.8945,0.0,-2.0988,-2.0963,-2.1582,0.0,0.0,-2.3816,-2.4515,-2.404,-2.323,-2.223,-2.2104,0.0,-2.0703,-2.0576,-2.1082,-2.2104,-2.1082,-2.0719,-2.1019,-1.998,-1.9603,-1.9869,-1.9326,-1.9072,-1.9048,-1.8529,-1.8143,-1.7877,-1.7877,-1.7732,0.0,-1.807,-1.83,-1.8348,-1.8867,-1.9072,-1.9072,-1.9072,-1.9072,-1.9072,0.0,0.0,0.0,0.0,0.0,0.0,0.0,0.0,0.0,0.0,0.0,0.0,0.0,0.0,0.0,0.0,0.0,0.0,0.0,0.0,0.0,0.0,0.0,0.0,0.0,0.0,0.0,0.0,0.0,0.0,0.0,0.0,0.0,0.0,0.0,0.0,0.0,0.0,0.0,0.0,0.0,0.0,0.0,0.0,0.0,0.0,0.0,0.0,0.0,0.0,0.0,0.0,0.0,0.0,0.0,0.0,0.0,0.0,-1.9049,-1.9633,-1.9975,-1.9971,-1.9362,-1.8318,-1.7016,0.0,0.0,-1.6056,-1.6648,-1.7302,-1.8038,-1.7992,-1.8058,-1.8679,-1.8696,0.0,0.0,0.0,0.0,-2.1584,-2.218,-2.2602,0.0,0.0,-2.2104,-2.1209,-2.1082,-2.0589,-1.9571,-1.9571,-1.9699,-2.0094,-1.9699,-1.9708,-1.998,-1.9601,-1.9507,-1.9603,-1.9422,-1.9253,-1.9072,-1.8903,-1.8686,-1.8432,-1.8432,-1.8275,-1.8046,-1.8227,-1.83,-1.8336,-1.8674,-1.8807,-1.8831,-1.9012,-1.9072,-1.9072,0.0,0.0,0.0,0.0,0.0,0.0,0.0,0.0,0.0,0.0,0.0,0.0,0.0,0.0,0.0,0.0,0.0,0.0,0.0,0.0,0.0,0.0,0.0,0.0,0.0,0.0,0.0,0.0,0.0,0.0,0.0,0.0,0.0,0.0,0.0,0.0,0.0,0.0,0.0,0.0,0.0,0.0,-1.8796,0.0,0.0,0.0,0.0,0.0,0.0,0.0,0.0,0.0,0.0,0.0,0.0,0.0,0.0,0.0,0.0,-1.7875,-1.8101,-1.8176,-1.7714,0.0,0.0,0.0,0.0,0.0,0.0,0.0,-1.7395,-1.7324,-1.7355,-1.7857,-1.7835,-1.7916,0.0,0.0,0.0,-2.0386,0.0,0.0,0.0,-2.1407,-2.1096,-2.0081,-2.0081,-1.9699,-1.9072,-1.9072,-1.9072,-1.9072,-1.9072,-1.9205,-1.9458,-1.947,-1.9519,-1.9627,-1.9519,-1.9386,-1.9217,-1.912,-1.8927,-1.8674,-1.8577,-1.8444,0.0,-1.83,-1.8348,-1.8469,-1.8734,-1.8831,-1.8855,-1.9012,-1.9072,-1.9072,0.0,0.0,0.0,0.0,0.0,0.0,0.0,0.0,0.0,0.0,0.0,0.0,0.0,0.0,0.0,0.0,0.0,0.0,0.0,0.0,0.0,0.0,0.0,0.0,0.0,0.0,0.0,-2.1731,-2.1731,-2.1731,-2.1731,0.0,0.0,0.0,0.0,0.0,0.0,0.0,0.0,0.0,0.0,0.0,0.0,0.0,0.0,0.0,0.0,0.0,0.0,0.0,0.0,0.0,0.0,0.0,0.0,0.0,0.0,0.0,0.0,0.0,0.0,0.0,0.0,0.0,0.0,0.0,0.0,0.0,0.0,0.0,0.0,-1.6256,-1.6217,-1.6961,-1.6455,-1.6439,0.0,-1.7974,0.0,0.0,-2.0942,0.0,-2.0047,-2.0294,-2.0081,-1.92,-1.9072,-1.9072,-1.9072,-1.9072,-1.9072,-1.9072,-1.9072,-1.9205,-1.9458,-1.9446,-1.9579,-1.9857,-1.9567,-1.9434,-1.9434,-1.9181,-1.8939,0.0,-1.8456,-1.8348,-1.8348,-1.8336,-1.8469,-1.871,-1.8951,-1.9048,-1.9048,-1.9072,-1.9072,-1.9072,0.0,0.0,0.0,0.0,0.0,0.0,0.0,0.0,0.0,0.0,0.0,0.0,0.0,0.0,0.0,0.0,0.0,0.0,0.0,0.0,0.0,0.0,0.0,0.0,0.0,0.0,0.0,-2.1731,-2.1731,-2.1731,-2.1642,-2.0997,0.0,0.0,0.0,0.0,0.0,0.0,0.0,0.0,0.0,0.0,0.0,0.0,0.0,0.0,-1.5724,-1.5547,0.0,0.0,0.0,0.0,0.0,0.0,0.0,0.0,-1.4449,0.0,0.0,0.0,0.0,0.0,0.0,0.0,0.0,0.0,0.0,0.0,0.0,0.0,0.0,0.0,-1.6065,-1.6392,-1.649,-1.666,-1.7005,0.0,0.0,-1.9063,-1.9399,-1.9524,-1.9074,-1.9296,-1.9328,-1.9072,-1.9072,-1.9072,-1.9072,-1.9072,-1.9072,-1.9072,-1.9072,-1.9205,-1.9458,-1.9265,-1.9301,-1.9567,-1.9289,-1.9169,-1.9169,-1.9108,-1.9048,-1.8976,-1.8915,-1.8891,-1.8879,-1.8674,-1.8625,-1.8686,-1.8758,-1.877,-1.8807,-1.9,-1.9072,-1.9072,0.0,0.0,0.0,0.0,0.0,0.0,0.0,0.0,0.0,0.0,0.0,0.0,0.0,0.0,0.0,0.0,0.0,0.0,0.0,0.0,0.0,0.0,0.0,0.0,0.0,0.0,0.0,0.0,0.0,-2.1087,0.0,0.0,0.0,0.0,0.0,0.0,0.0,0.0,0.0,0.0,0.0,0.0,0.0,0.0,0.0,0.0,-1.5547,-1.5356,0.0,-1.4783,-1.4592,-1.4496,0.0,0.0,0.0,0.0,-1.4497,0.0,0.0,0.0,0.0,0.0,0.0,0.0,0.0,0.0,0.0,0.0,0.0,0.0,0.0,0.0,0.0,0.0,-1.6525,0.0,0.0,0.0,-1.8251,-1.8638,-1.8807,-1.8891,0.0,-1.8988,-1.9072,-1.9072,-1.9072,-1.9072,-1.9072,-1.9072,-1.9072,-1.9072,-1.9072,-1.9145,-1.9289,-1.9145,-1.9145,-1.9289,-1.9145,-1.9072,-1.9072,-1.9072,-1.9072,-1.9072,-1.8951,-1.8963,-1.906,-1.8794,-1.8758,-1.8867,-1.8867,-1.8867,-1.8879,-1.9024,-1.9072,-1.9072,0.0,0.0,0.0,0.0,0.0,0.0,0.0,0.0,0.0,0.0,0.0,0.0,0.0,0.0,0.0,0.0,0.0,0.0,0.0,0.0,0.0,0.0,0.0,0.0,0.0,0.0,0.0,0.0,0.0,0.0,0.0,0.0,-1.8519,0.0,0.0,0.0,0.0,0.0,0.0,0.0,-1.5832,0.0,0.0,0.0,0.0,0.0,0.0,0.0,0.0,-1.4688,-1.4496,-1.4292,-1.4292,0.0,0.0,0.0,0.0,0.0,0.0,0.0,0.0,0.0,0.0,0.0,0.0,0.0,0.0,0.0,0.0,0.0,0.0,-1.6163,0.0,0.0,0.0,0.0,-1.7587,-1.7853,-1.8167,-1.8625,-1.8722,0.0,-1.9,-1.9048,-1.9072,-1.9072,-1.9072,-1.9072,-1.9072,-1.9072,-1.9072,-1.9072,-1.9072,-1.9072,-1.9072,-1.9072,-1.9072,-1.9072,-1.9072,-1.9072,-1.9072,-1.9072,-1.9072,-1.906,-1.8843,0.0,-1.906,-1.8831,-1.8879,-1.9072,-1.9072,-1.9072,-1.9072,-1.9072,-1.9072,-1.9072,0.0,0.0,0.0,0.0,0.0,0.0,0.0,0.0,0.0,0.0,0.0,0.0,0.0,0.0,0.0,0.0,0.0,0.0,0.0,0.0,0.0,0.0,0.0,0.0,0.0,0.0,0.0,0.0,0.0,0.0,-1.898,-1.7963,-1.7044,-1.6292,0.0,-1.6021,-1.6021,-1.5832,-1.5832,-1.5832,-1.5832,0.0,0.0,0.0,0.0,0.0,0.0,0.0,0.0,-1.44,-1.4292,-1.4292,-1.4292,0.0,0.0,0.0,0.0,0.0,-1.504,-1.5463,0.0,0.0,0.0,0.0,0.0,0.0,0.0,0.0,0.0,0.0,0.0,-1.6416,-1.6429,0.0,0.0,-1.7624,0.0,0.0,-1.8589,-1.8674,0.0,-1.8951,-1.8758,-1.8951,-1.9072,-1.9072,-1.9072,-1.9072,-1.9072,-1.9072,-1.9072,-1.9072,-1.9072,-1.9072,-1.9072,-1.9072,-1.9072,-1.9072,-1.9072,-1.9072,-1.9072,-1.9072,-1.9072,-1.9072,0.0,-1.9036,-1.9072,-1.9036,-1.9036,-1.9072,-1.9072,-1.9072,-1.9072,-1.9072,-1.9072,-1.9072,0.0,0.0,0.0,0.0,0.0,0.0,0.0,0.0,0.0,0.0,0.0,0.0,0.0,0.0,0.0,0.0,0.0,0.0,0.0,0.0,0.0,0.0,0.0,0.0,0.0,0.0,0.0,0.0,0.0,-1.7963,-1.7963,-1.6951,-1.6197,-1.5832,0.0,-1.5832,-1.5832,-1.5832,-1.5737,-1.5642,0.0,0.0,0.0,0.0,0.0,0.0,0.0,0.0,0.0,0.0,-1.4292,-1.4292,-1.4292,0.0,0.0,0.0,0.0,0.0,-1.4859,-1.5173,-1.5535,0.0,0.0,0.0,0.0,0.0,0.0,0.0,0.0,0.0,0.0,0.0,-1.6948,-1.7636,0.0,-1.8046,-1.842,-1.8469,-1.8529,0.0,0.0,-1.8879,-1.8891,-1.9,-1.9072,-1.9072,-1.9072,-1.9072,-1.9072,-1.9072,-1.9072,-1.9072,-1.9072,-1.9072,-1.9072,-1.9072,-1.9072,-1.9072,-1.9072,-1.9072,-1.9072,-1.9072,-1.9072,-1.9072,0.0,-1.9072,-1.9072,-1.9072,-1.9072,-1.9072,-1.9072,-1.9072,-1.9072,-1.9072,-1.9072,-1.9072,0.0,0.0,0.0,0.0,0.0,0.0,0.0,0.0,0.0,0.0,0.0,0.0,0.0,0.0,0.0,0.0,0.0,0.0,0.0,0.0,0.0,0.0,0.0,0.0,0.0,0.0,-1.9654,-1.9737,-1.7897,-1.7065,-1.7065,-1.6238,-1.5832,-1.5832,0.0,-1.5737,-1.5737,-1.5737,-1.5642,-1.5452,0.0,0.0,0.0,0.0,0.0,0.0,0.0,0.0,0.0,0.0,0.0,0.0,0.0,0.0,0.0,0.0,-1.4302,-1.4714,-1.4714,-1.4992,-1.5366,0.0,0.0,-1.6006,-1.5982,0.0,0.0,0.0,0.0,0.0,0.0,-1.6911,0.0,-1.8179,-1.8348,-1.8408,-1.8469,-1.8481,-1.8553,-1.8758,-1.877,-1.8855,-1.906,-1.9072,-1.9072,-1.9072,-1.9072,-1.9072,-1.9072,-1.9072,-1.9072,-1.9072,-1.9072,-1.9072,-1.9072,-1.9072,-1.9072,-1.9072,-1.9072,-1.9072,-1.9072,-1.9072,-1.9072,-1.9072,-1.9072,-1.9072,-1.9072,-1.9072,-1.9072,-1.9072,-1.9072,-1.9072,-1.9072,-1.9072,-1.9072,-1.9072,0.0,0.0,0.0,0.0,0.0,0.0,0.0,0.0,0.0,0.0,0.0,0.0,0.0,0.0,0.0,0.0,0.0,0.0,0.0,0.0,0.0,0.0,0.0,0.0,0.0,-1.7963,-1.766,-1.7971,-1.6912,-1.6343,-1.633,-1.5965,-1.5832,-1.5832,0.0,-1.5737,-1.5547,-1.5547,-1.5356,-1.5083,-1.5083,0.0,0.0,0.0,0.0,0.0,0.0,0.0,0.0,0.0,0.0,0.0,0.0,0.0,0.0,0.0,-1.3705,-1.4714,-1.4714,-1.527,-1.5789,-1.5572,0.0,0.0,-1.6091,-1.6054,0.0,-1.6199,0.0,0.0,0.0,-1.7467,-1.7925,-1.8239,-1.8505,-1.8746,-1.8988,0.0,-1.9024,-1.9048,-1.9048,-1.906,-1.9072,-1.9072,-1.9072,-1.9072,-1.9072,-1.9072,-1.9072,-1.9072,-1.9072,-1.9072,-1.9072,-1.9072,-1.9072,-1.9072,-1.9072,-1.9072,-1.9072,-1.9072,-1.9072,-1.9072,-1.9072,-1.9072,-1.9072,-1.9072,-1.9072,-1.9072,-1.9072,-1.9072,-1.9072,-1.9072,-1.9072,-1.9072,-1.9072,-1.9072,0.0,0.0,0.0,0.0,0.0,0.0,0.0,0.0,0.0,0.0,0.0,0.0,0.0,0.0,0.0,0.0,0.0,0.0,0.0,0.0,0.0,0.0,0.0,-1.7963,-1.6936,-1.7138,-1.7486,-1.7808,-1.6759,-1.6273,-1.6259,-1.5965,0.0,0.0,0.0,-1.5452,-1.5261,-1.5261,-1.5083,-1.4879,-1.4879,-1.4688,0.0,0.0,0.0,0.0,0.0,0.0,0.0,0.0,0.0,0.0,0.0,0.0,0.0,0.0,-1.3482,-1.4461,-1.4461,-1.4799,-1.5209,-1.5439,0.0,0.0,0.0,0.0,0.0,0.0,-1.6754,0.0,0.0,0.0,-1.8022,-1.8469,-1.8613,-1.877,-1.9036,-1.9072,-1.9072,-1.9072,-1.9072,-1.9072,-1.9072,-1.9072,-1.9072,-1.9072,-1.9072,-1.9072,-1.9072,-1.9072,-1.9072,-1.9072,-1.9072,-1.9072,-1.9072,-1.9072,-1.9072,-1.9072,-1.9072,-1.9072,-1.9072,-1.9072,-1.9072,-1.9072,-1.9072,-1.9072,-1.9072,-1.9072,-1.9072,-1.9072,-1.9072,-1.9072,-1.9072,-1.9072,-1.9072,-1.9072,0.0,0.0,0.0,0.0,0.0,0.0,0.0,0.0,0.0,0.0,0.0,0.0,0.0,0.0,0.0,0.0,0.0,0.0,0.0,0.0,0.0,0.0,0.0,-1.6857,-1.5832,-1.648,-1.7013,-1.7341,-1.6662,-1.6326,-1.6308,0.0,0.0,0.0,0.0,-1.5261,-1.4987,-1.4987,-1.4783,-1.4592,-1.4592,-1.4496,0.0,0.0,0.0,0.0,0.0,0.0,0.0,0.0,0.0,0.0,0.0,0.0,0.0,0.0,-1.3221,-1.4316,-1.4401,-1.463,-1.4944,0.0,0.0,0.0,0.0,0.0,0.0,0.0,-1.7153,0.0,0.0,0.0,0.0,0.0,-1.8565,-1.8746,-1.8927,-1.9024,-1.9072,-1.9072,-1.9072,-1.9072,-1.9072,-1.9072,-1.9072,-1.9072,-1.9072,-1.9072,-1.9072,-1.9072,-1.9072,-1.9072,-1.9072,-1.9072,-1.9072,-1.9072,-1.9072,-1.9072,-1.9072,-1.9072,-1.9072,-1.9072,-1.9072,-1.9072,-1.9072,-1.9072,-1.9072,-1.9072,-1.9072,-1.9072,-1.9072,-1.9072,-1.9072,-1.9072,-1.9072,-1.9072,0.0,0.0,0.0,0.0,0.0,0.0,0.0,0.0,0.0,0.0,0.0,0.0,0.0,0.0,0.0,0.0,0.0,0.0,0.0,0.0,0.0,0.0,0.0,-1.6857,-1.5832,-1.5832,-1.5979,-1.6273,-1.6273,-1.6321,-1.6299,-1.5725,0.0,0.0,0.0,0.0,-1.4688,-1.4688,-1.4496,-1.4292,-1.4292,-1.4292,-1.4196,0.0,0.0,0.0,0.0,0.0,0.0,0.0,0.0,0.0,0.0,0.0,0.0,-1.117,-1.264,-1.4364,-1.4642,-1.4908,0.0,0.0,0.0,0.0,0.0,0.0,0.0,-1.7708,0.0,-1.7575,-1.7829,0.0,0.0,-1.7829,-1.8324,-1.8674,-1.8686,-1.8903,-1.9072,-1.9072,-1.9072,-1.9072,-1.9072,-1.9072,-1.9072,-1.9072,-1.9072,-1.9072,-1.9072,-1.9072,-1.9072,-1.9072,-1.9072,-1.9072,-1.9072,-1.9072,-1.9072,-1.9072,-1.9072,-1.9072,-1.9072,-1.9072,-1.9072,-1.9072,-1.9072,-1.9072,-1.9072,-1.9072,-1.9072,-1.9072,-1.9072,-1.9072,-1.9072,-1.9072,-1.9072,-1.9072,0.0,0.0,0.0,0.0,0.0,0.0,0.0,0.0,0.0,0.0,0.0,0.0,0.0,0.0,0.0,0.0,0.0,0.0,0.0,0.0,0.0,0.0,0.0,0.0,0.0,0.0,-1.5774,-1.6064,-1.5784,-1.5738,0.0,0.0,0.0,-1.4783,0.0,0.0,-1.44,-1.44,-1.4388,-1.4292,-1.4292,-1.3811,-1.3125,0.0,0.0,0.0,0.0,0.0,0.0,0.0,0.0,0.0,0.0,0.0,0.0,-1.1058,-1.2371,-1.3824,-1.4541,0.0,0.0,0.0,0.0,0.0,0.0,0.0,0.0,0.0,-1.8106,-1.8082,-1.8155,0.0,0.0,-1.8131,-1.8143,-1.8251,-1.8625,-1.8589,-1.8589,-1.8782,-1.8807,-1.8879,-1.906,-1.9072,-1.9072,-1.9072,-1.9072,-1.9072,-1.9072,-1.9072,-1.9072,-1.9072,-1.9072,-1.8988,-1.8807,-1.8988,-1.8988,-1.8807,-1.8988,-1.9072,-1.9072,-1.9072,-1.9072,-1.9072,-1.9072,-1.9072,-1.9072,-1.9072,-1.9072,-1.9072,-1.9072,-1.9072,-1.9072,-1.9072,-1.9072,-1.9072,0.0,0.0,0.0,0.0,0.0,0.0,0.0,0.0,0.0,0.0,0.0,0.0,0.0,0.0,0.0,0.0,0.0,0.0,0.0,0.0,0.0,0.0,0.0,0.0,0.0,-1.5452,-1.5447,0.0,0.0,0.0,0.0,0.0,-1.4958,-1.4667,0.0,-1.4667,-1.4461,-1.4461,-1.4401,-1.4304,-1.3916,-1.3367,-1.2681,0.0,0.0,0.0,0.0,0.0,0.0,0.0,0.0,0.0,0.0,0.0,0.0,-1.0584,-1.2001,-1.3539,-1.4207,0.0,0.0,0.0,0.0,0.0,0.0,0.0,0.0,0.0,0.0,-1.8131,-1.8131,-1.7817,0.0,-1.7925,-1.7913,-1.7986,-1.8312,-1.8324,-1.8348,-1.8517,-1.8625,-1.8746,-1.8903,-1.9012,-1.9072,-1.9072,-1.9072,-1.9072,-1.9072,-1.8976,-1.8915,-1.8915,-1.8819,-1.8746,-1.8686,-1.8734,-1.8794,-1.8843,-1.8891,-1.8976,-1.9072,-1.9072,-1.9072,-1.9072,-1.9072,-1.9072,-1.9072,-1.9072,-1.9072,-1.9072,-1.9072,-1.9072,-1.9072,-1.9072,-1.9072,-1.9072,0.0,0.0,0.0,0.0,0.0,0.0,0.0,0.0,0.0,0.0,0.0,0.0,0.0,0.0,0.0,0.0,0.0,0.0,0.0,0.0,0.0,0.0,0.0,0.0,0.0,0.0,0.0,0.0,0.0,0.0,0.0,0.0,-1.49,-1.4727,0.0,-1.4944,-1.4714,-1.469,-1.4448,-1.4063,-1.3303,-1.2904,-1.2545,-1.0793,0.0,0.0,0.0,0.0,0.0,0.0,0.0,0.0,0.0,-0.9242,-1.008,-1.0248,-1.1719,-1.3453,0.0,0.0,0.0,0.0,0.0,0.0,-1.743,0.0,-1.8179,-1.7925,0.0,-1.7901,-1.7877,-1.7479,-1.7237,-1.7479,-1.7696,-1.7853,-1.7865,-1.807,-1.8227,-1.8251,-1.8469,-1.8625,-1.865,-1.8891,-1.9024,-1.9012,-1.9024,-1.9024,-1.9012,-1.8807,-1.8686,-1.8686,-1.8456,-1.8432,-1.865,-1.8408,-1.8517,-1.8963,-1.877,-1.8807,-1.9036,-1.906,-1.9072,-1.9072,-1.9072,-1.9072,-1.9072,-1.9072,-1.9072,-1.9072,-1.9072,-1.9072,-1.9072,-1.9072,-1.9072,-1.9072,0.0,0.0,0.0,0.0,0.0,0.0,0.0,0.0,0.0,0.0,0.0,0.0,0.0,0.0,0.0,0.0,0.0,0.0,0.0,0.0,0.0,0.0,0.0,0.0,0.0,0.0,0.0,0.0,0.0,0.0,0.0,0.0,0.0,-1.4714,0.0,-1.4775,-1.4702,-1.4485,-1.3986,-1.3226,-1.3071,-1.2092,-1.0699,-1.0223,-0.9719,0.0,0.0,0.0,0.0,0.0,0.0,0.0,-0.8703,-0.8852,-0.9435,-1.095,-1.203,0.0,0.0,-1.5779,0.0,0.0,0.0,-1.7418,-1.7467,-1.7732,-1.795,-1.7889,-1.8046,-1.8131,-1.7913,-1.7781,-1.772,-1.7781,-1.766,-1.7636,-1.7841,-1.7744,-1.7732,-1.7937,-1.801,-1.8131,-1.836,-1.8613,-1.8686,-1.8481,-1.865,-1.8674,-1.8469,-1.8601,-1.8686,-1.8686,-1.8625,-1.8529,-1.8384,-1.8324,-1.8239,-1.8131,-1.8505,-1.871,-1.877,-1.8976,-1.9072,-1.9072,-1.9072,-1.9072,-1.9072,-1.9072,-1.9072,-1.9072,-1.9072,-1.9072,-1.9072,-1.9072,-1.9072,-1.9072,0.0,0.0,0.0,0.0,0.0,0.0,0.0,0.0,0.0,0.0,0.0,0.0,0.0,0.0,0.0,0.0,0.0,0.0,0.0,0.0,0.0,0.0,0.0,0.0,0.0,0.0,-1.4892,0.0,0.0,0.0,0.0,0.0,0.0,-1.4908,0.0,-1.4713,-1.407,-1.3808,-1.3172,-1.2204,-1.1798,-1.1034,-1.0168,-0.9732,-0.9233,-0.871,-0.8791,0.0,0.0,0.0,0.0,0.0,0.0,0.0,-0.9127,-1.0138,-1.0957,0.0,0.0,0.0,0.0,0.0,0.0,0.0,-1.7455,-1.7587,-1.7684,-1.7684,-1.7901,-1.801,-1.7732,-1.7684,-1.7684,-1.7684,-1.7575,-1.7527,-1.7672,-1.7563,-1.7539,-1.7672,-1.7793,-1.7925,-1.8082,-1.8336,-1.8444,-1.83,-1.842,-1.8432,-1.83,-1.83,-1.83,-1.83,-1.8179,-1.8106,-1.8094,-1.8094,-1.8155,-1.8263,-1.8553,-1.8686,-1.8698,-1.8951,-1.9012,-1.8891,-1.8891,-1.8891,-1.8891,-1.8891,-1.8963,-1.9072,-1.9072,-1.9072,-1.9072,-1.9072,-1.9072,-1.9072,0.0,0.0,0.0,0.0,0.0,0.0,0.0,0.0,0.0,0.0,0.0,0.0,0.0,0.0,0.0,0.0,0.0,0.0,0.0,0.0,0.0,0.0,0.0,0.0,0.0,-1.5178,-1.4987,0.0,0.0,0.0,0.0,0.0,0.0,-1.5113,0.0,-1.455,-1.3373,-1.2925,-1.2174,-1.1152,-1.0389,-1.0055,-0.9939,-0.9216,-0.894,-0.894,-0.894,-0.894,-0.894,-0.894,0.0,0.0,0.0,0.0,-0.894,-0.9154,0.0,0.0,0.0,0.0,0.0,0.0,-1.7286,0.0,-1.743,-1.7479,-1.7479,-1.7479,-1.766,-1.7744,-1.7527,-1.7479,-1.7479,-1.7479,-1.7479,-1.7479,-1.7479,-1.7479,-1.7479,-1.7479,-1.7672,-1.7805,-1.7805,-1.8058,-1.8203,-1.8155,-1.8191,-1.8203,-1.8155,-1.7974,-1.7877,-1.7877,-1.766,-1.766,-1.7865,-1.7877,-1.8094,-1.8541,-1.8638,-1.8686,-1.8698,-1.8951,-1.8927,-1.8686,-1.8734,-1.8758,-1.8758,-1.8758,-1.8879,-1.9072,-1.9072,-1.9072,-1.9072,-1.9072,-1.9072,-1.9072,0.0,0.0,0.0,0.0,0.0,0.0,0.0,0.0,0.0,0.0,0.0,0.0,0.0,0.0,0.0,0.0,0.0,0.0,0.0,0.0,0.0,0.0,0.0,0.0,-1.5178,-1.5083,-1.4879,0.0,0.0,0.0,0.0,0.0,0.0,-1.5113,0.0,0.0,-1.3114,-1.1993,-1.1025,-1.031,-1.0128,-0.9709,-0.9016,-0.8927,-0.894,-0.894,-0.894,-0.894,-0.894,-0.894,-0.894,0.0,0.0,0.0,-0.9154,-1.0131,0.0,0.0,0.0,0.0,0.0,0.0,-1.7286,-1.7443,0.0,0.0,-1.7479,0.0,-1.7515,-1.7527,-1.7491,-1.7479,-1.7479,-1.7479,-1.7479,-1.7479,-1.7479,-1.7479,-1.7479,-1.7479,-1.7515,-1.7539,-1.7539,-1.7781,-1.7829,-1.7612,-1.7805,-1.7829,-1.7599,-1.7768,-1.7877,-1.7877,-1.7841,-1.7841,-1.7877,-1.7877,-1.7913,-1.7986,-1.8456,-1.8686,-1.8698,-1.8951,-1.8927,-1.8698,-1.8927,-1.9024,-1.9024,-1.9024,-1.9048,-1.9072,-1.9072,-1.9072,-1.9072,-1.9072,-1.9072,-1.9072,0.0,0.0,0.0,0.0,0.0,0.0,0.0,0.0,0.0,0.0,0.0,0.0,0.0,0.0,0.0,0.0,0.0,0.0,0.0,0.0,0.0,0.0,0.0,0.0,-1.5083,-1.4987,0.0,0.0,0.0,0.0,0.0,-1.4572,-1.4378,0.0,0.0,0.0,0.0,0.0,-1.0087,-0.9212,-0.9308,-0.9169,-0.894,-0.894,-0.8988,-0.9055,-0.9055,-0.9117,-0.9171,-0.9089,-0.9055,-0.9042,-0.896,0.0,0.0,0.0,0.0,0.0,-1.2894,-1.4649,-1.5955,0.0,-1.7068,-1.7225,-1.708,0.0,-1.7443,-1.7298,-1.7382,-1.7479,-1.7479,-1.7358,-1.731,-1.7455,-1.7479,-1.7479,-1.7479,-1.7479,-1.7479,-1.7479,-1.7479,-1.7479,-1.7479,-1.7587,-1.7612,-1.7491,-1.7587,-1.7599,-1.7491,-1.7587,-1.766,-1.766,-1.766,-1.772,-1.7877,-1.7877,-1.8022,-1.8336,-1.8722,-1.8831,-1.8698,-1.8951,-1.8927,-1.8686,-1.8807,-1.8855,-1.8855,-1.8855,-1.8939,-1.9072,-1.9072,-1.9072,-1.9072,-1.9072,-1.9072,-1.9072,0.0,0.0,0.0,0.0,0.0,0.0,0.0,0.0,0.0,0.0,0.0,0.0,0.0,0.0,0.0,0.0,0.0,0.0,0.0,0.0,0.0,0.0,0.0,0.0,-1.4987,0.0,0.0,0.0,0.0,0.0,-1.4789,-1.4201,-1.3562,0.0,-1.3046,0.0,0.0,0.0,0.0,0.0,-0.871,-0.8838,-0.894,-0.894,-0.9008,-0.9103,-0.9144,-0.9225,-0.9313,-0.9239,-0.9211,-0.9184,-0.9035,-0.8994,0.0,0.0,0.0,0.0,0.0,0.0,-1.5106,-1.6357,-1.6851,-1.6948,0.0,0.0,-1.7225,0.0,-1.7153,-1.7298,-1.737,-1.7274,-1.7249,-1.7455,-1.7479,-1.7479,-1.7479,-1.7479,-1.7479,-1.7479,-1.7479,-1.7479,-1.7479,-1.7479,-1.7479,-1.7479,-1.7479,-1.7479,-1.7479,-1.7479,-1.7479,-1.7479,-1.7479,-1.7575,-1.7768,-1.7913,-1.8215,-1.8686,-1.8879,-1.8879,-1.8686,-1.8891,-1.8903,-1.8782,-1.8782,-1.8782,-1.8782,-1.8782,-1.8903,-1.9072,-1.9072,-1.9072,-1.9072,-1.9072,-1.9072,-1.9072,0.0,0.0,0.0,0.0,0.0,0.0,0.0,0.0,0.0,0.0,0.0,0.0,0.0,0.0,0.0,0.0,0.0,0.0,0.0,0.0,0.0,0.0,0.0,0.0,0.0,0.0,0.0,0.0,0.0,0.0,-1.3887,-1.4029,-1.295,-1.0866,-1.0717,-1.0527,-1.0182,0.0,0.0,0.0,0.0,0.0,0.0,0.0,-0.8947,0.0,0.0,-0.9157,-0.9184,-0.932,-0.9367,-0.934,-0.9191,0.0,0.0,0.0,0.0,0.0,0.0,-1.378,0.0,-1.6357,-1.6706,0.0,0.0,0.0,-1.6742,-1.6718,-1.673,-1.6815,-1.7068,-1.7298,-1.7467,-1.7479,-1.7479,-1.7479,-1.7479,-1.7479,-1.7479,-1.7479,-1.7479,-1.7479,-1.7479,-1.7479,-1.7479,-1.7479,-1.7479,-1.7479,-1.7479,-1.7479,-1.7479,-1.7479,-1.7479,-1.7491,-1.7503,-1.801,-1.8408,-1.8686,-1.8698,-1.8698,-1.8686,-1.8698,-1.8831,-1.906,-1.906,-1.906,-1.906,-1.906,-1.906,-1.9072,-1.9072,-1.9072,-1.9072,-1.9072,-1.9072,-1.9072,0.0,0.0,0.0,0.0,0.0,0.0,0.0,0.0,0.0,0.0,0.0,0.0,0.0,0.0,0.0,0.0,0.0,0.0,0.0,0.0,0.0,0.0,0.0,0.0,0.0,0.0,0.0,0.0,0.0,-1.4619,-1.3577,-1.3077,-1.2036,-1.085,-1.0907,-1.0366,-0.9413,-0.9277,0.0,0.0,0.0,0.0,0.0,0.0,0.0,0.0,0.0,0.0,0.0,-0.951,-0.953,0.0,0.0,0.0,0.0,0.0,0.0,0.0,0.0,0.0,0.0,-1.58,-1.6004,-1.5591,-1.6041,-1.6453,-1.6706,-1.6706,-1.6839,-1.7032,-1.7298,-1.7286,-1.7286,-1.7455,-1.7479,-1.7479,-1.7479,-1.7479,-1.7479,-1.7479,-1.7479,-1.7479,-1.7479,-1.7479,-1.7479,-1.7479,-1.7479,-1.7479,-1.7479,-1.7479,-1.7479,-1.7479,-1.7479,-1.7563,-1.7732,-1.8275,-1.8589,-1.8686,-1.8855,-1.8939,-1.8939,-1.8939,-1.8988,-1.9072,-1.9072,-1.9072,-1.9072,-1.9072,-1.9072,-1.9072,-1.9072,-1.9072,-1.9072,-1.9072,-1.9072,-1.9072,0.0,0.0,0.0,0.0,0.0,0.0,0.0,0.0,0.0,0.0,0.0,0.0,0.0,0.0,0.0,0.0,0.0,0.0,0.0,0.0,0.0,0.0,0.0,0.0,0.0,0.0,0.0,0.0,0.0,0.0,0.0,-1.1906,-1.1008,-1.0204,-1.0425,-0.9924,0.0,0.0,0.0,-0.9022,0.0,0.0,-0.9096,0.0,0.0,0.0,0.0,0.0,0.0,0.0,0.0,0.0,0.0,0.0,0.0,0.0,0.0,0.0,-1.1785,0.0,0.0,0.0,0.0,-1.4997,-1.5898,-1.6308,-1.6573,-1.6561,-1.6779,-1.7044,-1.7298,-1.7286,-1.7286,-1.7455,-1.7479,-1.7479,-1.7479,-1.7479,-1.7479,-1.7479,-1.7479,-1.7479,-1.7479,-1.7479,-1.7479,-1.7479,-1.7479,-1.7479,-1.7479,-1.7479,-1.7479,-1.7479,-1.7479,-1.7612,-1.7865,-1.8227,-1.8505,-1.8686,-1.877,-1.8903,-1.9072,-1.8988,-1.8988,-1.9072,-1.9072,-1.9072,-1.9072,-1.9072,-1.9072,-1.9072,-1.9072,-1.9072,-1.9084,-1.9169,-1.9205,-1.9217,0.0,0.0,0.0,0.0,0.0,0.0,0.0,0.0,0.0,0.0,0.0,0.0,0.0,0.0,0.0,0.0,0.0,0.0,0.0,0.0,0.0,0.0,0.0,0.0,0.0,0.0,0.0,0.0,0.0,0.0,0.0,0.0,-0.9962,-0.894,-0.9239,-0.9286,-0.915,0.0,-0.9164,-0.9171,0.0,-0.9381,-0.9374,0.0,0.0,0.0,-0.9557,-0.9612,0.0,-0.9774,0.0,0.0,0.0,0.0,0.0,0.0,0.0,0.0,0.0,0.0,0.0,0.0,0.0,0.0,-1.6014,0.0,-1.6308,-1.6296,-1.6513,-1.6779,-1.7044,-1.731,-1.7479,-1.7479,-1.7479,-1.7479,-1.7479,-1.7479,-1.7479,-1.7479,-1.7479,-1.7479,-1.7479,-1.7479,-1.7479,-1.7479,-1.7479,-1.7479,-1.7479,-1.7479,-1.7479,-1.7479,-1.7479,-1.7612,-1.7865,-1.7889,-1.8155,-1.8686,-1.8432,-1.8589,-1.906,-1.8807,-1.8831,-1.9072,-1.9072,-1.9072,-1.9072,-1.9072,-1.9072,-1.9072,-1.9072,-1.9084,-1.912,-1.9374,-1.947,-1.9245,0.0,0.0,0.0,0.0,0.0,0.0,0.0,0.0,0.0,0.0,0.0,0.0,0.0,0.0,0.0,0.0,0.0,0.0,0.0,0.0,0.0,0.0,0.0,0.0,0.0,0.0,0.0,0.0,0.0,0.0,0.0,0.0,0.0,0.0,-0.8927,-0.9035,-0.9028,-0.9456,0.0,0.0,-0.9483,-0.9415,0.0,0.0,0.0,0.0,0.0,-0.9693,-0.9632,0.0,-0.9822,-0.9815,0.0,0.0,0.0,0.0,0.0,0.0,-1.0858,0.0,0.0,0.0,0.0,0.0,0.0,0.0,-1.6344,-1.6537,-1.6646,-1.6779,-1.7044,-1.731,-1.7479,-1.7479,-1.7479,-1.7479,-1.7479,-1.7479,-1.7479,-1.7479,-1.7479,-1.7479,-1.7479,-1.7479,-1.7479,0.0,-1.7479,-1.7479,-1.7479,-1.7479,-1.7479,-1.7479,-1.7479,-1.7612,-1.7865,-1.8082,-1.8348,-1.8686,-1.8807,-1.8939,-1.9072,-1.9,-1.9012,-1.9072,-1.9072,-1.9072,-1.9072,-1.9072,-1.9072,-1.9072,-1.9072,-1.8536,-1.7773,-1.784,-1.731,-1.6385,0.0,0.0,0.0,0.0,0.0,0.0,0.0,0.0,0.0,0.0,0.0,0.0,0.0,0.0,0.0,0.0,0.0,0.0,0.0,0.0,0.0,0.0,0.0,0.0,0.0,0.0,0.0,0.0,0.0,0.0,0.0,0.0,0.0,0.0,0.0,0.0,0.0,0.0,0.0,0.0,-0.9571,0.0,0.0,-0.9632,-0.9646,0.0,0.0,0.0,-0.9707,-0.9795,-0.9863,0.0,0.0,0.0,0.0,0.0,0.0,0.0,0.0,0.0,0.0,0.0,0.0,0.0,-1.6004,-1.6489,-1.6465,-1.6513,-1.6622,-1.6779,-1.7044,-1.731,-1.7479,-1.7479,-1.7479,-1.7527,-1.7624,-1.7648,-1.7696,-1.7805,-1.7817,-1.7781,-1.766,-1.7648,-1.7599,-1.7491,-1.7587,-1.7648,-1.7648,-1.7539,-1.7479,-1.7479,-1.7587,-1.772,-1.7877,-1.8155,-1.842,-1.8686,-1.8843,-1.8976,-1.9072,-1.9072,-1.9072,-1.9072,-1.9072,-1.9072,-1.9072,-1.9072,-1.9072,-1.9072,-1.9072,-1.8312,-1.7214,-1.731,-1.655,-1.5385,0.0,0.0,0.0,0.0,0.0,0.0,0.0,0.0,0.0,0.0,0.0,0.0,0.0,0.0,0.0,0.0,0.0,0.0,0.0,0.0,0.0,0.0,0.0,0.0,0.0,0.0,0.0,0.0,0.0,0.0,0.0,0.0,0.0,0.0,0.0,0.0,0.0,0.0,0.0,-0.9632,-0.9652,-0.9713,0.0,0.0,-0.9836,-0.9822,-0.9822,-0.9822,-0.9822,-0.9822,-0.991,0.0,0.0,0.0,0.0,0.0,-0.972,0.0,0.0,0.0,0.0,0.0,0.0,0.0,-1.5689,-1.6339,-1.6558,-1.6196,-1.6339,-1.6702,-1.7044,-1.7334,-1.7527,-1.7527,-1.7527,-1.7612,-1.7841,-1.7877,-1.7974,-1.8263,-1.83,-1.8191,-1.795,-1.7889,-1.7781,-1.7539,-1.7744,-1.7889,-1.7913,-1.7672,-1.7539,-1.7575,-1.7768,-1.7889,-1.7913,-1.8191,-1.8456,-1.8686,-1.871,-1.8855,-1.9072,-1.9072,-1.9072,-1.9072,-1.9072,-1.9072,-1.9072,-1.9072,-1.9072,-1.9072,-1.8944,-1.8063,-1.7002,-1.7068,-1.6343,-1.505,0.0,0.0,0.0,0.0,0.0,0.0,0.0,0.0,0.0,0.0,0.0,0.0,0.0,0.0,0.0,0.0,0.0,0.0,0.0,0.0,0.0,0.0,0.0,0.0,0.0,0.0,0.0,0.0,0.0,0.0,0.0,0.0,0.0,0.0,0.0,0.0,0.0,0.0,0.0,-0.9788,-0.9917,0.0,-0.968,-0.9917,-0.993,-0.9822,-0.9822,-0.9822,-0.9822,-0.9822,-0.9842,-0.9863,0.0,0.0,0.0,-0.9686,0.0,0.0,0.0,0.0,0.0,0.0,0.0,0.0,-1.4751,-1.5588,-1.5966,-1.521,-1.5702,-1.6459,-1.6966,-1.7479,-1.7793,-1.7793,-1.7793,-1.7817,-1.7865,-1.7877,-1.7974,-1.8263,-1.83,-1.8275,-1.8215,-1.801,-1.7853,-1.7805,-1.7841,-1.7974,-1.8203,-1.795,-1.7901,-1.8131,-1.7962,-1.7986,-1.8215,-1.8481,-1.8638,-1.8686,-1.8903,-1.9024,-1.9072,-1.9072,-1.9072,-1.9072,-1.9072,-1.9072,-1.9072,-1.9072,-1.9072,-1.8944,-1.7893,-1.6713,-1.5596,-1.4556,-1.3416,-1.243,0.0,0.0,0.0,0.0,0.0,0.0,0.0,0.0,0.0,0.0,0.0,0.0,0.0,0.0,0.0,0.0,0.0,0.0,0.0,0.0,0.0,0.0,0.0,0.0,0.0,0.0,0.0,0.0,0.0,0.0,0.0,0.0,0.0,0.0,0.0,0.0,0.0,0.0,-0.9802,-0.9937,-0.9937,0.0,-0.9734,-0.9876,-0.989,-0.9822,-0.9822,-0.9822,-0.9822,-0.9822,-0.9869,0.0,0.0,-0.9937,-0.9924,0.0,-0.9876,-0.9883,0.0,0.0,0.0,-1.1753,0.0,0.0,0.0,-1.3963,-1.4361,-1.4019,-1.4436,-1.5098,-1.6045,-1.6704,-1.7244,-1.7373,-1.753,-1.7817,-1.8215,-1.8275,-1.8336,-1.8469,-1.8722,-1.877,-1.8517,-1.836,-1.8275,-1.8275,-1.8155,-1.8203,-1.8469,-1.8227,-1.8143,-1.8287,-1.8287,-1.8348,-1.8481,-1.8746,-1.8879,-1.8879,-1.9012,-1.9072,-1.9072,-1.9072,-1.9072,-1.9072,-1.9072,-1.9072,-1.9072,-1.9072,-1.9157,-1.9136,-1.7684,-1.6308,-1.5128,-1.3855,-1.2677,-1.1619,0.0,0.0,0.0,0.0,0.0,0.0,0.0,0.0,0.0,0.0,0.0,0.0,0.0,0.0,0.0,0.0,0.0,0.0,0.0,0.0,0.0,0.0,0.0,-1.3207,0.0,0.0,0.0,0.0,0.0,0.0,0.0,0.0,0.0,0.0,0.0,0.0,0.0,0.0,0.0,-0.9998,0.0,-0.9883,-0.991,-0.991,-0.989,-0.9863,-0.9829,-0.9822,-0.9822,-0.9822,-0.9924,-1.0046,-1.0046,-1.0046,0.0,0.0,0.0,0.0,0.0,0.0,0.0,0.0,0.0,-1.1711,0.0,0.0,0.0,-1.2961,0.0,0.0,0.0,0.0,0.0,-1.6868,0.0,0.0,0.0,-1.8698,0.0,-1.8831,-1.9072,-1.9132,-1.8855,-1.8794,-1.8746,-1.8686,-1.8541,-1.8541,-1.8746,-1.8517,-1.8396,-1.8444,-1.8601,-1.871,-1.8758,-1.8976,-1.9072,-1.9072,-1.9072,-1.9072,-1.9072,-1.9072,-1.9072,-1.9072,-1.9072,-1.9072,-1.9084,-1.9132,-1.9148,-1.8935,-1.7335,-1.6161,-1.5192,-1.3702,-1.247,-1.1619,-1.8589,-1.7555,0.0,0.0,0.0,0.0,0.0,0.0,0.0,0.0,0.0,0.0,0.0,0.0,0.0,0.0,0.0,0.0,-1.468,0.0,0.0,0.0,0.0,0.0,-1.0972,0.0,0.0,0.0,0.0,0.0,0.0,0.0,0.0,0.0,-0.9625,0.0,0.0,0.0,-0.9815,0.0,-0.9978,-1.0107,0.0,-1.0229,-1.0141,-1.0005,-0.9869,-0.9822,-0.9822,0.0,-0.9924,-1.0046,0.0,-1.0046,-1.0046,-1.0046,0.0,0.0,0.0,0.0,0.0,0.0,-1.1484,0.0,0.0,0.0,-1.2012,-1.1952,0.0,0.0,0.0,0.0,0.0,0.0,0.0,0.0,-1.8324,-1.8734,-1.912,-1.935,-1.8819,-1.8674,-1.9314,-1.9169,-1.8939,-1.8698,-1.8879,-1.9,-1.9024,-1.8782,-1.8746,-1.8976,-1.8794,-1.8794,-1.9024,-1.906,-1.9072,-1.9072,-1.9072,-1.9072,-1.9072,-1.9072,-1.9072,-1.9072,-1.9072,-1.9072,-1.9096,-1.9326,-1.8638,-1.7335,-1.5869,-1.5441,-1.5376,-1.2632,-1.1626,-1.1619,0.0,0.0,0.0,0.0,0.0,0.0,0.0,0.0,0.0,0.0,0.0,0.0,0.0,0.0,0.0,0.0,0.0,-1.2745,0.0,0.0,0.0,0.0,0.0,0.0,0.0,0.0,0.0,0.0,-0.972,0.0,0.0,0.0,0.0,0.0,-0.9571,0.0,-0.9571,0.0,-0.9849,0.0,0.0,0.0,0.0,-1.0114,-0.9971,-0.991,-0.9842,-0.9822,-0.9836,0.0,-0.9998,0.0,0.0,0.0,0.0,0.0,0.0,0.0,0.0,0.0,0.0,0.0,0.0,0.0,-0.9727,0.0,-1.0012,0.0,0.0,0.0,0.0,0.0,0.0,0.0,-1.6208,0.0,0.0,-1.8215,-1.8372,-1.8951,0.0,0.0,-1.9012,-1.8915,-1.8807,-1.8698,-1.8927,-1.9072,-1.9072,-1.8976,-1.8963,-1.9072,-1.8963,-1.8963,-1.9072,-1.9072,-1.9072,-1.9072,-1.9072,-1.9072,-1.9072,-1.9072,-1.9072,-1.9072,-1.9072,-1.9157,-1.9314,-1.9422,-1.8703,-1.7474,-1.5972,-1.4991,-1.4178,-1.2194,-1.1565,-1.1619,0.0,0.0,0.0,0.0,0.0,0.0,0.0,0.0,0.0,0.0,0.0,0.0,-1.5916,-1.4822,0.0,0.0,-1.2478,-1.1942,0.0,0.0,-1.1667,-1.1342,-1.1051,0.0,0.0,0.0,0.0,0.0,0.0,0.0,0.0,0.0,0.0,0.0,0.0,-0.953,-0.951,0.0,0.0,-1.0141,-0.9958,-1.0053,-1.0276,-0.9992,-0.9856,-0.9822,-0.9822,-0.9822,-0.9836,-0.9951,-1.0012,0.0,-1.0351,0.0,0.0,0.0,0.0,0.0,-1.0181,0.0,0.0,0.0,0.0,0.0,0.0,0.0,0.0,0.0,0.0,0.0,0.0,0.0,0.0,0.0,0.0,-1.5319,0.0,-1.7081,-1.7599,0.0,0.0,0.0,0.0,-1.8927,-1.8988,-1.8903,-1.9012,-1.9072,-1.9072,-1.9012,-1.9,-1.9072,-1.9072,-1.9072,-1.9072,-1.9072,-1.9072,-1.9072,-1.9072,-1.9072,-1.9072,-1.9072,-1.9072,-1.9072,-1.9072,-1.9181,-1.9374,-1.9113,-1.8306,-1.7128,-1.5728,-1.4246,-1.2871,-1.2001,-1.1619,-1.1619,-1.6562,-1.6079,0.0,0.0,0.0,0.0,0.0,0.0,0.0,0.0,0.0,0.0,0.0,0.0,0.0,0.0,0.0,-1.0128,-1.1451,0.0,-1.0184,-1.1476,-1.0456,-0.968,0.0,0.0,0.0,0.0,0.0,0.0,0.0,0.0,0.0,0.0,0.0,-0.9544,-0.9808,-0.9815,-0.9822,-0.9849,-0.9985,-0.9964,-0.9856,0.0,-0.9951,-0.9822,-0.9822,0.0,0.0,-0.9829,-0.9924,0.0,0.0,0.0,0.0,0.0,0.0,0.0,0.0,0.0,0.0,-1.0629,0.0,0.0,0.0,0.0,-0.8632,0.0,0.0,0.0,0.0,0.0,0.0,0.0,0.0,0.0,0.0,0.0,-1.7055,0.0,0.0,0.0,0.0,-1.9543,-1.9736,-1.9458,-1.9217,-1.9072,-1.9072,-1.8831,-1.8819,-1.9072,-1.9072,-1.9072,-1.9072,-1.9072,-1.9072,-1.9072,-1.9072,-1.9072,-1.9072,-1.9072,-1.9072,-1.9072,-1.9072,-1.9084,-1.8992,-1.8028,-1.6736,-1.5292,-1.4297,-1.3024,-1.1613,-1.1619,-1.1619,-1.1619,0.0,0.0,0.0,0.0,0.0,0.0,0.0,-1.6006,0.0,0.0,0.0,0.0,0.0,-1.3124,-1.1728,0.0,0.0,-0.9787,-1.0191,-0.9842,0.0,0.0,0.0,-0.9774,0.0,0.0,0.0,0.0,0.0,0.0,0.0,0.0,0.0,0.0,0.0,-0.9496,0.0,0.0,0.0,0.0,0.0,-1.0019,-0.9964,0.0,-0.9869,-0.9822,-0.9822,-0.9883,0.0,-1.0093,-1.0222,-1.0371,-1.0521,-1.0534,-1.0493,-1.0493,-1.0419,0.0,0.0,0.0,-1.0175,-1.0378,0.0,0.0,0.0,0.0,0.0,0.0,0.0,0.0,0.0,0.0,0.0,0.0,0.0,0.0,0.0,0.0,0.0,0.0,0.0,0.0,0.0,-1.7033,-1.7161,-1.6149,-1.7588,-1.825,-1.7655,-1.8345,-1.8807,-1.906,-1.9072,-1.9072,-1.9072,-1.9072,-1.9072,-1.9072,-1.9072,-1.9072,-1.9072,-1.9072,-1.9072,-1.9084,-1.9253,-1.89,-1.8139,-1.7922,-1.6491,-1.4412,-1.3973,-1.2896,-1.1619,-1.1619,-1.1619,-1.1633,-1.6417,0.0,0.0,0.0,0.0,0.0,0.0,0.0,0.0,0.0,-1.5388,0.0,-1.4727,0.0,-1.1454,0.0,-1.0397,-0.9686,-0.9686,-0.9686,0.0,-0.9815,-0.9822,0.0,0.0,0.0,0.0,0.0,0.0,-0.9503,0.0,0.0,0.0,0.0,0.0,-0.9591,-0.9693,0.0,-0.993,0.0,0.0,-0.9971,0.0,0.0,-0.9856,-0.9897,0.0,-0.9883,-0.9992,-1.0148,-1.0256,-1.0371,-1.0575,-1.0602,-1.0568,-1.0568,-1.0534,-1.048,-1.0446,-1.0365,0.0,-1.0344,-0.9901,0.0,-0.9307,0.0,-0.8546,0.0,0.0,0.0,0.0,0.0,0.0,0.0,0.0,0.0,0.0,-1.3279,0.0,0.0,0.0,0.0,0.0,-1.5545,-1.5593,-1.4537,-1.596,-1.6897,-1.6762,-1.7063,-1.7553,-1.8279,-1.8291,-1.8291,-1.8291,-1.8291,-1.8547,-1.9072,-1.8547,-1.8676,-1.9072,-1.9072,-1.9072,-1.9084,-1.935,-1.8754,-1.7449,-1.7213,-1.5765,-1.3657,-1.3294,-1.2466,-1.1619,-1.1619,-1.1653,-1.1721,0.0,0.0,0.0,0.0,-1.6139,0.0,0.0,0.0,-1.6609,0.0,-1.5312,-1.4966,-1.3784,-1.2466,-1.1631,-1.1631,-1.0543,-0.9822,-0.9822,-0.9822,0.0,0.0,-0.9822,-0.9754,-0.9625,0.0,0.0,0.0,0.0,0.0,0.0,0.0,0.0,0.0,-0.9774,0.0,-0.9842,-0.9985,-0.9964,-0.9829,-0.9822,-0.9836,-0.9856,-0.9836,-0.993,-1.0053,-0.989,-0.9836,-0.9869,-1.0019,-1.0073,-1.0134,-1.0412,-1.0412,-1.0358,-1.0636,-1.0616,-1.0534,-1.067,-1.0704,-1.0663,-1.0521,-1.022,0.0,0.0,0.0,-0.8796,0.0,0.0,0.0,0.0,0.0,0.0,0.0,0.0,0.0,0.0,0.0,-1.2288,0.0,0.0,0.0,-1.4912,-1.5073,-1.5007,-1.4591,-1.4383,-1.4992,-1.6487,-1.5157,-1.512,-1.6829,-1.698,-1.698,-1.685,-1.698,-1.7636,-1.8944,-1.7636,-1.7765,-1.8944,-1.9072,-1.9072,-1.8956,-1.9232,-1.8553,-1.6992,-1.5942,-1.4736,-1.3232,-1.213,-1.1619,-1.1633,-1.1633,-1.1728,-1.1898,-1.6855,-1.6754,-1.6742,0.0,-1.6549,-1.6658,0.0,0.0,0.0,0.0,-1.3721,-1.2302,-1.2217,-1.1027,-1.0308,-1.0308,-0.9943,0.0,0.0,0.0,0.0,-0.9822,-0.9822,-0.9802,-0.9768,-0.9768,0.0,-0.9612,0.0,0.0,-0.9612,0.0,0.0,0.0,0.0,0.0,-0.9992,-1.0032,-1.0025,-0.9978,-0.9869,-1.0019,-1.0297,0.0,-1.0154,-1.0344,-1.008,-1.0066,-1.0181,-1.0331,-1.0453,-1.0561,-1.0636,-1.0636,-1.0622,-1.0697,-1.069,-1.0643,-1.0568,-1.0473,-1.0385,-1.0344,-0.9996,-0.9564,0.0,0.0,0.0,0.0,0.0,0.0,0.0,0.0,0.0,0.0,0.0,0.0,0.0,0.0,0.0,-1.0948,0.0,-1.1803,-1.1762,-1.2596,-1.2709,-1.1487,-1.3047,-1.389,-1.3591,-1.407,-1.4757,-1.5414,-1.6462,-1.6462,-1.5424,-1.6462,-1.6721,-1.5954,-1.6721,-1.7238,-1.7625,-1.8676,-1.8547,-1.7529,-1.7951,-1.6654,-1.4257,-1.4361,-1.3389,-1.1987,-1.1749,-1.1687,-1.1775,-1.1775,-1.1945,-1.2182,-1.7231,0.0,0.0,-1.7044,0.0,0.0,-1.708,0.0,0.0,-1.5666,-1.3832,0.0,-1.1866,-1.0718,-0.9992,-0.9924,-0.9924,0.0,-0.9822,0.0,0.0,-0.9822,-0.9822,-0.9822,-0.9822,-0.9822,0.0,-0.9802,0.0,0.0,-0.9903,0.0,0.0,0.0,0.0,-1.0175,-1.0046,-1.0046,-1.0046,-1.0046,-1.0032,-1.0175,0.0,-1.0215,-1.0256,-1.0385,-1.0283,-1.0256,-1.0304,-1.0446,-1.0548,-1.0629,-1.0697,-1.0717,-1.0717,-1.0717,-1.0717,-1.0683,-1.0534,-1.0432,-1.0344,-1.0209,-0.9988,-0.9699,-0.94,-0.9166,-0.8913,0.0,-0.8325,-0.8481,0.0,0.0,0.0,0.0,0.0,0.0,0.0,0.0,0.0,0.0,-1.0555,-1.0622,-1.0711,-1.1164,-1.1126,-1.041,-1.1564,-1.2332,-1.2504,-1.2611,-1.3139,-1.3988,-1.4857,-1.4857,-1.3997,-1.4857,-1.5119,-1.4912,-1.5033,-1.5544,-1.6073,-1.6957,-1.687,-1.6236,-1.655,-1.5512,-1.3351,-1.3766,-1.3031,-1.1626,-1.1687,-1.1843,-1.2033,-1.2033,-1.2142,-1.2298,0.0,0.0,0.0,0.0,0.0,0.0,0.0,-1.7433,0.0,-1.5515,0.0,-1.3439,-1.1937,-1.0944,-1.0229,-1.0093,0.0,-1.0012,-0.9863,-0.9849,-0.9842,-0.9822,-0.9842,-0.9849,-0.9849,-0.9849,-0.9924,0.0,0.0,0.0,0.0,0.0,0.0,0.0,0.0,0.0,0.0,-1.008,-1.008,-1.0093,-1.0229,-1.0304,-1.0337,-1.0317,-1.0324,-1.0351,-1.048,-1.0432,-1.0331,-1.0473,-1.0521,-1.0548,-1.0677,-1.0717,-1.0717,-1.0717,-1.0717,-1.0683,-1.0534,-1.0493,-1.0419,-1.012,-1.0046,-0.9928,-0.9555,-0.9542,-0.928,-0.867,-0.8638,-0.8655,0.0,0.0,0.0,0.0,0.0,0.0,0.0,0.0,0.0,0.0,0.0,0.0,-1.0717,-1.0473,-1.031,-1.031,-1.031,-1.0863,-1.225,0.0,-1.1091,-1.2513,-1.2813,-1.2853,-1.2624,-1.2853,-1.3519,-1.4463,-1.3367,-1.3481,-1.4688,-1.4988,-1.4948,-1.4861,-1.5247,-1.4579,-1.3216,-1.3531,-1.276,-1.166,-1.183,-1.2054,-1.2291,-1.2311,-1.2318,-1.2338,0.0,0.0,0.0,0.0,0.0,-1.7793,-1.7744,-1.6782,-1.5568,-1.4377,-1.3119,-1.1977,-1.0728,-1.039,-1.027,-1.0243,-1.0243,0.0,0.0,0.0,0.0,-0.9829,-0.9944,-1.0012,-1.0012,-1.0012,-1.0086,0.0,0.0,0.0,0.0,0.0,0.0,0.0,0.0,0.0,-1.0243,-1.0243,0.0,-1.0243,-1.027,-1.0426,-1.0629,-1.05,-1.0534,-1.0643,-1.067,-1.0582,-1.048,-1.0629,-1.0677,-1.0683,-1.0711,-1.0717,-1.0717,-1.0717,-1.0717,-1.0683,-1.0534,-1.0493,-1.0419,-1.012,-1.0046,-0.9928,-0.9679,-0.9464,-0.9284,-0.9032,-0.8949,-0.9111,-0.9172,0.0,0.0,0.0,0.0,0.0,0.0,0.0,0.0,0.0,0.0,-1.0453,-1.0697,-1.0561,-1.0453,-1.0453,-1.0453,-1.0541,-1.07,0.0,-1.0767,0.0,-1.2111,-1.246,0.0,0.0,-1.246,-1.1898,-1.2563,-1.3021,-1.3428,-1.4521,-1.4495,-1.3584,-1.38,-1.306,-1.1825,-1.198,-1.1976,-1.1823,-1.2101,-1.2244,-1.2305,-1.242,-1.2467,-1.2467,0.0,0.0,0.0,0.0,0.0,0.0,0.0,-1.6986,0.0,-1.5238,-1.335,-1.1949,-1.1404,-1.0848,-1.0473,-1.0399,-1.0392,-1.0297,-1.0066,-1.0127,-1.01,-0.9944,-1.0086,-1.0168,-1.0168,-1.0168,-1.0209,-1.0283,0.0,0.0,0.0,0.0,0.0,0.0,0.0,-1.0453,0.0,0.0,0.0,-1.0399,-1.0473,-1.0595,-1.0711,-1.0636,-1.0656,-1.0717,-1.0717,-1.067,-1.0622,-1.0697,-1.0717,-1.0717,-1.0717,-1.0717,-1.0717,-1.0717,-1.0717,-1.0704,-1.0629,-1.0555,-1.0439,-1.0222,-1.0168,-1.0127,-0.9724,-0.9751,-0.9686,-0.9436,-0.9362,-0.945,-0.9588,-0.9987,0.0,0.0,0.0,0.0,0.0,0.0,-1.0609,0.0,0.0,0.0,0.0,0.0,0.0,0.0,0.0,-1.027,-1.0283,-1.0487,-1.0568,0.0,0.0,0.0,-1.0934,0.0,-1.1538,-1.0934,-1.1531,-1.1806,-1.188,-1.2725,-1.2858,-1.2256,-1.2425,-1.2073,-1.1518,-1.1667,-1.1816,-1.1972,-1.2203,-1.2338,-1.2406,-1.2474,-1.2501,-1.2501,0.0,-1.8589,0.0,0.0,-1.8408,0.0,-1.8384,-1.7451,-1.6487,-1.5878,-1.3861,-1.2314,-1.2087,-1.13,-1.067,-1.0555,-1.0541,-1.0426,-1.0161,-1.0229,-1.0222,-1.0107,-1.0215,-1.0297,-1.0324,-1.0324,-1.0324,0.0,-1.0439,-1.0493,0.0,-1.0649,0.0,0.0,0.0,0.0,0.0,0.0,-1.0419,-1.0507,-1.0656,-1.0717,-1.0717,-1.0717,-1.0717,-1.0717,-1.0717,-1.0717,-1.0717,-1.0717,-1.0717,-1.0717,-1.0717,-1.0717,-1.0717,-1.0717,-1.0717,-1.0717,-1.0717,-1.0629,-1.0507,-1.0365,-1.0324,-1.0263,-1.0019,-1.0127,-1.0256,-0.9916,-0.9856,-0.9973,-1.0123,-1.0484,0.0,0.0,0.0,0.0,0.0,0.0,0.0,0.0,0.0,0.0,-1.0304,0.0,0.0,0.0,-1.0215,-1.0141,-1.0229,-1.0399,-1.048,-1.0446,0.0,-1.0873,-1.0812,0.0,-1.0887,-1.086,-1.0921,-1.0982,-1.105,-1.1287,-1.1409,-1.1443,-1.1565,-1.1619,-1.1633,-1.1809,-1.1952,-1.2081,-1.2264,-1.2406,-1.2501,-1.2501,-1.2501,-1.2501,0.0,0.0,0.0,0.0,0.0,0.0,-1.865,-1.7701,-1.6476,-1.4836,-1.3302,-1.1972,-1.0948,-1.0711,-1.0717,-1.0704,-1.0697,-1.0629,-1.046,-1.0344,-1.0276,-1.0256,-1.0276,-1.0337,-1.0466,-1.0473,-1.0473,0.0,-1.0487,-1.0493,-1.0493,-1.0649,0.0,0.0,0.0,0.0,0.0,-1.0622,-1.0609,-1.0507,-1.0656,-1.0717,-1.0717,-1.0717,-1.0717,-1.0717,-1.0717,-1.0717,-1.0717,-1.0717,-1.0717,-1.0717,-1.0717,-1.0717,-1.0717,-1.0717,-1.0717,-1.0717,-1.0717,-1.0711,-1.0663,-1.0507,-1.0473,-1.0466,-1.0432,-1.0351,-1.031,-1.0426,-1.046,-1.0514,-1.067,-1.0595,-1.0561,0.0,0.0,0.0,0.0,0.0,-1.0507,-1.0493,0.0,0.0,-1.0283,-1.0168,0.0,0.0,-1.0195,-1.0202,-1.008,-1.0337,-1.0432,-1.0304,-1.0588,-1.0867,-1.1118,-1.0867,-1.0941,-1.1328,-1.107,-1.109,-1.1348,-1.1382,-1.1463,-1.1599,-1.1613,-1.1619,-1.164,-1.1925,-1.2047,-1.2088,-1.2372,-1.2488,-1.2501,-1.2501,-1.2501,-1.2501,0.0,0.0,0.0,0.0,0.0,0.0,0.0,-1.8063,-1.6588,-1.4938,-1.3483,-1.2127,-1.0974,-1.0772,-1.0717,-1.0717,-1.0717,-1.0656,-1.05,-1.0527,-1.0507,-1.0412,-1.0493,-1.0568,-1.0629,-1.0629,-1.0629,0.0,0.0,0.0,-1.0629,0.0,0.0,0.0,0.0,-1.0541,-1.0629,-1.0595,-1.0602,-1.0636,-1.0697,-1.0717,-1.0717,-1.0717,-1.0717,-1.0717,-1.0717,-1.0717,-1.0717,-1.0717,-1.0717,-1.0717,-1.0717,-1.0717,-1.0717,-1.0717,-1.0717,-1.0717,-1.0717,-1.0717,-1.0683,-1.0527,-1.0561,-1.0582,-1.0405,-1.046,-1.0534,-1.05,-1.0568,-1.0649,-1.0711,-1.0744,-1.0758,-1.0724,0.0,0.0,0.0,0.0,0.0,-1.0385,0.0,-1.0304,-1.0032,-1.0032,0.0,0.0,0.0,-1.0019,-1.0046,-1.0249,-1.0378,-1.0405,0.0,-1.0778,-1.0894,-1.0778,-1.0853,-1.1124,-1.109,-1.1185,-1.1396,-1.1484,-1.1558,-1.1619,-1.1619,-1.1667,-1.1762,-1.1972,-1.2115,-1.2216,-1.242,-1.2501,-1.2515,-1.2603,-1.2637,-1.2651,-2.0134,0.0,-1.9772,0.0,-1.9772,-1.9591,-1.9591,-1.8324,-1.6786,-1.5233,-1.3805,-1.2336,-1.1001,-1.0785,-1.0717,-1.0717,-1.0717,-1.0677,-1.0568,-1.0616,-1.0622,-1.0561,-1.0622,0.0,-1.0717,-1.0717,-1.0697,-1.0656,-1.0806,0.0,0.0,0.0,0.0,0.0,-1.0561,-1.0575,-1.0711,-1.0602,-1.0622,-1.0717,-1.0717,-1.0717,-1.0717,-1.0717,-1.0717,-1.0717,-1.0717,-1.0717,-1.0717,-1.0717,-1.0717,-1.0717,-1.0717,-1.0717,-1.0717,-1.0717,-1.0717,-1.0717,-1.0717,-1.0717,-1.0697,-1.0588,-1.0636,-1.0663,-1.046,-1.0568,-1.069,-1.0582,-1.0643,-1.0717,-1.0717,-1.0806,-1.0846,-1.0738,0.0,0.0,0.0,-1.0717,0.0,-1.0432,-1.05,-1.0419,-1.0053,-1.0114,0.0,0.0,0.0,-0.9985,-1.0046,-1.0195,-1.0324,0.0,0.0,0.0,-1.0717,-1.0765,-1.086,-1.1016,-1.1158,-1.1307,-1.1463,-1.1572,-1.164,-1.1681,-1.1681,-1.1762,-1.1911,-1.2067,-1.2189,-1.2305,-1.2447,-1.2501,-1.2522,-1.2671,-1.2732,-1.2752,-2.0714,-2.0448,-2.0267,-2.0267,-2.005,-1.9881,-1.9881,-1.8449,-1.689,-1.5615,-1.3961,-1.2297,-1.0857,-1.0724,-1.0717,-1.0717,-1.0717,-1.0717,-1.0717,-1.0575,-1.0561,0.0,0.0,-1.0568,-1.0717,-1.0717,-1.0649,-1.0493,0.0,0.0,-1.0493,0.0,-1.0575,-1.0711,-1.0561,-1.0575,-1.0717,-1.0717,-1.0717,-1.0717,-1.0717,-1.0717,-1.0717,-1.0717,-1.0717,-1.0717,-1.0717,-1.0717,-1.0717,-1.0717,-1.0717,-1.0717,-1.0717,-1.0717,-1.0717,-1.0717,-1.0717,-1.0717,-1.0717,-1.0717,-1.0717,-1.0717,-1.0717,-1.0717,-1.0717,-1.0717,-1.0717,-1.0717,-1.0717,-1.0717,-1.0717,-1.0724,-1.0724,-1.0717,0.0,0.0,0.0,-1.0717,0.0,-1.0717,-1.0717,-1.0656,-1.05,-1.0487,0.0,0.0,0.0,0.0,0.0,0.0,0.0,-1.0283,-1.0568,0.0,-1.0717,-1.0867,-1.1016,-1.1165,-1.1314,-1.147,-1.1613,-1.1619,-1.1694,-1.183,-1.183,-1.1918,-1.2074,-1.2223,-1.2291,-1.2305,-1.2447,-1.2501,-1.2522,-1.2671,-1.2732,-1.2752,-2.1233,-2.116,-2.11,-2.11,-2.0871,-2.069,-2.069,-2.0173,-1.8731,-1.6157,-1.5211,-1.3806,-1.1163,-1.0785,-1.0717,0.0,-1.0717,-1.0717,0.0,-1.0677,-1.067,-1.0717,-1.067,-1.067,-1.0717,-1.0717,-1.0697,-1.0649,0.0,0.0,0.0,-1.0697,-1.067,-1.0717,-1.067,-1.0677,-1.0717,-1.0717,-1.0717,-1.0717,-1.0717,-1.0717,-1.0717,-1.0717,-1.0717,-1.0717,-1.0717,-1.0717,-1.0717,-1.0717,-1.0717,-1.0717,-1.0717,-1.0717,-1.0717,-1.0717,-1.0717,-1.0717,-1.0717,-1.0717,-1.0717,-1.0717,-1.0717,-1.0717,-1.0717,-1.0717,-1.0717,-1.0717,-1.0717,-1.0717,-1.0717,-1.0717,-1.0717,-1.0717,-1.0717,0.0,-1.0717,0.0,-1.0683,-1.0575,-1.0561,-1.0507,-1.0365,-1.0344,0.0,0.0,0.0,0.0,0.0,0.0,0.0,0.0,-1.067,0.0,-1.0717,-1.0873,-1.1023,-1.1165,-1.1423,-1.1681,-1.1918,-1.1918,-1.1945,-1.1986,-1.1986,-1.2074,-1.2223,-1.2271,-1.2345,-1.244,-1.2481,-1.2501,-1.2535,-1.2793,-1.2888,-1.2922,-2.1643,-2.1631,-2.1595,-2.1498,-2.1329,-2.1221,-2.1221,-2.0556,-1.9296,-1.7235,-1.5886,-1.4328,-1.2142,-1.1163,0.0,-1.0724,-1.0717,-1.0717,-1.0717,-1.0717,-1.0717,-1.0717,-1.0717,-1.0717,-1.0717,-1.0717,0.0,-1.0717,-1.0819,-1.086,-1.086,-1.0765,-1.0717,-1.0717,-1.0717,-1.0717,-1.0717,-1.0717,-1.0717,-1.0717,-1.0717,-1.0717,-1.0717,-1.0717,-1.0717,-1.0717,-1.0717,-1.0717,-1.0717,-1.0717,-1.0717,-1.0717,-1.0717,-1.0717,-1.0717,-1.0717,-1.0717,-1.0717,-1.0717,-1.0717,-1.0717,-1.0717,-1.0717,-1.0717,-1.0717,-1.0717,-1.0717,-1.0717,-1.0717,-1.0717,-1.0717,-1.0717,-1.0717,-1.0717,-1.0717,-1.0717,-1.0717,0.0,-1.0704,0.0,0.0,0.0,0.0,-1.0534,-1.0561,0.0,0.0,0.0,0.0,0.0,-1.0595,-1.0629,-1.069,-1.0717,-1.0717,-1.0928,-1.1077,-1.1165,-1.1525,-1.1823,-1.206,-1.206,-1.2094,-1.2149,-1.2149,-1.223,-1.2372,-1.2372,-1.242,-1.2501,-1.2501,-1.2535,-1.2617,-1.2868,-1.2996,-1.3078,-2.1945,-2.1897,-2.1824,0.0,-2.1535,0.0,-2.1535,-2.0278,-1.9162,-1.8757,-1.5868,-1.3866,-1.353,-1.1869,-1.0914,-1.0765,0.0,0.0,0.0,-1.0731,-1.0731,-1.0717,-1.0717,-1.0717,-1.0717,-1.0717,-1.0717,-1.0717,-1.0717,-1.0717,-1.0717,-1.0717,-1.0717,-1.0717,-1.0717,-1.0717,-1.0717,-1.0717,-1.0717,-1.0717,-1.0717,-1.0717,-1.0717,-1.0717,-1.0717,-1.0717,-1.0717,-1.0717,-1.0717,-1.0717,-1.0717,-1.0717,-1.0717,-1.0717,-1.0717,-1.0717,-1.0717,-1.0717,-1.0717,-1.0717,-1.0717,-1.0717,-1.0717,-1.0717,-1.0717,-1.0717,-1.0717,-1.0717,-1.0717,-1.0717,-1.0717,-1.0717,-1.0717,-1.0717,-1.0717,-1.0717,-1.0717,-1.0717,-1.0772,0.0,0.0,0.0,-1.0934,-1.0934,-1.0819,0.0,0.0,0.0,0.0,0.0,-1.0683,-1.0527,-1.067,-1.0751,-1.0751,-1.1036,-1.1192,-1.1233,-1.166,-1.1945,-1.2094,-1.2094,-1.2169,-1.2305,-1.2305,-1.2379,-1.2501,-1.2501,-1.2501,-1.2501,-1.2501,-1.2589,-1.2732,-1.2901,-1.3044,-1.318,0.0,0.0,-2.215,-2.209,-2.2078,-2.2078,-2.2078,-2.171,-2.0908,-1.9282,-1.7444,-1.548,-1.3874,-1.2271,-1.1226,-1.107,-1.0962,-1.0846,-1.0724,-1.0826,-1.0846,-1.0724,-1.0717,-1.0717,-1.0717,-1.0717,-1.0717,-1.0717,-1.0717,-1.0717,-1.0717,-1.0717,-1.0717,-1.0717,-1.0717,-1.0717,-1.0717,-1.0717,-1.0717,-1.0717,-1.0717,-1.0717,-1.0717,-1.0717,-1.0717,-1.0717,-1.0717,-1.0717,-1.0717,-1.0717,-1.0717,-1.0717,-1.0717,-1.0717,-1.0717,-1.0717,-1.0717,-1.0717,-1.0717,-1.0717,-1.0717,-1.0717,-1.0717,-1.0717,-1.0717,-1.0717,-1.0717,-1.0717,-1.0717,-1.0717,-1.0717,-1.0717,-1.0717,-1.0717,-1.0717,-1.0717,-1.0717,-1.0717,-1.0731,0.0,-1.0772,-1.0772,-1.0772,-1.0772,-1.0792,0.0,0.0,-1.0928,-1.1002,-1.1036,-1.0989,-1.0846,-1.0982,-1.1056,-1.1056,-1.1246,-1.1511,-1.185,-1.2074,-1.2257,-1.24,-1.24,-1.242,-1.2454,-1.2454,-1.2467,-1.2501,-1.2501,-1.2501,-1.2501,-1.2501,-1.2522,-1.2589,-1.2861,-1.2983,-1.3051,-2.2621,-2.2621,-2.2621,-2.2621,-2.2512,-2.244,-2.244,-2.2343,-2.1805,-2.0658,-1.8381,-1.6552,-1.5177,-1.294,-1.1436,-1.128,-1.107,-1.0914,-1.0833,-1.0833,-1.0806,-1.0724,-1.0717,-1.0717,-1.0717,-1.0717,-1.0717,-1.0717,-1.0717,-1.0717,-1.0717,-1.0717,-1.0717,-1.0717,-1.0717,-1.0717,-1.0717,-1.0717,-1.0717,-1.0717,-1.0717,-1.0717,-1.0717,-1.0717,-1.0717,-1.0717,-1.0717,-1.0717,-1.0717,-1.0717,-1.0717,-1.0717,-1.0717,-1.0717,-1.0717,-1.0717,-1.0717,-1.0724,-1.0459,-1.0585,-1.0717,-1.0717,-1.0717,-1.0717,-1.0717,-1.0717,-1.0717,-1.0717,-1.0717,-1.0717,-1.0717,-1.0717,-1.0717,-1.0717,-1.0778,-1.0799,-1.0731,-1.0778,-1.0799,-1.0731,-1.0778,-1.0826,-1.0826,-1.0887,-1.0928,-1.0948,-1.1009,0.0,-1.1063,-1.126,-1.1274,-1.1056,-1.1124,-1.1165,-1.1165,-1.1382,-1.1687,-1.206,-1.2216,-1.2366,-1.2501,-1.2501,-1.2501,-1.2501,-1.2501,-1.2501,-1.2508,-1.2576,-1.2603,-1.261,-1.2684,-1.2752,-1.2834,-1.3078,-1.3159,-1.3193,-2.3043,-2.3043,-2.3043,-2.3043,-2.2862,-2.2693,-2.2657,-2.2301,-2.19,-2.1602,-1.8715,-1.6629,-1.6257,-1.3457,-1.1599,-1.147,-1.1185,-1.1002,-1.0982,-1.086,-1.0778,-1.0758,-1.0731,-1.0717,-1.0717,-1.0717,-1.0717,-1.0717,-1.0717,-1.0717,-1.0717,-1.0717,-1.0717,-1.0717,-1.0717,-1.0717,-1.0717,-1.0717,-1.0717,-1.0717,-1.0717,-1.0717,-1.0717,-1.0717,-1.0717,-1.0724,-1.0744,-1.0758,-1.0758,-1.0758,-1.0751,-1.0618,-1.0618,-1.0605,-1.0598,-1.0505,-1.0492,-1.0459,-1.0326,-1.0452,-1.0717,-1.0585,-1.0717,-1.0717,-1.0717,-1.0717,-1.0724,-1.0751,-1.0738,-1.0738,-1.0778,-1.0751,-1.0738,-1.0778,-1.086,-1.0873,-1.0772,0.0,-1.0873,-1.0765,-1.0867,-1.0955,-1.0982,-1.109,-1.1111,-1.0989,-1.1118,-1.1151,-1.1056,-1.143,-1.1545,-1.1307,-1.1301,-1.1301,-1.1301,-1.1579,-1.185,-1.2101,-1.225,-1.2386,-1.2501,-1.2501,-1.2501,-1.2501,-1.2501,-1.2501,-1.2515,-1.2644,-1.2712,-1.2745,-1.2874,-1.3017,-1.3159,-1.3308,-1.3383,-1.3417,-2.3043,-2.3043,-2.3043,-2.3043,-2.3007,-2.2911,-2.2681,-2.1521,-2.0417,-1.9818,-1.7076,-1.4902,-1.4687,-1.2904,-1.1789,-1.1762,-1.1491,-1.1267,-1.1138,-1.1111,-1.1043,-1.0921,-1.0785,-1.0717,-1.0717,-1.0717,-1.0717,-1.0717,-1.0717,-1.0717,-1.0717,-1.0717,-1.0717,-1.0717,-1.0717,-1.0717,-1.0717,-1.0717,-1.0717,-1.0717,-1.0717,-1.0717,-1.0717,-1.0717,-1.0717,-1.0738,-1.0867,-1.0914,-1.0914,-1.0914,-1.0637,-1.0496,-1.0509,-1.0155,-0.9837,-0.9656,-0.9703,-0.9927,-1.0452,-1.0717,-1.0585,-1.0326,-1.0452,-1.0717,-1.0717,-1.0717,-1.0758,-1.0887,-1.0812,-1.0799,-1.105,-1.0887,-1.0799,-1.105,-1.0907,-1.0792,-1.09,0.0,-1.0792,-1.09,-1.0934,-1.0995,-1.1118,-1.1151,-1.1151,-1.1131,-1.1267,-1.1402,-1.1511,-1.1694,-1.1837,-1.1918,-1.1925,-1.1925,-1.1925,-1.2101,-1.221,-1.2257,-1.24,-1.2481,-1.2501,-1.2501,-1.2501,-1.2501,-1.2501,-1.2501,-1.2501,-1.2528,-1.2617,-1.2732,-1.2759,-1.2861,-1.301,-1.3152,-1.3288,-1.3403,-2.3683,-2.3575,-2.3478,-2.3478,-2.3357,-2.3225,-2.3104,-2.142,-2.0081,-1.9865,-1.6858,-1.4757,-1.4578,-1.3006,-1.2013,-1.1843,-1.1708,-1.1565,-1.1416,-1.1253,-1.1097,-1.0955,-1.088,-1.0806,-1.0724,-1.0717,-1.0717,-1.0717,-1.0717,-1.0717,-1.0717,-1.0717,-1.0717,-1.0717,-1.0717,-1.0717,-1.0717,-1.0717,-1.0717,-1.0717,-1.0717,-1.0717,-1.0717,-1.0717,-1.0772,-1.0853,-1.0921,-1.0995,-1.1063,-1.0789,-1.0652,-1.0509,-1.0241,-1.006,-0.9899,-0.9745,-0.9698,-0.9727,-1.0053,-1.0437,-1.0443,-1.0309,-1.0578,-1.0846,-1.0846,-1.09,-1.0975,-1.105,-1.1009,-1.1002,-1.1138,-1.105,-1.1002,-1.1138,-1.105,-1.0955,-1.0948,-1.0955,-1.0955,-1.0948,-1.109,-1.1246,-1.1396,-1.1477,-1.1525,-1.1525,-1.1667,-1.1748,-1.1735,-1.1952,-1.2149,-1.2291,-1.2142,-1.206,-1.206,-1.221,-1.2291,-1.2291,-1.2433,-1.2501,-1.2501,-1.2501,-1.2549,-1.2617,-1.2535,-1.2596,-1.2752,-1.2752,-1.2834,-1.2976,-1.3057,-1.3132,-1.3227,-1.3451,-1.3532,-1.3532,-2.4311,-2.4118,-2.3937,-2.3937,-2.3768,-2.3575,-2.3393,-2.1268,-1.9738,-1.9632,-1.6554,-1.4283,-1.4158,-1.3065,-1.2196,-1.1959,-1.1904,-1.1823,-1.1681,-1.145,-1.124,-1.1063,-1.0989,-1.0894,-1.0778,-1.0738,-1.0717,-1.0717,-1.0717,-1.0717,-1.0717,-1.0717,-1.0717,-1.0717,-1.0717,-1.0717,-1.0717,-1.0717,-1.0717,-1.0717,-1.0717,-1.0717,-1.0724,-1.0758,-1.0846,-1.0955,-1.1029,-1.1124,-1.108,-1.0842,-1.055,-1.0385,-0.9998,-0.9829,-0.9793,-0.9852,-0.959,-0.9416,-0.9531,-0.9905,-1.0321,-1.0321,-1.0594,-1.0859,-1.0995,-1.1084,-1.1172,-1.1206,-1.1212,-1.1226,-1.126,-1.124,-1.1212,-1.1212,0.0,-1.1124,-1.1016,-1.1124,-1.1185,-1.1111,-1.1335,-1.1552,-1.1708,-1.1823,-1.1884,-1.1884,-1.2026,-1.2074,-1.1993,-1.2244,-1.2461,-1.2603,-1.2393,-1.2271,-1.2271,-1.2352,-1.2393,-1.2393,-1.2467,-1.2522,-1.2556,-1.2556,-1.2637,-1.2779,-1.2657,-1.2739,-1.2963,-1.2963,-1.3044,-1.3186,-1.3302,-1.339,-1.3485,-1.3709,-1.3743,-1.3688,-2.4552,-2.4383,-2.4202,-2.4202,-2.419,-2.3925,-2.3188,-2.0366,-1.8163,-1.7607,-1.4798,-1.2649,-1.2635,-1.2519,-1.2284,-1.2257,-1.2128,-1.1979,-1.1823,-1.1796,-1.1653,-1.1369,-1.1097,-1.0941,-1.0934,-1.0792,-1.0717,-1.0717,-1.0717,-1.0717,-1.0717,-1.0717,-1.0717,-1.0717,-1.0717,-1.0717,-1.0717,-1.0717,-1.0717,-1.0717,-1.0717,-1.0717,-1.0738,-1.088,-1.0941,-1.0982,-1.126,-1.108,-1.0831,-1.0967,-1.0494,-0.9706,-0.9815,-0.9411,-0.8992,-0.9215,-0.9275,-0.9226,-0.8997,-0.9492,-1.004,-1.0046,-1.0316,-1.0731,-1.1145,-1.1158,-1.1206,-1.1348,-1.1375,-1.1416,-1.1558,-1.147,-1.1375,-1.1375,0.0,0.0,-1.1151,-1.128,-1.1423,-1.1552,-1.1708,-1.1857,-1.2013,-1.204,-1.2047,-1.2047,-1.2189,-1.2325,-1.2447,-1.261,-1.2766,-1.2922,-1.2908,-1.2895,-1.2895,-1.2766,-1.2698,-1.2698,-1.2562,-1.2576,-1.2712,-1.2712,-1.28,-1.2942,-1.2935,-1.2942,-1.2963,-1.2963,-1.3044,-1.3173,-1.3186,-1.3363,-1.3614,-1.3634,-1.3722,-1.3804,-2.4866,-2.4661,-2.4432,-2.4263,-2.4238,-2.4082,-2.3611,-2.0558,-1.8112,-1.795,-1.478,-1.2501,-1.2501,-1.2454,-1.2386,-1.2298,-1.2237,-1.2101,-1.1843,-1.183,-1.1701,-1.1402,-1.1192,-1.1084,-1.1084,-1.1023,-1.0995,-1.0995,-1.0907,-1.086,-1.086,-1.0765,-1.0717,-1.0717,-1.0717,-1.0717,-1.0717,-1.0717,-1.0717,-1.0717,-1.0717,-1.0778,-1.0867,-1.0928,-1.1063,-1.124,-1.1348,-1.1226,-1.0951,-1.0856,-1.0462,-0.9911,-0.9809,-0.9617,-0.9416,-0.9503,-0.953,-0.9508,-0.9421,-0.9661,-0.9765,-0.9906,-1.0389,-1.0876,-1.1018,-1.1442,-1.1735,-1.1796,-1.1809,-1.1823,-1.1884,-1.1843,-1.1775,-1.1681,0.0,-1.1511,-1.1328,-1.1511,-1.1653,-1.1619,-1.183,-1.2033,-1.2189,-1.2203,-1.2277,-1.2461,-1.2528,-1.263,-1.2779,-1.2922,-1.303,-1.3091,-1.3186,-1.3146,-1.2963,-1.2901,-1.2874,-1.2874,-1.2813,-1.282,-1.2874,-1.2874,-1.2956,-1.3085,-1.3003,-1.3064,-1.3227,-1.3132,-1.318,-1.3315,-1.3315,-1.3383,-1.3498,-1.3593,-1.3661,-1.3702,-2.5156,-2.4951,-2.4673,-2.4407,-2.3856,-2.3551,-2.3632,-2.0147,-1.7511,-1.8074,-1.4828,-1.2501,-1.2501,-1.2501,-1.2461,-1.2366,-1.2359,-1.225,-1.1993,-1.1884,-1.1721,-1.147,-1.1314,-1.1233,-1.1233,-1.1185,-1.1165,-1.1165,-1.1016,-1.0948,-1.0948,-1.0792,-1.0717,-1.0717,-1.0717,-1.0717,-1.0717,-1.0717,-1.0751,-1.0792,-1.0792,-1.088,-1.1023,-1.107,-1.1246,-1.147,-1.1511,-1.1398,-1.1026,-1.0773,-1.0375,-0.9972,-0.986,-0.9699,-0.9671,-0.9671,-0.9671,-0.9671,-0.9671,-0.9634,-0.9735,-0.9879,-1.0378,-1.0736,-1.1027,-1.1475,-1.1911,-1.206,-1.2101,-1.2121,-1.2074,-1.2101,-1.2067,-1.1864,-1.187,-1.1816,-1.1565,-1.1789,-1.1938,-1.1843,-1.2047,-1.2244,-1.2345,-1.2359,-1.244,-1.2644,-1.2705,-1.282,-1.3017,-1.3166,-1.3247,-1.3247,-1.3349,-1.3302,-1.3105,-1.3051,-1.303,-1.3024,-1.2983,-1.2983,-1.303,-1.303,-1.3105,-1.3241,-1.3139,-1.3214,-1.339,-1.3288,-1.3308,-1.3403,-1.3403,-1.3431,-1.3485,-1.3593,-1.3627,-1.3627,-2.5385,-2.5228,-2.4963,-2.4673,-2.3121,-2.2366,-2.3258,-1.8937,-1.6205,-1.7564,-1.4748,-1.2508,-1.2501,-1.2501,-1.2501,-1.2501,-1.2501,-1.244,-1.2298,-1.1999,-1.1769,-1.1626,-1.1477,-1.1396,-1.1396,-1.1246,-1.1165,-1.1165,-1.1023,-1.0955,-1.0948,-1.0799,-1.0724,-1.0724,-1.0724,-1.0724,-1.0724,-1.0724,-1.0812,-1.0948,-1.0948,-1.1036,-1.1179,-1.1335,-1.1491,-1.164,-1.1782,-1.1341,-1.0889,-1.1024,-1.0376,-0.9693,-0.9807,-0.9764,-0.9671,-0.9671,-0.9671,-0.9671,-0.9671,-0.9671,-0.9822,-1.0116,-1.0266,-1.0416,-1.1164,-1.1463,-1.1469,-1.2067,-1.2189,-1.225,-1.2094,-1.2189,-1.2196,-1.1884,-1.1965,-1.2013,-1.1857,-1.2101,-1.2291,-1.2291,-1.2413,-1.2501,-1.2501,-1.2501,-1.2501,-1.2508,-1.2651,-1.2868,-1.3159,-1.3315,-1.3403,-1.3403,-1.3403,-1.3403,-1.3403,-1.3247,-1.3173,-1.3173,-1.303,-1.3037,-1.3173,-1.3173,-1.3254,-1.3403,-1.3403,-1.3403,-1.3403,-1.3403,-1.3403,-1.3403,-1.3403,-1.3492,-1.3627,-1.3627,-1.3627,-1.3627,-2.5421,-2.5373,-2.524,-2.4975,-2.3234,-2.198,-2.21,-1.8456,-1.5971,-1.6393,-1.4336,-1.2779,-1.2671,-1.2664,-1.2617,-1.2508,-1.2501,-1.244,-1.2298,-1.2101,-1.1972,-1.1932,-1.1687,-1.1552,-1.1552,-1.1504,-1.1484,-1.1484,-1.1335,-1.126,-1.1253,-1.1104,-1.1029,-1.1029,-1.1029,-1.1029,-1.1029,-1.1029,-1.1056,-1.1097,-1.1097,-1.1185,-1.1328,-1.1375,-1.1545,-1.1775,-1.1524,-1.1256,-1.0866,-1.0597,-1.04,-1.0052,-1.0085,-1.0014,-0.9916,-0.9916,-0.9916,-0.9916,-0.9916,-0.9916,-0.9878,-0.986,-1.0179,-1.0545,-1.1005,-1.1613,-1.2063,-1.2373,-1.2651,-1.2745,-1.2705,-1.2644,-1.2569,-1.2474,-1.2501,-1.244,-1.2189,-1.2406,-1.2522,-1.2318,-1.2413,-1.2501,-1.2501,-1.2596,-1.2705,-1.2813,-1.3057,-1.3241,-1.3329,-1.3376,-1.3403,-1.3403,-1.3403,-1.3403,-1.3403,-1.3356,-1.3336,-1.3336,-1.3288,-1.3295,-1.3336,-1.3336,-1.3356,-1.3403,-1.3403,-1.3403,-1.3403,-1.3403,-1.3403,-1.3403,-1.3403,-1.3431,-1.3471,-1.3471,-1.3471,-1.3471,-2.5433,-2.5433,-2.5361,-2.5096,-2.2854,-2.1128,-2.1477,-1.7837,-1.5023,-1.5764,-1.4172,-1.2929,-1.2834,-1.282,-1.2759,-1.2603,-1.2535,-1.2467,-1.2379,-1.2237,-1.2149,-1.2149,-1.1925,-1.1769,-1.1701,-1.1701,-1.1674,-1.1619,-1.1463,-1.1389,-1.1389,-1.1233,-1.1165,-1.1165,-1.1165,-1.1165,-1.1165,-1.1165,-1.1233,-1.1341,-1.1274,-1.1382,-1.1565,-1.1565,-1.1714,-1.1932,-1.1547,-1.1265,-1.0992,-1.0685,-1.0325,-1.0139,-1.0188,-1.015,-1.0101,-1.015,-1.0166,-1.0166,-1.0166,-1.0166,-1.0134,-0.9987,-1.0087,-1.0383,-1.0904,-1.151,-1.1956,-1.2489,-1.2735,-1.2963,-1.2963,-1.2888,-1.282,-1.282,-1.282,-1.2759,-1.2583,-1.2657,-1.2684,-1.2569,-1.2576,-1.2617,-1.2678,-1.282,-1.2969,-1.3125,-1.3247,-1.3336,-1.3397,-1.3403,-1.3403,-1.3403,-1.3403,-1.3403,-1.3403,-1.3403,-1.3403,-1.3403,-1.3403,-1.3403,-1.3403,-1.3403,-1.3403,-1.3403,-1.3403,-1.3403,-1.3403,-1.3403,-1.3403,-1.3403,-1.3403,-1.3403,-1.3403,-1.3403,-1.3403,-1.3403,-2.5433,-2.5433,-2.5361,-2.512,-2.197,-1.9929,-2.1189,-1.6816,-1.4024,-1.548,-1.404,-1.2996,-1.2983,-1.2969,-1.2901,-1.2766,-1.261,-1.2515,-1.2501,-1.2379,-1.2311,-1.2311,-1.2176,-1.2026,-1.1877,-1.1857,-1.1789,-1.166,-1.1518,-1.145,-1.145,-1.1307,-1.1246,-1.124,-1.1226,-1.1219,-1.1219,-1.1206,-1.1362,-1.1606,-1.1484,-1.1592,-1.183,-1.1843,-1.1952,-1.2121,-1.1802,-1.1484,-1.1299,-1.0843,-1.037,-1.0074,-1.0199,-1.0226,-1.0242,-1.0356,-1.0384,-1.0384,-1.0384,-1.0384,-1.0384,-1.0384,-1.0221,-1.0236,-1.0668,-1.1177,-1.1696,-1.2147,-1.2668,-1.3003,-1.2996,-1.299,-1.2983,-1.2996,-1.299,-1.2983,-1.2983,-1.2861,-1.282,-1.2942,-1.2834,-1.2807,-1.2949,-1.3091,-1.3234,-1.339,-1.3268,-1.3254,-1.3397,-1.3403,-1.3403,-1.3403,-1.3417,-1.3424,-1.3424,-1.3424,-1.3417,-1.3403,-1.3403,-1.3403,-1.3403,-1.3403,-1.3403,-1.3403,-1.3403,-1.3403,-1.3403,-1.3403,-1.3403,-1.3403,-1.3403,-1.3403,-1.3403,-1.3417,-1.341,-1.3403,-2.5433,-2.5433,-2.5421,-2.5361,-2.2076,-1.9637,-1.9884,-1.6341,-1.3693,-1.3865,-1.3652,-1.3261,-1.3139,-1.303,-1.2949,-1.2915,-1.2773,-1.263,-1.2508,-1.2474,-1.2454,-1.2454,-1.2427,-1.2338,-1.2196,-1.2074,-1.1999,-1.1965,-1.1932,-1.1918,-1.1918,-1.1884,-1.1864,-1.1864,-1.1742,-1.1687,-1.1681,-1.1565,-1.1558,-1.1626,-1.1701,-1.1775,-1.1843,-1.1965,-1.2176,-1.2259,-1.1516,-1.1378,-1.1438,-1.0895,-1.0539,-1.0329,-1.0443,-1.0416,-1.0351,-1.0378,-1.0384,-1.0384,-1.0384,-1.0384,-1.0384,-1.0384,-1.0346,-1.0473,-1.0821,-1.1057,-1.1463,-1.2306,-1.2566,-1.2808,-1.3308,-1.3207,-1.3166,-1.3288,-1.3207,-1.3125,-1.3125,-1.3098,-1.3044,-1.2969,-1.2929,-1.2922,-1.2956,-1.3091,-1.3234,-1.339,-1.337,-1.3363,-1.3397,-1.3403,-1.3403,-1.3403,-1.3519,-1.358,-1.358,-1.358,-1.3519,-1.3403,-1.3403,-1.3403,-1.3403,-1.3403,-1.3403,-1.3403,-1.3403,-1.3403,-1.3403,-1.3403,-1.3403,-1.3403,-1.3403,-1.3403,-1.3417,-1.3539,-1.3505,-1.3417,-2.5433,-2.4738,-2.4041,-2.4041,-2.0988,-1.8432,-1.8228,-1.5678,-1.3675,-1.3532,-1.3444,-1.337,-1.3288,-1.3214,-1.3146,-1.3071,-1.2922,-1.2807,-1.2725,-1.2718,-1.2718,-1.2718,-1.2651,-1.2576,-1.2501,-1.2352,-1.2203,-1.206,-1.206,-1.206,-1.206,-1.206,-1.206,-1.206,-1.1979,-1.1938,-1.1938,-1.1864,-1.187,-1.1938,-1.1938,-1.1986,-1.206,-1.2142,-1.2112,-1.2112,-1.1467,-1.1177,-1.1039,-1.0617,-1.0438,-1.0405,-1.052,-1.0514,-1.0476,-1.0536,-1.0596,-1.0628,-1.0568,-1.0596,-1.0628,-1.0568,-1.0552,-1.0536,-1.0807,-1.1167,-1.1716,-1.2275,-1.2682,-1.3065,-1.3403,-1.3336,-1.3308,-1.339,-1.3336,-1.3308,-1.3376,-1.3329,-1.3308,-1.337,-1.3254,-1.32,-1.3275,-1.3281,-1.3342,-1.3498,-1.3444,-1.3403,-1.3403,-1.3403,-1.3437,-1.3505,-1.3587,-1.3661,-1.3729,-1.3729,-1.3688,-1.3607,-1.3539,-1.3546,-1.3607,-1.3539,-1.3512,-1.3505,-1.3431,-1.3403,-1.3403,-1.3403,-1.3403,-1.3403,-1.3403,-1.3403,-1.3417,-1.3573,-1.362,-1.362,-2.5433,-2.3869,-2.2654,-2.2654,-1.9525,-1.7031,-1.6844,-1.513,-1.379,-1.3648,-1.3498,-1.3403,-1.3403,-1.3403,-1.3329,-1.3152,-1.3051,-1.299,-1.2963,-1.2963,-1.2963,-1.2963,-1.284,-1.2766,-1.2766,-1.2644,-1.2433,-1.2135,-1.2135,-1.2135,-1.2135,-1.2135,-1.2135,-1.2135,-1.2108,-1.2101,-1.2101,-1.2074,-1.2135,-1.2244,-1.2142,-1.2176,-1.2291,-1.2318,-1.2053,-1.1818,-1.1421,-1.0964,-1.0449,-1.0449,-1.0449,-1.046,-1.0558,-1.0585,-1.0612,-1.0732,-1.084,-1.09,-1.0819,-1.0873,-1.0927,-1.0824,-1.0797,-1.0775,-1.0672,-1.1294,-1.18,-1.2081,-1.2772,-1.3271,-1.3437,-1.3437,-1.3437,-1.3437,-1.3458,-1.3519,-1.3648,-1.3553,-1.3559,-1.3777,-1.3566,-1.3451,-1.358,-1.3478,-1.3451,-1.358,-1.3471,-1.341,-1.3437,-1.3417,-1.3485,-1.3661,-1.3668,-1.3736,-1.3878,-1.3878,-1.3892,-1.3919,-1.3777,-1.3749,-1.3838,-1.3695,-1.3627,-1.362,-1.3464,-1.3403,-1.3403,-1.3403,-1.3403,-1.3403,-1.3403,-1.3403,-1.3417,-1.3573,-1.3715,-1.3844,-2.5433,-2.3869,-2.2654,-2.2654,-1.9525,-1.7031,-1.6844,-1.513,-1.379,-1.3648,-1.3498,-1.3403,-1.3403,-1.3403,-1.3288,-1.3017,-1.3085,-1.3091,-1.2969,-1.2963,-1.2963,-1.2963,-1.2942,-1.2929,-1.2929,-1.2908,-1.2752,-1.244,-1.244,-1.244,-1.244,-1.244,-1.244,-1.2433,-1.2311,-1.2257,-1.225,-1.2121,-1.2074,-1.2101,-1.2216,-1.2271,-1.2305,-1.1965,-1.2011,-1.2077,-1.1308,-1.0829,-1.0688,-1.0688,-1.0688,-1.0693,-1.071,-1.071,-1.0737,-1.0857,-1.0905,-1.0938,-1.1031,-1.1063,-1.1074,-1.1058,-1.1052,-1.1047,-1.1031,-1.0949,-1.121,-1.2071,-1.2246,-1.2583,-1.3432,-1.36,-1.36,-1.36,-1.3702,-1.379,-1.381,-1.3797,-1.3749,-1.3668,-1.3505,-1.341,-1.3431,-1.341,-1.341,-1.3431,-1.341,-1.3458,-1.3593,-1.3471,-1.3526,-1.3804,-1.381,-1.3885,-1.4041,-1.4041,-1.4109,-1.4238,-1.4082,-1.3953,-1.3838,-1.3695,-1.3627,-1.362,-1.3464,-1.3403,-1.3403,-1.3403,-1.3403,-1.3403,-1.3403,-1.3403,-1.3417,-1.3573,-1.3715,-1.3858,-2.4052,-2.2481,-2.0742,-1.97,-1.7263,-1.5499,-1.5425,-1.4583,-1.3912,-1.377,-1.362,-1.3498,-1.341,-1.3403,-1.3349,-1.322,-1.3261,-1.3275,-1.3214,-1.3207,-1.3207,-1.3207,-1.3125,-1.3078,-1.3078,-1.3003,-1.2895,-1.2759,-1.2671,-1.263,-1.263,-1.2542,-1.2501,-1.2501,-1.2433,-1.2454,-1.2528,-1.2372,-1.2359,-1.2433,-1.2413,-1.2253,-1.2119,-1.2102,-1.1767,-1.1414,-1.0918,-1.0799,-1.084,-1.084,-1.0884,-1.0938,-1.0938,-1.0938,-1.0954,-1.1003,-1.1069,-1.1112,-1.1107,-1.115,-1.1183,-1.1118,-1.1101,-1.1101,-1.1101,-1.1112,-1.144,-1.2228,-1.2551,-1.2892,-1.3579,-1.3749,-1.3749,-1.3749,-1.3797,-1.3871,-1.396,-1.3973,-1.3946,-1.3885,-1.3743,-1.3648,-1.3648,-1.3573,-1.3559,-1.3641,-1.3492,-1.3464,-1.362,-1.3566,-1.3627,-1.3831,-1.3926,-1.4041,-1.4197,-1.4197,-1.4231,-1.4299,-1.4231,-1.4116,-1.3966,-1.3817,-1.3702,-1.362,-1.3464,-1.3403,-1.3403,-1.3403,-1.3403,-1.3403,-1.3403,-1.3498,-1.3654,-1.3722,-1.4064,-1.4625]}]]